[[{"header":{"parameterUnit":"m.s-1","parameterCategory":1,"la1":30.6,"la2":29.2853,"lo1":-89.7004,"lo2":-87.6739,"dy":0.0162,"dx":0.0183,"nx":112,"ny":82,"refTime":"2023-05-14T12:00:00:Z","depth":0,"parameterNumber":2,"parameterNumberName":"U-component_of_WINDS"},"data":[0.0,0.0,0.0,0.0,0.0,0.0,0.0,0.0,0.0,0.0,0.0,0.0,0.0,0.0,0.0,0.0,0.0,0.0,0.0,0.0,0.0,0.0,0.0,0.0,0.0,0.0,0.0,0.0,0.0,0.0,0.0,0.0,0.0,0.0,0.0,0.0,0.0,0.0,0.0,0.0,0.0,0.0,0.0,0.0,0.0,0.0,0.0,0.0,0.0,0.0,0.0,0.0,0.0,0.0,0.0,0.0,0.0,0.0,0.0,0.0,0.0,0.0,0.0,0.0,0.0,0.0,0.0,0.0,0.0,0.0,0.0,0.0,0.0,0.0,0.0,0.0,0.0,0.0,0.0,0.0,0.0,0.0,0.0,0.0,0.0,0.0,0.0,0.0,0.0,0.0,-2.2464,-2.2995,-2.4725,-2.5818,-2.577,-2.6377,-2.6554,-2.6056,0.0,0.0,0.0,0.0,0.0,0.0,0.0,0.0,0.0,0.0,0.0,0.0,0.0,0.0,0.0,0.0,0.0,0.0,0.0,0.0,0.0,0.0,0.0,0.0,0.0,0.0,0.0,0.0,0.0,0.0,0.0,0.0,0.0,0.0,0.0,0.0,0.0,0.0,0.0,0.0,0.0,0.0,0.0,0.0,0.0,0.0,0.0,0.0,0.0,0.0,0.0,0.0,0.0,0.0,0.0,0.0,0.0,0.0,0.0,0.0,0.0,0.0,0.0,0.0,0.0,0.0,0.0,0.0,0.0,0.0,0.0,0.0,0.0,0.0,0.0,0.0,0.0,0.0,0.0,0.0,0.0,0.0,0.0,0.0,0.0,0.0,0.0,0.0,0.0,0.0,0.0,0.0,0.0,0.0,0.0,0.0,0.0,0.0,0.0,0.0,0.0,0.0,0.0,0.0,-2.3256,-2.4816,-2.6155,-2.6718,-2.6184,-2.6701,-2.6759,-2.6132,0.0,0.0,0.0,0.0,0.0,0.0,0.0,0.0,0.0,0.0,0.0,0.0,0.0,0.0,0.0,0.0,0.0,0.0,0.0,0.0,0.0,0.0,0.0,0.0,0.0,0.0,0.0,0.0,0.0,0.0,0.0,0.0,0.0,0.0,0.0,0.0,0.0,0.0,0.0,0.0,0.0,0.0,0.0,0.0,0.0,0.0,0.0,0.0,0.0,0.0,0.0,0.0,0.0,0.0,0.0,0.0,0.0,0.0,0.0,0.0,0.0,0.0,0.0,0.0,0.0,0.0,0.0,0.0,0.0,0.0,0.0,0.0,0.0,0.0,0.0,0.0,0.0,0.0,0.0,0.0,0.0,0.0,0.0,0.0,0.0,0.0,0.0,0.0,0.0,0.0,0.0,0.0,0.0,0.0,0.0,0.0,0.0,0.0,0.0,0.0,0.0,0.0,0.0,-2.3766,-2.4753,-2.6006,-2.6887,-2.7085,-2.6245,-2.6859,-2.6961,-2.6256,-2.5287,0.0,0.0,0.0,0.0,0.0,0.0,0.0,0.0,0.0,0.0,0.0,0.0,0.0,0.0,0.0,0.0,0.0,0.0,0.0,0.0,0.0,0.0,0.0,0.0,0.0,0.0,0.0,0.0,0.0,0.0,0.0,0.0,0.0,0.0,0.0,0.0,0.0,0.0,0.0,0.0,0.0,0.0,0.0,0.0,0.0,0.0,0.0,0.0,0.0,0.0,0.0,0.0,0.0,0.0,0.0,0.0,0.0,0.0,0.0,0.0,0.0,0.0,0.0,0.0,0.0,0.0,0.0,0.0,0.0,0.0,0.0,0.0,0.0,0.0,0.0,0.0,0.0,0.0,0.0,0.0,0.0,0.0,0.0,0.0,0.0,0.0,0.0,0.0,0.0,0.0,0.0,0.0,0.0,0.0,0.0,0.0,0.0,0.0,0.0,0.0,0.0,0.0,-2.5048,-2.5988,-2.6864,-2.7372,-2.7376,-2.6687,-2.7126,-2.7241,-2.6699,-2.5564,0.0,0.0,0.0,0.0,0.0,0.0,0.0,0.0,0.0,0.0,0.0,0.0,0.0,0.0,0.0,0.0,0.0,0.0,0.0,0.0,0.0,0.0,0.0,0.0,0.0,0.0,0.0,0.0,0.0,0.0,0.0,0.0,0.0,0.0,0.0,0.0,0.0,0.0,0.0,0.0,0.0,0.0,0.0,0.0,0.0,0.0,0.0,0.0,0.0,0.0,0.0,0.0,0.0,0.0,0.0,0.0,0.0,0.0,0.0,0.0,0.0,0.0,0.0,0.0,0.0,0.0,0.0,0.0,0.0,0.0,0.0,0.0,0.0,0.0,0.0,0.0,0.0,0.0,0.0,0.0,0.0,0.0,0.0,0.0,0.0,0.0,0.0,0.0,0.0,0.0,0.0,0.0,0.0,0.0,0.0,0.0,0.0,0.0,0.0,0.0,0.0,0.0,-2.5315,-2.6192,-2.7225,-2.7725,-2.7946,-2.7881,-2.771,-2.7627,-2.7685,-2.5948,0.0,0.0,0.0,0.0,0.0,0.0,0.0,0.0,0.0,0.0,0.0,0.0,0.0,0.0,0.0,0.0,0.0,0.0,0.0,0.0,0.0,0.0,0.0,0.0,0.0,0.0,0.0,0.0,0.0,0.0,0.0,0.0,0.0,0.0,0.0,0.0,0.0,0.0,0.0,0.0,0.0,0.0,0.0,0.0,0.0,0.0,0.0,0.0,0.0,0.0,0.0,0.0,0.0,0.0,0.0,0.0,0.0,0.0,0.0,0.0,0.0,0.0,0.0,0.0,0.0,0.0,0.0,0.0,0.0,0.0,0.0,0.0,0.0,0.0,0.0,0.0,0.0,0.0,0.0,0.0,0.0,0.0,0.0,0.0,0.0,0.0,0.0,0.0,0.0,0.0,0.0,0.0,0.0,0.0,0.0,0.0,0.0,0.0,0.0,0.0,0.0,0.0,-2.5965,-2.7003,-2.7575,-2.8122,-2.8358,-2.8155,-2.802,-2.7899,-2.7805,0.0,0.0,0.0,0.0,0.0,0.0,0.0,0.0,0.0,0.0,0.0,0.0,0.0,0.0,0.0,0.0,0.0,0.0,0.0,0.0,0.0,0.0,0.0,0.0,0.0,0.0,0.0,0.0,0.0,0.0,0.0,0.0,0.0,0.0,0.0,0.0,0.0,0.0,0.0,0.0,0.0,0.0,0.0,0.0,0.0,0.0,0.0,0.0,0.0,0.0,0.0,0.0,0.0,0.0,0.0,0.0,0.0,0.0,0.0,0.0,0.0,0.0,0.0,0.0,0.0,0.0,0.0,0.0,0.0,0.0,0.0,0.0,0.0,0.0,0.0,0.0,0.0,0.0,0.0,0.0,0.0,0.0,0.0,0.0,0.0,0.0,0.0,0.0,0.0,0.0,0.0,0.0,0.0,0.0,0.0,0.0,0.0,0.0,0.0,0.0,0.0,0.0,-2.5043,-2.647,-2.759,-2.794,-2.8414,-2.8716,-2.8694,-2.8396,-2.8227,-2.8267,0.0,0.0,0.0,0.0,0.0,0.0,0.0,0.0,0.0,0.0,0.0,0.0,0.0,0.0,0.0,0.0,0.0,0.0,0.0,0.0,0.0,0.0,0.0,0.0,0.0,0.0,0.0,0.0,0.0,0.0,0.0,0.0,0.0,0.0,0.0,0.0,0.0,0.0,0.0,0.0,0.0,0.0,0.0,0.0,0.0,0.0,0.0,0.0,0.0,0.0,0.0,0.0,0.0,0.0,0.0,0.0,0.0,0.0,0.0,0.0,0.0,0.0,0.0,0.0,0.0,0.0,0.0,0.0,0.0,0.0,0.0,0.0,0.0,0.0,0.0,0.0,0.0,0.0,0.0,0.0,0.0,0.0,0.0,0.0,0.0,0.0,0.0,0.0,0.0,0.0,0.0,0.0,0.0,0.0,0.0,0.0,0.0,0.0,0.0,0.0,0.0,0.0,-2.5423,-2.6732,-2.7825,-2.8348,-2.8573,-2.8997,-2.975,-2.8813,-2.8519,0.0,0.0,0.0,0.0,0.0,0.0,0.0,0.0,0.0,0.0,0.0,0.0,0.0,0.0,0.0,0.0,0.0,0.0,0.0,0.0,0.0,0.0,0.0,0.0,0.0,0.0,0.0,0.0,0.0,0.0,0.0,0.0,0.0,0.0,0.0,0.0,0.0,0.0,0.0,0.0,0.0,0.0,0.0,0.0,0.0,0.0,0.0,0.0,0.0,0.0,0.0,0.0,0.0,0.0,0.0,0.0,0.0,0.0,0.0,0.0,0.0,0.0,0.0,0.0,0.0,0.0,0.0,0.0,0.0,0.0,0.0,0.0,0.0,0.0,0.0,0.0,0.0,0.0,0.0,0.0,0.0,0.0,0.0,0.0,0.0,0.0,0.0,0.0,0.0,0.0,0.0,0.0,0.0,0.0,0.0,0.0,0.0,0.0,0.0,0.0,0.0,0.0,0.0,-2.605,-2.7135,-2.8073,-2.8558,-2.9013,-2.9515,-3.0044,-2.9648,-2.937,-2.9298,0.0,0.0,0.0,0.0,0.0,0.0,0.0,0.0,0.0,0.0,0.0,0.0,0.0,0.0,0.0,0.0,0.0,0.0,0.0,0.0,0.0,0.0,0.0,0.0,0.0,0.0,0.0,0.0,0.0,0.0,0.0,0.0,0.0,0.0,0.0,0.0,0.0,0.0,0.0,0.0,0.0,0.0,0.0,0.0,0.0,0.0,0.0,0.0,0.0,0.0,0.0,0.0,0.0,0.0,0.0,0.0,0.0,0.0,0.0,0.0,0.0,0.0,0.0,0.0,0.0,0.0,0.0,0.0,0.0,0.0,0.0,0.0,0.0,0.0,0.0,0.0,0.0,0.0,0.0,0.0,0.0,0.0,0.0,0.0,0.0,0.0,0.0,0.0,0.0,0.0,0.0,0.0,0.0,0.0,0.0,0.0,0.0,0.0,0.0,0.0,0.0,0.0,-2.6434,-2.7452,-2.8268,-2.8732,-2.9198,-2.9694,-3.0215,-3.0026,-2.9753,-2.942,0.0,0.0,0.0,0.0,0.0,0.0,0.0,0.0,0.0,0.0,0.0,0.0,0.0,0.0,0.0,0.0,0.0,0.0,0.0,0.0,0.0,0.0,0.0,0.0,0.0,0.0,0.0,0.0,0.0,0.0,0.0,0.0,0.0,0.0,0.0,0.0,0.0,0.0,0.0,0.0,0.0,0.0,0.0,0.0,0.0,0.0,0.0,0.0,0.0,0.0,0.0,0.0,0.0,0.0,0.0,0.0,0.0,0.0,0.0,0.0,0.0,0.0,0.0,0.0,0.0,0.0,0.0,0.0,0.0,0.0,0.0,0.0,0.0,0.0,0.0,0.0,0.0,0.0,0.0,0.0,0.0,0.0,0.0,0.0,0.0,0.0,0.0,0.0,0.0,0.0,0.0,0.0,0.0,0.0,0.0,0.0,0.0,0.0,0.0,0.0,0.0,0.0,-2.6766,-2.7692,-2.8414,-2.8858,-2.9273,-2.9722,-3.0251,-3.0156,-2.9909,-2.9627,0.0,0.0,0.0,0.0,0.0,0.0,0.0,0.0,0.0,0.0,0.0,0.0,0.0,0.0,0.0,0.0,0.0,0.0,0.0,0.0,0.0,0.0,0.0,0.0,0.0,0.0,0.0,0.0,0.0,0.0,0.0,0.0,0.0,0.0,0.0,0.0,0.0,0.0,0.0,0.0,0.0,0.0,0.0,0.0,0.0,0.0,0.0,0.0,0.0,0.0,0.0,0.0,0.0,0.0,0.0,0.0,0.0,0.0,0.0,0.0,-2.6479,-2.5506,0.0,0.0,0.0,0.0,0.0,0.0,0.0,0.0,0.0,0.0,0.0,0.0,0.0,0.0,0.0,0.0,0.0,0.0,0.0,0.0,0.0,0.0,0.0,0.0,0.0,0.0,0.0,0.0,0.0,0.0,0.0,0.0,0.0,0.0,0.0,0.0,0.0,0.0,0.0,0.0,-2.7474,-2.8143,-2.8668,-2.9029,-2.9454,-2.9941,-3.0426,-3.0744,-3.0747,-3.0329,-2.9917,0.0,0.0,0.0,0.0,0.0,0.0,0.0,0.0,0.0,0.0,0.0,0.0,0.0,0.0,0.0,0.0,0.0,0.0,0.0,0.0,0.0,0.0,0.0,0.0,0.0,0.0,0.0,0.0,0.0,0.0,0.0,0.0,0.0,0.0,0.0,0.0,0.0,0.0,0.0,0.0,0.0,0.0,0.0,0.0,0.0,0.0,0.0,0.0,0.0,0.0,0.0,0.0,0.0,0.0,0.0,0.0,0.0,0.0,0.0,-2.8062,-2.7285,0.0,0.0,0.0,0.0,0.0,0.0,0.0,0.0,0.0,0.0,0.0,0.0,0.0,0.0,0.0,0.0,0.0,0.0,0.0,0.0,0.0,0.0,0.0,0.0,0.0,0.0,0.0,0.0,0.0,0.0,0.0,0.0,0.0,0.0,0.0,0.0,0.0,0.0,0.0,0.0,-2.765,-2.8186,-2.8684,-2.9045,-2.9499,-2.9984,-3.0401,-3.0855,-3.0891,-3.0443,-3.0335,0.0,0.0,0.0,0.0,0.0,0.0,0.0,0.0,0.0,0.0,0.0,0.0,0.0,0.0,0.0,0.0,0.0,0.0,0.0,0.0,0.0,0.0,0.0,0.0,0.0,0.0,0.0,0.0,0.0,0.0,0.0,0.0,0.0,0.0,0.0,0.0,0.0,0.0,0.0,0.0,0.0,0.0,0.0,0.0,0.0,0.0,0.0,0.0,0.0,0.0,0.0,0.0,0.0,-2.8338,-2.8537,-2.9095,-2.9781,-2.9922,-2.9618,-2.9814,-2.9436,-2.8704,-2.8477,0.0,0.0,0.0,0.0,0.0,0.0,0.0,0.0,0.0,0.0,0.0,0.0,0.0,0.0,0.0,0.0,0.0,0.0,0.0,0.0,0.0,0.0,-2.7033,-2.7336,-2.7396,-2.7258,-2.682,0.0,0.0,0.0,0.0,0.0,0.0,0.0,0.0,0.0,0.0,0.0,-2.7665,-2.8152,-2.8636,-2.9029,-2.9515,-2.9957,-3.0359,-3.0733,-3.0825,-3.0466,-3.0589,-3.0508,0.0,0.0,0.0,0.0,0.0,0.0,0.0,0.0,0.0,0.0,0.0,0.0,0.0,0.0,0.0,0.0,0.0,0.0,0.0,0.0,0.0,0.0,0.0,0.0,0.0,0.0,0.0,0.0,0.0,0.0,0.0,0.0,-2.3313,-2.3082,0.0,0.0,0.0,0.0,0.0,0.0,0.0,0.0,0.0,0.0,0.0,0.0,0.0,-2.8054,-2.814,-2.8226,-2.8326,-2.8454,-2.8958,-2.9407,-2.9768,-3.0441,-3.0808,-3.0881,-3.0968,0.0,-2.9213,-2.9034,0.0,0.0,0.0,0.0,0.0,0.0,0.0,0.0,0.0,0.0,0.0,0.0,0.0,0.0,0.0,0.0,0.0,0.0,0.0,0.0,0.0,0.0,-2.7645,-2.7804,-2.7817,-2.7879,-2.7919,-2.7715,-2.7258,-2.6497,-2.6455,-2.6283,0.0,0.0,0.0,0.0,0.0,0.0,-2.7725,-2.8235,-2.8716,-2.9075,-2.9457,-2.9902,-3.0375,-3.0658,-3.0908,-3.1077,-3.0771,-3.0594,-3.0612,-3.007,0.0,0.0,0.0,0.0,0.0,0.0,0.0,0.0,0.0,0.0,0.0,0.0,0.0,0.0,0.0,0.0,0.0,0.0,0.0,0.0,0.0,0.0,0.0,0.0,0.0,0.0,0.0,0.0,0.0,-2.3499,-2.3254,-2.3362,-2.3345,-2.3476,0.0,0.0,0.0,0.0,0.0,0.0,0.0,0.0,0.0,-2.801,-2.8482,-2.8726,-2.8726,-2.9097,-2.9283,-2.9342,-2.9674,-2.9923,-3.0161,-3.0526,-3.0776,-3.0955,-3.0984,-3.0661,-3.0116,-2.9692,-2.9154,-2.8562,0.0,0.0,0.0,0.0,-2.8886,-2.8685,-2.8469,-2.8326,-2.8211,-2.8096,0.0,0.0,0.0,0.0,0.0,0.0,0.0,-2.7112,-2.7112,-2.7606,-2.8052,-2.8243,-2.832,-2.8461,-2.8636,-2.8574,-2.821,-2.7159,-2.6993,-2.6981,-2.6761,-2.6876,0.0,0.0,0.0,-2.7764,-2.8128,-2.8316,-2.851,-2.892,-2.935,-2.971,-3.0044,-3.041,-3.074,-3.0942,-3.0968,-3.1008,-3.1192,-3.0612,-3.0195,0.0,0.0,0.0,0.0,0.0,0.0,0.0,0.0,0.0,0.0,0.0,0.0,0.0,0.0,0.0,0.0,0.0,0.0,0.0,0.0,0.0,0.0,0.0,0.0,0.0,0.0,0.0,0.0,-2.3616,-2.3359,-2.3803,-2.3758,-2.3923,0.0,0.0,0.0,0.0,0.0,0.0,-2.7303,-2.7662,-2.8029,-2.8271,-2.8828,-2.9188,-2.9203,-2.9746,-2.9988,-3.0036,-3.0036,-3.0097,-3.0266,-3.0505,-3.0626,-3.0702,-3.0792,-3.0747,-3.0673,-3.0324,-2.9653,-2.8928,-2.9002,-2.9001,-2.9013,-2.9636,-2.9678,-2.934,-2.8907,-2.8748,-2.872,-2.846,-2.8166,-2.7973,-2.7806,0.0,0.0,0.0,0.0,-2.7591,-2.7591,-2.7913,-2.8314,-2.8457,-2.8522,-2.8651,-2.8817,-2.8871,-2.8584,-2.7657,-2.7467,-2.7434,-2.7405,-2.7572,0.0,-2.8024,-2.8022,-2.8159,-2.8589,-2.849,-2.8563,-2.9029,-2.9293,-2.9515,-2.9766,-3.0156,-3.0468,-3.0723,-3.0958,-3.1213,-3.1483,-3.1031,-3.0762,-3.0696,0.0,0.0,0.0,0.0,0.0,0.0,0.0,0.0,0.0,0.0,0.0,0.0,0.0,0.0,0.0,0.0,0.0,0.0,0.0,0.0,0.0,0.0,0.0,0.0,0.0,0.0,0.0,0.0,0.0,-2.3896,-2.3891,0.0,0.0,0.0,0.0,-2.5534,-2.5985,-2.6671,-2.7623,-2.7824,-2.8319,-2.9303,-2.9345,-2.9435,-2.956,-2.9588,-2.9713,-2.9822,-2.9822,-2.9898,-3.0111,-3.0467,-3.0499,-3.0326,-3.0548,-3.0473,-3.0326,-3.0702,-3.0717,-3.0462,-3.0136,-3.0444,-3.1019,-3.0842,-3.0991,-3.1298,-3.06,-3.0311,-3.0099,-2.9512,-2.9066,-2.8684,-2.857,-2.8414,0.0,0.0,-2.8078,-2.8039,-2.8039,-2.8052,-2.8079,-2.8145,-2.8145,-2.8131,-2.813,-2.817,-2.8153,-2.8147,-2.8146,-2.7939,-2.7285,0.0,-2.7586,-2.7675,-2.8111,-2.8552,-2.8998,-2.8959,-2.9053,-2.9601,-2.9328,-2.9289,-2.975,-2.9957,-3.0189,-3.0468,-3.0699,-3.0942,-3.123,-3.124,-3.1014,-3.0424,-3.0372,0.0,0.0,0.0,0.0,0.0,0.0,0.0,0.0,0.0,0.0,0.0,0.0,0.0,0.0,0.0,0.0,0.0,0.0,0.0,0.0,0.0,0.0,0.0,0.0,0.0,0.0,0.0,0.0,-2.3167,-2.3124,0.0,-2.4002,-2.4432,-2.513,-2.6382,-2.7056,-2.7786,-2.8635,-2.9134,-2.9629,-2.998,-3.0259,-3.0197,-2.9873,-2.9873,-2.9678,-2.9338,-2.9338,-2.9449,-2.9574,-2.9845,-2.9955,-3.0007,-3.0187,-3.0262,-3.0172,-3.0325,-3.0497,-3.064,-3.1113,-3.1282,-3.1395,-3.1551,-3.1599,-3.1401,-3.0611,-3.0322,-3.016,-2.9164,-2.878,-2.8587,-2.8341,-2.821,-2.8131,-2.7987,-2.7789,-2.7669,-2.7616,-2.7616,-2.7616,-2.7616,-2.7669,-2.7723,-2.7868,-2.7894,-2.7947,-2.8126,-2.8109,-2.813,-2.8102,-2.8138,-2.8388,-2.8867,-2.8771,-2.8856,-2.9448,-2.9322,-2.9335,-2.9909,-3.0099,-3.013,-2.9989,-3.0776,-3.1177,-3.091,-3.1539,-3.1788,-3.1591,-3.164,-3.1409,-3.0818,-3.0801,-3.0649,0.0,0.0,0.0,0.0,0.0,0.0,0.0,0.0,0.0,0.0,0.0,0.0,0.0,0.0,0.0,0.0,0.0,0.0,0.0,0.0,0.0,0.0,0.0,0.0,0.0,-2.3147,-2.2972,-2.2876,-2.2818,-2.3081,-2.4022,-2.4413,-2.5266,-2.6821,-2.7532,-2.828,-2.908,-2.9658,-3.0006,-3.0158,-3.0433,-3.0446,-3.0102,-2.9896,-2.9594,-2.9196,-2.9004,-2.9022,-2.9121,-2.9366,-2.9554,-2.9789,-3.033,-3.0477,-3.0316,-3.0164,-3.0479,-3.1203,-3.2012,-3.2233,-3.2146,-3.2097,-3.2033,-3.1842,-3.0724,-3.0038,-2.9559,-2.8722,-2.8406,-2.8327,-2.8013,-2.7881,-2.7868,-2.759,-2.739,-2.7201,-2.7134,-2.7053,-2.6985,-2.7053,-2.7188,-2.731,-2.7497,-2.7564,-2.759,-2.7681,-2.7921,-2.8145,-2.8406,-2.8457,-2.8638,-2.9162,-2.91,-2.9199,-2.9752,-2.9622,-2.9659,-3.0135,-3.0416,-3.0503,-3.03,-3.1182,-3.1597,-3.1253,-3.1843,-3.2122,-3.1973,-3.2027,-3.1881,-3.1566,-3.1591,-3.1633,-3.1649,0.0,0.0,0.0,0.0,0.0,0.0,0.0,0.0,0.0,0.0,0.0,0.0,0.0,0.0,0.0,0.0,0.0,0.0,0.0,0.0,0.0,0.0,0.0,-2.3219,-2.3029,-2.2872,-2.299,-2.3045,-2.3381,-2.4245,-2.4646,-2.5443,-2.6725,-2.7372,-2.8049,-2.8872,-2.9145,-2.95,-3.0017,-3.0003,-3.0129,-3.0323,-2.97,-2.9375,-2.9361,-2.8858,-2.8638,-2.8803,-2.8963,-2.9295,-2.9687,-3.0949,-3.124,-3.075,-3.0318,-3.089,-3.2176,-3.2958,-3.3283,-3.3192,-3.2401,-3.2486,-3.2695,-3.0965,-2.9591,-2.8522,-2.821,-2.8079,-2.8013,-2.7603,-2.7469,-2.7403,-2.7079,-2.6875,-2.6645,-2.6658,-2.6496,-2.6402,-2.6607,-2.6663,-2.6744,-2.6943,-2.6973,-2.6947,-2.6982,-2.7575,-2.8079,-2.8079,-2.8183,-2.8365,-2.8522,-2.9008,0.0,-2.9747,-2.9779,-2.9943,-3.0369,-3.0241,-3.0271,-3.0654,-3.1055,-3.1304,-3.1501,-3.1662,-3.1917,-3.2292,-3.2292,-3.243,-3.2685,-3.2741,-3.2829,-3.2862,0.0,0.0,0.0,0.0,0.0,0.0,0.0,0.0,0.0,0.0,0.0,0.0,0.0,0.0,0.0,0.0,0.0,0.0,0.0,0.0,0.0,-2.2371,-2.2264,-2.2635,-2.2714,-2.2804,-2.3045,-2.3177,-2.3545,-2.4089,-2.4626,-2.5515,-2.6889,-2.7553,-2.8422,-2.9454,-2.9907,-3.0206,-3.0516,-3.0797,-3.0672,-3.0177,-2.9711,-2.9249,-2.8824,-2.8266,-2.8118,-2.8327,-2.86,-2.9039,-2.9567,-3.0183,-3.062,-3.0887,-3.1086,-3.1323,-3.1764,-3.2894,-3.3152,-3.2975,-3.2849,-3.2083,-3.1075,-3.0541,-2.9376,-2.7987,-2.7736,-2.7603,-2.7469,-2.7214,-2.7066,-2.685,-2.6645,-2.644,-2.6302,-2.5955,-2.5881,-2.5832,-2.5918,-2.5869,-2.597,-2.6383,-2.6452,-2.644,-2.654,-2.6752,-2.6985,-2.7469,-2.7656,-2.7855,-2.8105,-2.8509,-2.8958,-2.9373,-2.9667,-3.0053,-3.0602,-3.0947,-3.1026,-3.0868,-3.1803,-3.2196,-3.1762,-3.2526,-3.2844,-3.2514,-3.2595,-3.2545,-3.2289,-3.2364,-3.2455,0.0,0.0,0.0,0.0,0.0,0.0,0.0,0.0,0.0,0.0,0.0,0.0,0.0,0.0,0.0,0.0,0.0,0.0,0.0,0.0,0.0,0.0,-2.1696,-2.14,-2.184,-2.221,-2.2452,-2.2391,-2.2666,-2.3154,-2.3759,-2.4406,-2.5394,-2.6703,-2.7534,-2.8307,-2.9365,-2.9741,-3.0139,-3.047,-3.0685,-3.0592,-3.0268,-2.9509,-2.8995,-2.8656,-2.7848,-2.7603,-2.7868,-2.8066,-2.865,-2.9576,-3.0549,-3.1098,-3.1309,-3.1778,-3.2055,-3.218,0.0,0.0,0.0,0.0,-3.1678,-3.0227,-3.0019,-2.897,-2.7656,-2.7403,-2.7201,-2.6998,-2.6794,-2.6589,-2.6302,-2.6082,-2.5873,-2.5652,-2.5417,-2.5322,-2.5252,-2.5348,-2.5358,-2.5463,-2.5725,-2.5877,-2.6005,-2.6017,-2.6119,0.0,-2.6658,-2.6998,-2.7323,-2.7723,-2.8052,-2.8444,-2.8944,-2.9373,-2.9808,-3.0312,-3.0851,-3.1172,-3.1069,-3.1946,0.0,0.0,0.0,-3.3035,-3.2898,-3.3035,0.0,0.0,0.0,-3.3046,-3.3125,-3.3125,0.0,0.0,-3.2826,-3.271,0.0,0.0,0.0,0.0,0.0,0.0,0.0,0.0,0.0,0.0,0.0,0.0,0.0,0.0,0.0,0.0,-2.0938,-2.043,-2.0721,-2.1334,-2.1733,-2.1408,-2.1826,-2.2482,-2.3385,-2.4075,-2.5063,-2.6318,-2.7244,-2.7971,-2.8633,-2.9106,0.0,0.0,0.0,-3.0075,-3.0216,-2.918,-2.8618,-2.8605,-2.748,-2.7134,-2.7469,-2.7469,-2.8212,-2.9564,-3.124,-3.1917,-3.1874,-3.2443,-3.2735,-3.2847,-3.2721,-3.2707,-3.2664,-3.2273,-3.1267,-2.995,-2.9487,0.0,0.0,-2.7011,-2.6794,-2.6577,-2.6358,-2.6094,-2.5758,-2.5535,-2.5241,-2.4933,-2.4874,-2.4779,-2.4718,-2.4837,-2.4885,-2.4933,-2.5135,-2.5349,-2.5467,-2.5477,-2.5618,-2.577,-2.584,-2.6314,-2.6782,-2.7323,-2.759,-2.7921,-2.8457,-2.8944,-2.9373,-2.9685,-3.0312,0.0,-3.1161,-3.164,-3.1981,-3.2135,-3.2382,-3.2765,-3.3187,-3.3346,-3.3555,-3.3797,-3.3848,-3.3949,-3.4201,-3.425,-3.43,-3.4366,-3.3123,-3.2908,0.0,0.0,0.0,0.0,0.0,0.0,0.0,0.0,0.0,0.0,0.0,0.0,0.0,0.0,0.0,-2.0827,-2.0207,-1.9608,-1.9171,-1.9809,-2.0571,-2.1298,-2.1923,-2.2563,-2.3152,-2.4023,-2.4914,-2.5935,-2.6704,-2.736,-2.7971,-2.8407,-2.8816,-2.904,-2.9341,-2.9509,-2.9365,-2.8425,-2.8097,-2.817,-2.7037,0.0,-2.7079,-2.7403,-2.8166,-2.9399,-3.0169,-3.1013,-3.192,-3.2365,-3.2579,-3.2721,-3.2579,-3.2563,-3.2503,-3.2096,-3.0994,-2.9684,-2.9416,-2.8143,-2.6633,-2.6564,-2.6302,-2.6037,-2.5816,-2.5606,0.0,-2.5016,-2.4743,-2.455,-2.4166,-2.407,-2.4059,-2.4116,-2.4139,-2.4223,-2.4585,-2.4657,-2.479,-2.4933,-2.5004,-2.5064,-2.5394,-2.5873,-2.6371,-2.6564,-2.7053,-2.7523,-2.7921,-2.8444,-2.8894,-2.9373,-2.9747,-3.019,-3.0687,-3.1043,-3.1321,-3.161,-3.216,-3.2547,-3.2711,-3.3027,-3.3203,-3.3256,-3.345,-3.3607,-3.3642,-3.3745,-3.3848,-3.3848,-3.4007,-3.4104,0.0,0.0,0.0,0.0,0.0,0.0,0.0,0.0,0.0,0.0,0.0,-2.5559,-2.4075,0.0,-2.0876,-1.9989,-1.9222,-1.8702,-1.8533,-1.8792,-1.9355,-2.0365,-2.1177,-2.1882,-2.2306,-2.327,-2.4221,-2.5084,-2.5946,-2.661,-2.708,-2.7672,-2.8087,-2.8303,-2.8633,-2.8803,-2.8816,-2.7973,-2.757,-2.7644,-2.6698,-2.6452,-2.6714,-2.704,-2.7858,-2.9078,-2.995,-3.107,-3.2253,-3.2593,-3.2804,-3.2974,-3.2678,-3.2478,-3.2331,-3.1977,-3.0876,-2.9544,-2.9035,-2.778,-2.6358,-2.6082,-2.5816,-2.5535,-2.5229,-2.4957,-2.4683,-2.4227,-2.402,-2.3824,-2.353,-2.3423,-2.3423,-2.3427,-2.3501,-2.3615,-2.3824,-2.4116,-2.4345,-2.449,-2.4646,-2.4861,-2.5052,-2.5394,-2.5804,-2.6346,-2.6633,-2.704,-2.759,-2.8052,-2.8444,-2.8881,-2.9387,-2.9898,-3.0312,-3.0807,-3.1161,-3.1495,-3.1766,-3.2048,-3.2398,-3.2633,-3.2796,-3.285,-3.3081,-3.3256,-3.3309,-3.3361,-3.345,-3.3503,-3.3745,-3.3949,0.0,0.0,0.0,0.0,0.0,0.0,0.0,-3.5975,-3.3391,-3.0452,-2.769,-2.5284,-2.3227,-2.1438,-2.0059,-1.9326,-1.839,-1.7857,-1.8218,-1.8172,-1.8357,-1.918,-2.0184,-2.0988,-2.1427,-2.2315,-2.328,-2.4145,-2.5084,-2.5852,-2.6279,-2.694,-2.7429,-2.7649,-2.7834,-2.8087,-2.8259,-2.744,-2.7061,-2.7124,-2.6426,-2.6188,-2.6358,-2.6688,-2.7485,-2.8657,-3.0196,-3.1527,-3.2527,-3.2876,-3.3171,-3.3325,-3.2946,-3.2593,-3.2263,-3.1904,-3.0983,-2.9768,-2.8715,-2.7574,-2.6357,-2.577,-2.5394,-2.5099,-2.4731,-2.4383,-2.397,-2.3519,-2.3298,-2.3075,-2.2852,-2.2777,-2.2799,-2.28,-2.2981,-2.3075,-2.3224,-2.3593,-2.397,-2.4116,-2.4418,-2.4646,-2.4718,-2.5004,-2.5444,-2.6094,-2.6289,-2.6633,-2.7255,-2.7643,-2.8039,-2.8522,-2.9085,-2.9651,-3.0068,-3.0642,-3.1117,-3.1321,-3.1422,-3.1667,-3.2079,-3.2231,-3.2398,-3.2492,-3.2648,-3.2843,-3.2935,-3.292,-3.3027,-3.3134,-3.3134,-3.3293,-0.6823,-1.9211,-3.0912,-3.5634,-3.7393,-3.8047,0.0,-3.6806,-3.4315,-3.1227,-2.8209,-2.5541,-2.3673,-2.1509,-1.9694,-1.894,-1.8218,-1.7677,-1.7419,-1.78,-1.8179,-1.8272,-1.9279,-2.0192,-2.0727,-2.1633,-2.252,-2.3183,-2.4145,-2.4925,-2.5611,-2.6279,-2.6704,-2.6962,-2.7196,-2.7429,-2.7603,-2.6656,-2.637,-2.6911,-2.6057,-2.5828,-2.627,-2.6739,-2.7374,-2.8231,-3.0807,-3.2189,-3.2733,-3.3072,-3.341,-3.3662,-3.3312,-3.3044,-3.272,-3.2055,-3.1376,-3.0606,-2.8993,-2.7623,-2.6537,-2.561,-2.5123,-2.4778,-2.4406,-2.397,-2.353,-2.2927,-2.2628,-2.2402,-2.2025,-2.1949,-2.1959,-2.2197,-2.2187,-2.2402,-2.2927,-2.3075,-2.3298,-2.3824,-2.397,-2.4116,-2.449,-2.5093,-2.5526,-2.5455,-2.5873,-2.6371,-2.6714,-2.7255,-2.7789,-2.83,-2.8675,-2.9198,-3.0036,-3.0462,-3.0702,-3.0881,-3.1263,-3.1537,-3.161,-3.1853,-3.2038,-3.2038,-3.2206,-3.2318,-3.2302,-3.2413,-3.2508,-3.2508,-3.2508,-3.2742,-0.2907,-1.4738,-2.2688,-2.1239,-2.6206,-3.0356,-2.6114,-2.8291,-3.0586,-2.8677,-2.6256,-2.3935,-2.2117,-2.0483,-1.9042,-1.8303,-1.7807,-1.752,-1.7527,-1.79,-1.8272,-1.8727,-1.9554,-2.0201,-2.0374,-2.1284,-2.2176,-2.2862,-2.3831,-2.4615,-2.5115,-2.579,-2.6218,-2.649,-2.6715,-2.6814,-2.6668,-2.6127,-2.5925,-2.6083,-2.5756,-2.5758,-2.6062,-2.6671,-2.7828,-2.934,-3.1475,-3.2695,-3.3086,-3.3382,-3.3591,-3.3716,-3.355,-3.3396,-3.2988,-3.2015,-3.115,-3.0275,-2.9119,-2.7777,-2.6372,-2.5575,-2.494,-2.4345,-2.3677,-2.3298,-2.2927,-2.2176,-2.1883,-2.1578,-2.1185,-2.1108,-2.1185,-2.1328,-2.1568,-2.1883,-2.2252,-2.2703,-2.3163,-2.3674,-2.4104,-2.4494,-2.4952,-2.5483,-2.5855,-2.5905,-2.6469,-2.712,-2.7477,-2.769,-2.8037,-2.8419,-2.8867,-2.9324,-2.9803,-3.0205,-3.0507,-3.0702,-3.0925,-3.1161,-3.1292,-3.1467,-3.1582,-3.1582,-3.1724,-3.1781,-3.1781,-3.1823,-3.1879,-3.1879,-3.1879,-3.1951,0.5427,-0.4702,-1.0824,-0.7874,-1.4505,-2.064,-1.6436,-2.0938,-2.5861,-2.5237,-2.3718,-2.2114,-2.0665,-1.9519,-1.8598,-1.7908,-1.7755,-1.7811,-1.8102,-1.845,-1.8996,-1.9712,-2.0447,-2.0988,-2.1168,-2.1633,-2.2176,-2.296,-2.3754,-2.4529,-2.5105,-2.5706,-2.6229,-2.6479,-2.6633,-2.6699,-2.6474,-2.6092,-2.5902,-2.589,-2.5791,-2.5886,-2.6037,-2.6769,-2.8206,-3.0185,-3.1788,-3.2774,-3.3326,-3.3605,-3.3716,-3.3796,-3.3758,-3.3648,-3.3241,-3.2132,-3.1123,-3.0181,-2.9338,-2.8002,-2.6469,-2.5589,-2.4761,-2.3897,-2.315,-2.2628,-2.2252,-2.1502,-2.1118,-2.0731,-2.0411,-2.0333,-2.0411,-2.0557,-2.0954,-2.1349,-2.1655,-2.2357,-2.308,-2.358,-2.4215,-2.4876,-2.5326,-2.583,-2.6233,-2.6375,-2.7184,-2.7852,-2.7988,-2.8119,-2.8245,-2.8511,-2.8881,-2.9261,-2.954,-2.9898,-3.0205,-3.0462,-3.0642,-3.0821,-3.0955,-3.1117,-3.1234,-3.1234,-3.1278,-3.1321,-3.1321,-3.1263,-3.1248,-3.1248,-3.1248,-3.1146,2.1187,1.3418,0.4666,0.0155,-0.4909,-0.99,-1.4312,-1.8136,-2.083,-2.1301,-2.1007,-2.044,-1.9683,-1.9048,-1.8559,-1.8252,-1.8391,-1.8745,-1.9052,-1.9812,-2.0512,-2.1114,-2.2022,-2.2824,-2.326,-2.2765,-2.2696,-2.3464,-2.4155,-2.4925,-2.5852,-2.6268,-2.6693,-2.7185,-2.7185,-2.7255,-2.7499,-2.6656,-2.6458,-2.6824,-2.6402,-2.622,-2.6414,-2.7152,-2.8478,-3.0171,-3.1266,-3.2344,-3.3326,-3.3744,-3.3922,-3.4016,-3.398,-3.387,-3.3564,-3.2464,-3.1602,-3.0712,-2.944,-2.8263,-2.7051,-2.5718,-2.4528,-2.3519,-2.2927,-2.2176,-2.1425,-2.1021,-2.0479,-1.9863,-1.9715,-1.9645,-1.9715,-1.9863,-2.0255,-2.0799,-2.1349,-2.2159,-2.3016,-2.3568,-2.4249,-2.4882,-2.5305,-2.6027,-2.6518,-2.6767,-2.7743,-2.8312,-2.7854,-2.8119,-2.8394,-2.8289,-2.8509,-2.8908,-2.954,-2.9602,-2.9727,-3.0111,-3.0401,-3.0628,-3.0628,-3.0955,-3.1087,-3.1087,-3.0895,-3.0821,-3.0821,-3.0687,-3.0642,-3.0642,-3.0642,-3.0447,2.2345,1.6697,1.1553,1.4084,0.7365,0.0474,0.1646,-0.5528,-1.3072,-1.5305,-1.6386,-1.6821,-1.6998,-1.7327,-1.7795,-1.8196,-1.9113,-1.9926,-2.0659,-2.1826,-2.2915,-2.3625,-2.4704,-2.5476,-2.5851,-2.4794,-2.4211,-2.4808,-2.5568,-2.6307,-2.6883,-2.7441,-2.7924,-2.8176,-2.8323,-2.8391,-2.8439,-2.8147,-2.8089,-2.8312,-2.8099,-2.8119,-2.8164,-2.8066,-2.8599,-2.9742,-3.1264,-3.2444,-3.3326,-3.3466,-3.3675,-3.3965,-3.3827,-3.3493,-3.3059,-3.2362,-3.1709,-3.093,-3.0036,-2.8561,-2.6899,-2.5803,-2.4416,-2.3075,-2.2176,-2.1415,-2.0799,-2.0235,-1.9696,-1.924,-1.9091,-1.9011,-1.9091,-1.939,-1.9863,-2.0332,-2.1164,-2.1985,-2.2824,-2.3601,-2.4481,-2.5183,-2.5687,-2.6203,-2.6712,-2.7025,-2.7968,-2.8626,-2.8512,-2.8682,-2.8612,-2.8381,-2.8504,-2.8716,-2.8908,-2.9212,-2.9526,-2.9727,-2.996,-3.0144,-3.028,-3.0355,-3.0416,-3.0416,-3.0355,-3.0355,-3.0355,-3.0294,-3.0205,-3.0068,-3.0068,-2.987,2.4498,2.1575,1.937,2.2651,1.6355,0.9578,1.0304,0.2427,-0.6064,-0.9734,-1.1934,-1.3583,-1.4607,-1.5969,-1.717,-1.8096,-1.9543,-2.0962,-2.1969,-2.3429,-2.4804,-2.5962,-2.7118,-2.8042,-2.8559,-2.7716,-2.6937,-2.6543,-2.7186,-2.782,-2.8366,-2.8983,-2.9526,-2.9897,-3.01,-3.0284,-3.0348,-3.0283,-3.0241,-3.0297,-3.0009,-2.9883,-2.9794,-2.884,-2.8677,-2.9323,-3.0586,-3.1721,-3.2789,-3.2945,-3.3269,-3.3746,-3.3466,-3.3059,-3.2581,-3.2146,-3.1603,-3.0921,-3.0177,-2.8682,-2.6935,-2.5827,-2.4347,-2.268,-2.1619,-2.0789,-2.0089,-1.9441,-1.8984,-1.8603,-1.8442,-1.8451,-1.8558,-1.9012,-1.9531,-2.0123,-2.0924,-2.1878,-2.2829,-2.34,-2.4398,-2.5193,-2.5589,-2.6052,-2.6467,-2.6857,-2.7661,-2.8361,-2.8622,-2.867,-2.8543,-2.8339,-2.8212,-2.8262,-2.8392,-2.8753,-2.9058,-2.9275,-2.9449,-2.9637,-2.9789,-2.9851,-2.9927,-2.9927,-2.9851,-2.9837,-2.9837,-2.9789,-2.9665,-2.9574,-2.9498,-2.931,2.7763,2.7876,2.7537,2.5507,2.156,1.6778,1.1425,0.556,-0.0105,-0.4614,-0.7969,-1.075,-1.2546,-1.481,-1.671,-1.8041,-1.9969,-2.1744,-2.3176,-2.4802,-2.6436,-2.8018,-2.9238,-3.0337,-3.1116,-3.1296,-3.0646,-2.8846,-2.9008,-2.9539,-3.0303,-3.0904,-3.1556,-3.2123,-3.251,-3.2807,-3.3168,-3.3044,-3.2975,-3.3015,-3.2193,-3.161,-3.1188,-2.959,-2.8895,-2.899,-2.9377,-3.0384,-3.1875,-3.218,-3.2654,-3.3168,-3.2961,-3.2508,-3.2014,-3.1769,-3.1233,-3.0456,-2.9858,-2.866,-2.7155,-2.5888,-2.426,-2.2522,-2.1248,-2.0245,-1.945,-1.8816,-1.8362,-1.7985,-1.7985,-1.8002,-1.8186,-1.8802,-1.9377,-2.0063,-2.0624,-2.1777,-2.2755,-2.3028,-2.405,-2.4861,-2.5115,-2.5464,-2.5968,-2.6362,-2.6764,-2.7405,-2.8187,-2.8189,-2.8079,-2.8087,-2.7712,-2.7616,-2.7908,-2.8157,-2.8417,-2.8739,-2.8958,-2.9085,-2.9247,-2.9463,-2.954,-2.954,-2.9387,-2.931,-2.931,-2.9149,-2.9099,-2.9099,-2.8881,-2.8688,2.4534,2.4188,2.3507,2.197,1.9329,1.5943,1.1654,0.7404,0.3149,-0.1054,-0.453,-0.7697,-1.0156,-1.2909,-1.5652,-1.802,-2.0451,-2.2801,-2.4852,-2.6921,-2.8696,-3.0047,-3.1515,-3.2546,-3.2894,-3.345,-3.3493,-3.257,-3.1776,-3.1583,-3.215,-3.2876,-3.3476,-3.3965,-3.4589,-3.5115,-3.5704,-3.635,-3.6885,-3.7163,-3.6865,-3.5171,-3.2342,-3.3301,-3.1992,-2.9076,-3.0557,-3.1618,-3.2258,-3.1565,-3.1516,-3.1789,-3.1547,-3.1241,-3.0917,-3.0581,-3.0075,-2.9381,-2.8597,-2.7707,-2.6697,-2.5632,-2.3812,-2.1868,-2.0816,-1.9611,-1.8496,-1.787,-1.7836,-1.7879,-1.7713,-1.7986,-1.8379,-1.8752,-1.9186,-1.9697,-2.0363,-2.1198,-2.1883,-2.2476,-2.3124,-2.3714,-2.4059,-2.4231,-2.4498,-2.4914,-2.5411,-2.6273,-2.7714,-2.8123,-2.8139,-2.7728,-2.7536,-2.7434,-2.7268,-2.7364,-2.7696,-2.8157,-2.8235,-2.843,-2.8766,-2.8844,-2.8894,-2.8994,-2.8931,-2.8994,-2.9149,-2.9099,-2.8972,-2.8716,-2.8651,-2.8444,2.1664,2.1176,2.0223,1.8962,1.7006,1.4631,1.142,0.8004,0.4429,0.093,-0.2582,-0.5896,-0.8841,-1.1995,-1.5094,-1.7782,-2.0716,-2.3375,-2.5538,-2.7819,-2.9795,-3.1335,-3.2895,-3.4048,-3.4701,-3.5094,-3.5377,-3.5362,-3.4082,-3.3438,-3.3754,-3.4522,-3.5215,-3.5824,-3.6566,-3.7476,-3.8443,-3.9309,-3.9911,-4.0122,-3.9669,-3.8609,-3.697,-3.5647,-3.3974,-3.2044,-3.1681,-3.1566,-3.1619,-3.1575,-3.1549,-3.1547,-3.1304,-3.1033,-3.0742,-3.0415,-3.0049,-2.9605,-2.909,-2.8576,-2.7739,-2.5343,-2.3279,-2.165,-2.1818,-2.1205,-2.0606,-2.1275,-2.1656,-2.1834,-2.1705,-2.189,-2.1809,-2.0858,-2.0871,-2.0802,-2.0008,-2.0305,-2.0882,-2.1471,-2.2991,-2.4247,-2.4567,-2.5818,-2.6837,-2.7156,-2.6467,-2.6289,-2.7406,-2.7359,-2.7329,-2.7272,-2.7275,-2.7167,-2.6829,-2.7138,-2.7365,-2.7523,-2.7643,-2.7789,-2.8131,-2.8131,-2.817,-2.8352,-2.8352,-2.843,-2.8651,-2.8651,-2.8522,-2.8406,-2.8197,-2.7987,1.932,1.8658,1.7807,1.6501,1.4949,1.3097,1.076,0.7793,0.481,0.1806,-0.1504,-0.4935,-0.816,-1.1697,-1.5011,-1.759,-2.0869,-2.3764,-2.5828,-2.8183,-3.0316,-3.2202,-3.37,-3.5032,-3.6229,-3.6319,-3.6618,-3.7302,-3.6013,-3.5238,-3.517,-3.5849,-3.6691,-3.7668,-3.8575,-3.9715,-4.113,-4.1845,-4.2285,-4.2387,-4.1651,-4.1851,-4.2711,-3.7804,-3.5913,-3.6338,-3.3322,-3.1694,-3.1255,-3.2202,-3.245,-3.2193,-3.1794,-3.1426,-3.1074,-3.084,-3.0641,-3.0472,-3.0381,-3.0183,-2.9375,-2.5765,-2.3594,-2.2601,-2.4072,-2.4197,-2.4198,-2.6214,-2.6901,-2.7044,-2.7024,-2.6996,-2.6411,-2.4265,-2.3814,-2.3264,-2.0988,-2.0809,-2.1296,-2.1699,-2.4066,-2.6075,-2.6321,-2.8647,-3.0541,-3.066,-2.8829,-2.7498,-2.7791,-2.6609,-2.6052,-2.6642,-2.6854,-2.6916,-2.6687,-2.708,-2.7265,-2.7114,-2.7172,-2.7268,-2.7403,-2.7403,-2.7523,-2.7723,-2.7723,-2.7855,-2.8013,-2.8013,-2.8013,-2.8013,-2.7669,-2.7456,1.7787,1.7131,1.6263,1.4887,1.355,1.194,0.9587,0.731,0.4718,0.1809,-0.1403,-0.4606,-0.7915,-1.1487,-1.4945,-1.7818,-2.1189,-2.4328,-2.6693,-2.9131,-3.1235,-3.2722,-3.4275,-3.5535,-3.6229,-3.7084,-3.7587,-3.7724,-3.7535,-3.7128,-3.6582,-3.6847,-3.7873,-3.9699,-4.0764,-4.1831,-4.2866,-4.3491,-4.4063,-4.4554,-4.4575,-4.4681,-4.4806,-4.2258,-4.0421,-3.9102,-3.7123,-3.5685,-3.4676,-3.3941,-3.378,-3.3821,-3.2465,-3.1785,-3.1524,-3.1173,-3.102,-3.0944,-3.0704,-3.0492,-3.0145,-2.9229,-2.8227,-2.7419,-2.7753,-2.7419,-2.6964,-2.7089,-2.7496,-2.7852,-2.7675,-2.796,-2.8162,-2.772,-2.7807,-2.7804,-2.7203,-2.7479,-2.7871,-2.7935,-2.8582,-2.9232,-2.9604,-3.0139,-3.0658,-3.1124,-3.0916,-3.0748,-3.0964,-2.7287,-2.4766,-2.506,-2.5927,-2.664,-2.6827,-2.6822,-2.703,-2.7449,-2.7049,-2.6863,-2.7079,-2.7079,-2.7214,-2.7403,-2.7403,-2.7469,-2.759,-2.759,-2.7536,-2.7403,-2.7335,-2.7053,1.6426,1.5674,1.4648,1.3518,1.2098,1.0501,0.8425,0.6114,0.3512,0.0703,-0.2403,-0.5594,-0.8765,-1.2267,-1.5556,-1.8679,-2.1862,-2.4852,-2.74,-2.9761,-3.1853,-3.331,-3.4841,-3.6084,-3.6886,-3.7734,-3.8369,-3.8788,-3.8773,-3.8341,-3.7507,-3.819,-3.9285,-4.0834,-4.1961,-4.2958,-4.3823,-4.4473,-4.5054,-4.5525,-4.562,-4.5591,-4.5423,-4.4445,-4.3305,-4.1935,-4.0187,-3.8839,-3.7785,-3.6537,-3.5831,-3.5385,-3.4157,-3.3473,-3.3096,-3.289,-3.288,-3.2985,-3.3245,-3.346,-3.3728,-3.4012,-3.1902,-2.9486,-3.0917,-3.1203,-3.1287,-3.2486,-3.3164,-3.3465,-3.3312,-3.3374,-3.3104,-3.1515,-2.9979,-2.8818,-2.8726,-2.8951,-2.9213,-2.9267,-3.0859,-3.228,-3.2586,-3.4104,-3.5381,-3.563,-3.4534,-3.3765,-3.4012,-3.0992,-2.844,-2.749,-2.8195,-2.8424,-2.7879,-2.8186,-2.8375,-2.8066,-2.7713,-2.7374,-2.6998,-2.693,-2.6863,-2.6837,-2.6837,-2.6837,-2.6905,-2.6905,-2.6905,-2.685,-2.6782,-2.6577,1.5123,1.4299,1.3265,1.2015,1.0606,0.8903,0.7048,0.4612,0.1905,-0.0802,-0.3899,-0.7081,-1.0236,-1.3447,-1.6642,-1.979,-2.2795,-2.5625,-2.8234,-3.0571,-3.2525,-3.4139,-3.5467,-3.6702,-3.7672,-3.8352,-3.9017,-3.9809,-3.9791,-3.9294,-3.8446,-3.9341,-4.0394,-4.1507,-4.2666,-4.3645,-4.4461,-4.5151,-4.5648,-4.5936,-4.5937,-4.5813,-4.5589,-4.5477,-4.4959,-4.4079,-4.2577,-4.141,-4.0481,-3.9228,-3.8106,-3.716,-3.6364,-3.5689,-3.5194,-3.513,-3.5209,-3.5528,-3.6091,-3.6761,-3.7467,-3.8163,-3.5373,-3.2147,-3.4389,-3.5206,-3.5836,-3.7935,-3.8657,-3.8854,-3.8745,-3.8603,-3.7903,-3.5517,-3.2992,-3.1132,-3.1132,-3.1242,-3.1338,-3.1464,-3.3798,-3.5811,-3.6045,-3.8418,-4.0264,-4.0284,-3.8553,-3.7296,-3.7459,-3.5924,-3.4096,-3.2242,-3.1784,-3.1145,-2.9989,-3.0374,-3.0298,-2.9333,-2.8807,-2.8219,-2.7491,-2.7037,-2.6714,-2.6496,-2.6483,-2.6534,-2.6464,-2.6589,-2.6577,-2.6464,-2.6338,-2.6206,1.3851,1.3086,1.2245,1.0477,0.8962,0.7382,0.5142,0.2809,0.0301,-0.2402,-0.5586,-0.8754,-1.1895,-1.5095,-1.8095,-2.0948,-2.4108,-2.7087,-2.9301,-3.165,-3.372,-3.5292,-3.6411,-3.7448,-3.8323,-3.9045,-3.9778,-4.0409,-4.0372,-4.0146,-3.9642,-4.0016,-4.0753,-4.192,-4.3116,-4.4112,-4.4927,-4.5503,-4.5872,-4.6072,-4.609,-4.5994,-4.5839,-4.5596,-4.5208,-4.4702,-4.3971,-4.324,-4.2448,-4.1421,-4.051,-3.9697,-3.8735,-3.8131,-3.7728,-3.7441,-3.7498,-3.7842,-3.8163,-3.871,-3.9411,-3.9982,-3.9194,-3.8133,-3.8911,-3.9354,-3.9633,-3.998,-4.0118,-4.0118,-4.0118,-4.0118,-4.0046,-3.9726,-3.9354,-3.905,-3.905,-3.9068,-3.9111,-3.9238,-3.9866,-4.051,-4.0824,-4.1542,-4.2113,-4.2199,-4.2229,-4.2193,-4.2028,-4.1468,-4.0538,-3.913,-3.6095,-3.4138,-3.4057,-3.3308,-3.2629,-3.2125,-3.0505,-2.9386,-2.904,-2.7826,-2.7027,-2.6645,-2.6814,-2.6863,-2.6707,-2.7127,-2.7115,-2.6707,-2.6635,-2.6294,1.2685,1.1713,1.0708,0.8734,0.716,0.5406,0.3233,0.0702,-0.1903,-0.4597,-0.7664,-1.0807,-1.3903,-1.6749,-1.9619,-2.2616,-2.5416,-2.8099,-3.0429,-3.2832,-3.4884,-3.6253,-3.742,-3.8413,-3.9247,-3.992,-4.0514,-4.1086,-4.1059,-4.0972,-4.0822,-4.0791,-4.127,-4.2379,-4.3467,-4.4417,-4.517,-4.5628,-4.5969,-4.6166,-4.6153,-4.6112,-4.6008,-4.5829,-4.5571,-4.5247,-4.4794,-4.4293,-4.3701,-4.2937,-4.2196,-4.1478,-4.0741,-4.0095,-3.9615,-3.953,-3.9513,-3.9665,-4.0112,-4.0573,-4.1121,-4.1616,-4.1629,-4.1372,-4.1021,-4.1136,-4.1438,-4.1376,-4.1394,-4.1349,-4.1288,-4.1216,-4.1206,-4.1206,-4.1143,-4.1143,-4.1143,-4.1188,-4.1323,-4.1481,-4.1824,-4.2195,-4.2587,-4.3031,-4.3391,-4.3608,-4.3874,-4.4064,-4.4101,-4.4075,-4.3852,-4.3262,-3.9976,-3.743,-3.6535,-3.619,-3.5654,-3.4698,-3.3357,-3.211,-3.1053,-2.9531,-2.8571,-2.8099,-2.746,-2.7073,-2.6968,-2.7113,-2.6869,-2.6324,-2.6324,-2.6045,1.1367,1.0379,0.9151,0.7098,0.5361,0.3442,0.1314,-0.1403,-0.4102,-0.6784,-0.9828,-1.294,-1.5987,-1.8577,-2.1221,-2.422,-2.6856,-2.9374,-3.1718,-3.4054,-3.6081,-3.7329,-3.8487,-3.9463,-4.0255,-4.0956,-4.1533,-4.1764,-4.1773,-4.1791,-4.1761,-4.1625,-4.1914,-4.2795,-4.3811,-4.4668,-4.5365,-4.5754,-4.6026,-4.6191,-4.6191,-4.6157,-4.6104,-4.5983,-4.5841,-4.5661,-4.5399,-4.5023,-4.4607,-4.4082,-4.3472,-4.285,-4.2279,-4.1747,-4.1253,-4.1261,-4.1243,-4.1297,-4.1747,-4.2141,-4.2553,-4.2977,-4.3343,-4.3472,-4.2796,-4.2647,-4.2681,-4.2587,-4.249,-4.2447,-4.235,-4.2248,-4.2185,-4.2185,-4.2185,-4.2185,-4.2185,-4.2284,-4.2404,-4.2582,-4.2867,-4.3212,-4.359,-4.3986,-4.4337,-4.46,-4.4843,-4.5086,-4.5285,-4.5507,-4.5645,-4.5607,-4.3283,-4.1123,-3.9605,-3.9296,-3.8639,-3.7359,-3.6133,-3.477,-3.3283,-3.1532,-3.0223,-2.9438,-2.8395,-2.7776,-2.7517,-2.746,-2.7107,-2.6346,-2.6346,-2.5901,0.9973,0.8877,0.7706,0.5606,0.3616,0.1645,-0.0606,-0.341,-0.6302,-0.9056,-1.2068,-1.5139,-1.8134,-2.0676,-2.3075,-2.5681,-2.848,-3.106,-3.3038,-3.5388,-3.7405,-3.884,-3.9677,-4.0478,-4.1174,-4.2206,-4.2647,-4.2385,-4.237,-4.2415,-4.2416,-4.2537,-4.2758,-4.3185,-4.4149,-4.4991,-4.5587,-4.5866,-4.6078,-4.6195,-4.6192,-4.6169,-4.6095,-4.6037,-4.5953,-4.5893,-4.5761,-4.5528,-4.5263,-4.4853,-4.4363,-4.3831,-4.3364,-4.3014,-4.2754,-4.2562,-4.26,-4.2792,-4.296,-4.3261,-4.3634,-4.3979,-4.4261,-4.4519,-4.4624,-4.4195,-4.3661,-4.3582,-4.3437,-4.3303,-4.3303,-4.325,-4.3214,-4.3214,-4.3214,-4.3214,-4.3214,-4.3214,-4.3232,-4.3371,-4.356,-4.3823,-4.4231,-4.4576,-4.4876,-4.5159,-4.5362,-4.558,-4.5765,-4.591,-4.6013,-4.6084,-4.5937,-4.522,-4.3672,-4.2558,-4.1475,-4.0394,-3.8636,-3.7041,-3.5696,-3.3544,-3.1754,-3.0337,-2.9719,-2.91,-2.8319,-2.8602,-2.8167,-2.6923,-2.6923,-2.6149,0.8747,0.7416,0.5913,0.3634,0.1549,-0.0616,-0.2924,-0.5705,-0.8576,-1.121,-1.4177,-1.7101,-1.9867,-2.2378,-2.4735,-2.6919,-2.965,-3.2145,-3.3976,-3.6321,-3.8413,-3.9677,-4.094,-4.1916,-4.2381,-4.3035,-4.3165,-4.2311,-4.2791,-4.2784,-4.2088,-4.2747,-4.3314,-4.3682,-4.4468,-4.517,-4.5728,-4.5961,-4.6093,-4.6128,-4.613,-4.6095,-4.6025,-4.6014,-4.596,-4.5873,-4.5273,-4.4892,-4.4624,-4.3771,-4.3194,-4.2894,-4.3062,-4.2971,-4.2793,-4.3266,-4.3487,-4.3586,-4.3812,-4.4039,-4.4318,-4.4612,-4.49,-4.514,-4.5222,-4.4858,-4.4409,-4.4261,-4.4106,-4.3962,-4.3855,-4.3795,-4.373,-4.373,-4.373,-4.373,-4.373,-4.373,-4.3763,-4.3855,-4.4017,-4.4188,-4.4477,-4.4745,-4.4995,-4.5222,-4.5493,-4.5696,-4.5852,-4.5941,-4.6036,-4.6099,-4.6066,-4.5718,-4.4903,-4.422,-4.3446,-4.2532,-4.1181,-3.9807,-3.8417,-3.5916,-3.3931,-3.2591,-3.0864,-2.9725,-2.9015,-2.8863,-2.8361,-2.7452,-2.6569,-2.5846,0.7535,0.5972,0.4252,0.195,-0.0307,-0.2645,-0.502,-0.7882,-1.0728,-1.3425,-1.6254,-1.9034,-2.1734,-2.4118,-2.6356,-2.8311,-3.1019,-3.3426,-3.4966,-3.7302,-3.9376,-4.0737,-4.19,-4.2759,-4.3146,-4.3422,-4.3272,-4.2424,-4.2869,-4.2851,-4.2187,-4.3014,-4.373,-4.4196,-4.4779,-4.5343,-4.5822,-4.601,-4.6085,-4.6053,-4.6036,-4.6014,-4.5956,-4.5949,-4.5774,-4.5421,-4.4921,-4.4446,0.0,-4.3246,-4.2829,-4.2659,-4.2872,-4.3007,-4.3171,-4.3606,-4.3971,-4.4308,-4.4484,-4.4695,-4.4896,-4.512,-4.5343,-4.5563,-4.5599,-4.5304,-4.4938,-4.477,-4.4584,-4.4412,-4.4288,-4.4218,-4.4128,-4.4097,-4.4097,-4.4097,-4.4097,-4.4097,-4.4128,-4.4199,-4.4296,-4.4411,-4.4632,-4.4821,-4.5042,-4.5262,-4.5493,-4.568,-4.5805,-4.5912,-4.5986,-4.6017,-4.6018,-4.5909,-4.565,-4.5289,-4.4765,-4.4047,-4.3159,-4.1996,-4.0543,-3.76,-3.5288,-3.3718,-3.1155,-2.9507,-2.8966,-2.8578,-2.8108,-2.7705,-2.6526,-2.591,0.0,0.4618,0.2815,0.0402,-0.2007,-0.4506,-0.7183,-1.0032,0.0,-1.5698,-1.8302,-2.0855,-2.367,-2.5804,-2.7832,-2.9793,-3.2475,-3.4771,-3.6014,-3.8243,-4.0324,-4.19,-4.2571,-4.3084,-4.3568,-4.337,-4.3078,-4.2757,-4.2697,-4.267,-4.2498,-4.3265,-4.399,-4.4605,-4.4997,-4.5452,-4.5903,-4.5974,-4.5996,-4.5996,-4.5925,-4.588,-4.5893,-4.5912,-4.5459,-4.4684,-4.4635,-4.412,-4.3307,-4.3111,-4.2955,-4.2815,-4.2696,-4.3062,-4.3645,-4.3586,-4.4113,-4.4843,-4.4924,-4.508,-4.5266,-4.5395,-4.5561,-4.5717,-4.5794,-4.5541,-4.5201,-4.5151,-4.4919,-4.4712,-4.4551,-4.4468,-4.4383,-4.4344,-4.4314,-4.4314,-4.4314,-4.4314,-4.4314,-4.4383,-4.4383,-4.4496,-4.4719,-4.4846,-4.4972,-4.5241,-4.54,-4.5526,-4.5665,-4.5791,-4.5874,-4.5893,-4.5883,-4.5901,-4.5979,-4.5818,-4.5527,-4.5073,-4.4574,-4.3611,-4.2164,-3.8699,-3.5943,-3.4037,-3.0695,-2.8697,-2.8228,-2.792,-2.7699,-2.7687,-2.6753,-2.6353,0.43,0.0,0.1207,-0.1206,-0.4007,-0.6694,0.0,0.0,0.0,0.0,0.0,0.0,-2.5157,-2.707,-2.9064,-3.1215,-3.3363,-3.5399,-3.7214,-3.9596,-4.1374,-4.2045,-4.268,-4.3174,-4.3595,-4.3451,-4.3277,-4.3048,-4.2887,-4.2774,-4.2588,-4.3353,-4.3741,-4.371,-4.4245,-4.499,-4.5961,-4.539,-4.5415,-4.5998,-4.5873,-4.58,-4.5746,-4.5847,-4.5434,-4.4587,-4.4025,-4.3285,-4.244,-4.1723,-4.1393,-4.1369,-4.1886,-4.2155,-4.2409,-4.3596,-4.4174,-4.4384,-4.4384,-4.4458,-4.4562,-4.4808,-4.4916,-4.5079,-4.575,-4.5747,-4.5473,-4.5362,-4.5175,-4.4986,-4.4821,-4.4685,-4.4551,-4.4524,-4.4487,-4.443,-4.4401,-4.4383,-4.4373,-4.4344,-4.4354,-4.444,-4.4551,-4.4712,-4.487,-4.5061,-4.522,-4.5381,-4.5475,-4.5584,-4.5668,-4.5677,-4.5673,-4.5713,-4.5757,-4.5813,-4.5781,-4.5609,-4.5153,-4.4408,-4.3342,-3.9794,-3.6917,-3.4943,-3.0656,-2.826,-2.7953,-2.7841,-2.7865,-2.7853,-2.7085,-2.6683,0.3719,0.1475,-0.0402,-0.3008,-0.5894,-0.8856,-1.1686,0.0,0.0,0.0,0.0,0.0,-2.6438,-2.8299,-3.0126,-3.2186,-3.4159,-3.6302,-3.8762,-4.0467,-4.1654,-4.2174,-4.2618,-4.3052,-4.3535,-4.3019,-4.2726,-4.2911,-4.2526,-4.2359,-4.249,-4.2917,-4.3226,-4.3359,-4.3188,-4.3645,-4.4805,-4.4405,-4.4577,-4.5316,-4.5172,-4.5298,-4.5651,-4.539,-4.4815,-4.4009,-4.3275,-4.2473,-4.1662,-4.1181,-4.0967,-4.0968,-4.1338,-4.1684,-4.2089,-4.2918,-4.3472,-4.3775,-4.374,-4.382,-4.3924,-4.4101,-4.4424,-4.4832,-4.5298,-4.5576,-4.5708,-4.5491,-4.5302,-4.5109,-4.4943,-4.477,-4.4632,-4.4605,-4.4542,-4.444,-4.4411,-4.4373,-4.4344,-4.4314,-4.4344,-4.4401,-4.4487,-4.4578,-4.4738,-4.487,-4.5019,-4.5135,-4.5218,-4.532,-4.538,-4.5362,-4.5362,-4.5381,-4.5417,-4.5486,-4.5599,-4.5733,-4.5453,-4.4707,-4.3386,-3.9992,-3.6391,-3.2664,-2.9753,-2.8135,-2.7728,-2.796,-2.7885,-2.7534,-2.7094,-2.6818,0.4543,0.0851,-0.1997,-0.4899,-0.777,-1.0807,-1.3897,0.0,0.0,0.0,0.0,0.0,-2.7706,-2.9419,-3.1209,-3.3037,-3.5206,-3.7529,-4.0078,-4.0919,-4.1522,-4.2174,-4.2445,-4.2821,-4.3449,-4.2442,-4.2017,-4.2584,-4.1908,-4.1744,-4.2297,-4.2303,-4.2556,-4.3033,-4.216,-4.2091,-4.299,-4.3193,-4.3694,-4.449,-4.4344,-4.4741,-4.553,-4.4816,-4.4078,-4.3341,-4.2626,-4.1847,-4.1101,-4.1094,-4.1101,-4.1084,-4.1046,-4.1427,-4.2032,-4.2108,-4.2558,-4.3114,-4.3073,-4.3032,-4.3063,-4.3246,-4.3906,-4.4634,-4.4754,-4.5315,-4.5848,-4.5594,-4.5362,-4.5159,-4.4967,-4.4796,-4.4659,-4.4605,-4.4468,-4.4354,-4.4354,-4.4285,-4.4226,-4.4226,-4.4255,-4.4285,-4.4383,-4.4458,-4.4551,-4.4693,-4.4796,-4.487,-4.4919,-4.501,-4.5057,-4.5057,-4.5014,-4.5019,-4.5007,-4.5007,-4.5128,-4.5441,-4.5422,-4.4428,-4.2257,-3.9304,-3.519,-2.9799,-2.8969,-2.8386,-2.793,-2.825,-2.8076,-2.75,-2.7278,-2.7195,0.7867,0.1715,-0.4409,-0.666,-0.9531,-1.2737,-1.5806,0.0,0.0,0.0,0.0,-2.7256,-2.8888,-3.0689,-3.2461,-3.4339,-3.7026,-3.9197,-4.0115,-4.0836,-4.139,-4.172,-4.2238,-4.2696,-4.2961,-4.2171,-4.1799,-4.2216,-4.1437,-4.122,-4.1924,-4.192,-4.1899,-4.1935,-4.1724,-4.1438,-4.1127,-4.1905,-4.3014,-4.4409,-4.428,-4.4633,-4.5419,-4.4713,-4.4007,-4.3283,-4.2597,-4.1835,-4.1105,-4.1094,-4.1092,-4.1092,-4.1094,-4.1169,-4.135,-4.2027,-4.2305,-4.2369,-4.2354,-4.1908,-4.1479,-4.2177,-4.3022,-4.3906,-4.4579,-4.5323,-4.5848,-4.5642,-4.5437,-4.5241,-4.5038,-4.4796,-4.4605,-4.4524,-4.4335,-4.414,-4.4067,-4.4023,-4.3929,-4.3902,-4.3961,-4.4067,-4.4067,-4.4266,-4.4411,-4.4468,-4.4578,-4.4659,-4.4659,-4.4738,-4.4745,-4.4745,-4.4681,-4.4599,-4.4599,-4.4546,-4.4474,-4.4417,-4.4748,-4.3083,-3.9011,-3.7033,-3.4321,-3.0588,-3.0167,-2.968,-2.9051,-2.9158,-2.9087,-2.8814,-2.8605,-2.851,0.8757,0.1299,-0.6111,-0.9494,-1.2135,-1.4741,-1.7757,0.0,0.0,0.0,-2.6603,-2.8164,-2.9459,-3.1252,-3.3308,-3.5818,-3.7945,-3.9436,-4.0146,-4.0578,-4.0987,-4.139,-4.1785,-4.2029,-4.1913,-4.1455,-4.113,-4.105,-4.068,-4.0737,-4.1311,-4.1006,-4.0988,-4.137,-4.0916,-4.0674,-4.0652,-4.1116,-4.1907,-4.3003,-4.3308,-4.3886,-4.4672,-4.397,-4.3548,-4.3287,-4.2103,-4.1414,-4.1092,-4.1097,-4.1078,-4.1051,-4.1085,-4.1101,-4.1132,-4.1518,-4.1602,-4.1544,-4.1507,-4.1256,-4.1003,-4.1373,-4.2101,-4.2995,-4.379,-4.4579,-4.5241,-4.5514,-4.5457,-4.5262,-4.5061,-4.4796,-4.4578,-4.4468,-4.4248,-4.4017,-4.386,-4.3795,-4.3716,-4.3634,-4.3716,-4.3795,-4.3828,-4.4005,-4.4147,-4.4188,-4.4248,-4.4277,-4.4277,-4.4277,-4.4277,-4.4277,-4.4132,-4.4035,-4.4023,-4.3992,-4.3992,-4.4023,-4.3025,-4.1434,-3.9234,-3.6726,-3.466,-3.3062,-3.2112,-3.1261,-3.0433,-3.0247,-2.989,-2.9377,-2.9158,-2.9065,0.9692,0.1119,-0.766,-1.2406,-1.4775,-1.6815,0.0,0.0,0.0,-2.6379,-2.8045,-2.9529,-3.0482,-3.2332,-3.445,-3.7067,-3.8399,-3.9307,-3.995,-4.0301,-4.0662,-4.1055,-4.139,-4.1385,-4.0928,-4.0659,-4.0307,-3.9902,-3.9871,-3.9985,-4.0306,-3.9933,-3.9986,-4.0601,-4.0075,-4.0015,-4.0513,-4.0622,-4.1057,-4.1767,-4.245,-4.3139,-4.3752,-4.3227,-4.3046,-4.3014,-4.1603,-4.1033,-4.1094,-4.1081,-4.1045,-4.1,-4.105,-4.109,-4.1103,-4.1101,-4.1067,-4.0979,-4.0932,-4.0888,-4.0849,-4.0839,-4.1421,-4.2283,-4.3085,-4.3879,-4.466,-4.5353,-4.5381,-4.5178,-4.5014,-4.4745,-4.4477,-4.4325,-4.4067,-4.3846,-4.3631,-4.3529,-4.3479,-4.3375,-4.3426,-4.3529,-4.3579,-4.3716,-4.3832,-4.3878,-4.386,-4.3828,-4.3828,-4.3781,-4.3716,-4.3682,-4.3597,-4.3477,-4.332,-4.3266,-4.3283,-4.3401,-4.1614,-4.0349,-3.9887,-3.7295,-3.5632,-3.526,-3.409,-3.3005,-3.2083,-3.1681,-3.1138,-3.0444,-3.0206,-3.0105,1.2155,0.1982,-0.9431,-1.4746,-1.7076,0.0,-2.1831,-2.4533,-2.6771,-2.8126,-3.0131,-3.1839,-3.2673,-3.4643,-3.6528,-3.7638,-3.8546,-3.9177,-3.9409,-4.0036,-4.0524,-4.0524,-4.0987,-4.1056,-4.0431,-4.0024,-3.9633,-3.9285,-3.903,-3.8907,-3.8857,-3.8853,-3.8974,-3.9168,-3.9335,-3.9716,-4.0315,-4.0502,-4.0967,-4.1728,-4.2393,-4.2733,-4.2814,-4.294,-4.2698,-4.2149,-4.1351,-4.1035,-4.1108,-4.1031,-4.0999,-4.1003,-4.1006,-4.1042,-4.1092,-4.1101,-4.1057,-4.0999,-4.0927,-4.0815,-4.0706,-4.0707,-4.126,-4.2082,-4.2873,-4.3638,-4.4381,-4.5132,-4.5175,-4.4991,-4.4846,-4.4522,-4.4181,-4.3974,-4.3734,-4.3479,-4.3268,-4.3178,-4.3086,-4.2975,-4.3087,-4.3232,-4.3232,-4.341,-4.3513,-4.3532,-4.3426,-4.3338,-4.3338,-4.3286,-4.3178,-4.3069,-4.3014,-4.2826,-4.2498,-4.2279,-4.2098,-4.2032,-4.1291,-4.044,-3.9566,-3.8338,-3.7124,-3.5958,-3.5582,-3.4942,-3.4074,-3.3747,-3.3369,-3.2954,-3.2579,-3.2462,0.8362,-0.1728,-1.3218,-1.8397,-2.1673,0.0,0.0,-2.6734,-2.8692,-3.0135,-3.1614,-3.3014,-3.4302,-3.5593,-3.6717,-3.771,-3.8352,-3.8885,-3.9352,-3.9625,-3.991,-4.0137,-4.0101,-3.9766,-3.9056,-3.8762,-3.837,-3.7828,-3.8072,-3.8186,-3.7972,-3.7947,-3.8105,-3.8413,-3.867,-3.9199,-4.0036,-4.0359,-4.072,-4.1089,-4.1671,-4.1973,-4.201,-4.2181,-4.2208,-4.2128,-4.1345,-4.1013,-4.1037,-4.102,-4.0996,-4.1007,-4.1052,-4.1081,-4.1094,-4.1058,-4.0998,-4.0913,-4.0776,-4.0636,-4.0506,-4.0454,-4.0636,-4.0989,-4.1816,-4.224,-4.2718,-4.3952,-4.4155,-4.4115,-4.4612,-4.4467,-4.4132,-4.386,-4.3563,-4.3321,-4.3087,-4.2956,-4.286,-4.2747,-4.2842,-4.2956,-4.2956,-4.305,-4.3123,-4.3123,-4.3014,-4.2939,-4.2939,-4.2732,-4.2577,-4.2519,-4.2274,-4.2002,-4.1813,-4.1534,-4.1356,-4.1202,-4.0683,-4.0296,-4.0083,-3.8774,-3.7801,-3.7307,-3.6734,-3.6072,-3.5449,-3.5139,-3.4861,-3.4581,-3.4192,-3.407,0.145,-0.8011,-1.861,-2.2762,0.0,0.0,-2.9051,-2.9736,-3.0655,-3.2056,-3.3317,-3.4468,-3.5659,-3.636,-3.7035,-3.7677,-3.8217,-3.8664,-3.9046,-3.9192,-3.9334,-3.9481,-3.9267,-3.8766,-3.7918,-3.7754,-3.7436,-3.6723,-3.6974,-3.7017,-3.6748,-3.6664,-3.6814,-3.7236,-3.7751,-3.8513,-3.9563,-4.0112,-4.048,-4.0694,-4.1086,-4.1274,-4.127,-4.1673,-4.1845,-4.176,-4.1258,-4.1027,-4.1042,-4.1013,-4.1003,-4.1018,-4.1067,-4.1099,-4.1092,-4.1023,-4.0948,-4.083,-4.061,-4.0442,-4.0281,-4.0196,-4.012,-4.0213,-4.1028,-4.1254,-4.1516,-4.2834,-4.3253,-4.3457,-4.3987,-4.4111,-4.403,-4.373,-4.3426,-4.316,-4.2806,-4.267,-4.2588,-4.2427,-4.249,-4.257,-4.257,-4.2631,-4.2691,-4.2691,-4.2613,-4.2516,-4.2476,-4.2175,-4.1966,-4.1778,-4.1463,-4.1163,-4.099,-4.0772,-4.0597,-4.0449,-4.0083,-3.9983,-4.022,-3.9142,-3.8443,-3.827,-3.7621,-3.7027,-3.6569,-3.6368,-3.6102,-3.5897,-3.5642,-3.5514,-0.8297,-1.6745,-2.5563,-2.7799,0.0,-3.2423,-3.4196,-3.3423,-3.2658,-3.3993,-3.5355,-3.647,-3.6628,-3.7148,-3.7596,-3.7596,-3.8127,-3.8501,-3.8501,-3.8782,-3.8909,-3.8452,-3.8532,-3.8228,-3.7096,-3.6975,-3.6736,-3.6241,-3.5723,-3.5347,-3.508,-3.5006,-3.5103,-3.5363,-3.6552,-3.7726,-3.8879,-3.9696,-4.0305,-4.0701,-4.0758,-4.0703,-4.053,-4.1538,-4.1597,-4.0905,-4.1033,-4.1099,-4.1091,-4.1026,-4.0987,-4.1003,-4.1078,-4.109,-4.1084,-4.1022,-4.0918,-4.0765,-4.0501,-4.0264,-4.0061,-3.9937,-3.9807,-3.9863,-4.0736,-4.0952,-4.1048,-4.1839,-4.2607,-4.3119,-4.2957,-4.3392,-4.3832,-4.3548,-4.3305,-4.2974,-4.2512,-4.2351,-4.2264,-4.2048,-4.2055,-4.2103,-4.2103,-4.2205,-4.2287,-4.2287,-4.2187,-4.2061,-4.1934,-4.1719,-4.1408,-4.0849,-4.0597,-4.0353,-4.0003,-3.9918,-3.9833,-3.961,-3.947,-3.954,-3.9901,-3.954,-3.9152,-3.8623,-3.8286,-3.7886,-3.7417,-3.7417,-3.7222,-3.6906,-3.6906,-3.6829,-1.5636,-2.2735,-2.9887,-3.2053,-3.3924,-3.5404,-3.6045,-3.5311,-3.4857,-3.6291,-3.6487,-3.6409,-3.6665,-3.6596,-3.6503,-3.6503,-3.6722,-3.7026,-3.717,-3.7241,-3.7311,-3.7301,-3.6956,-3.6594,-3.6276,-3.5896,-3.5474,-3.485,-3.4829,-3.4455,-3.3606,-3.3743,-3.4075,-3.4462,-3.5539,-3.6734,-3.818,-3.9121,-3.9934,-4.056,-4.0762,-4.0803,-4.0729,-4.1073,-4.113,-4.0971,-4.1054,-4.1099,-4.1091,-4.1081,-4.1076,-4.1062,-4.1087,-4.1092,-4.1081,-4.0968,-4.0811,-4.0617,-4.0351,-4.0062,-3.9788,-3.9623,-3.9427,-3.9328,-3.9597,-3.9645,-3.9805,-4.0644,-4.097,-4.1271,-4.2323,-4.2599,-4.2713,-4.3176,-4.3031,-4.2649,-4.2409,-4.2121,-4.1909,-4.1884,-4.178,-4.1736,-4.1736,-4.178,-4.1823,-4.1823,-4.1675,-4.1453,-4.1088,-4.0901,-4.0614,-4.0104,-3.9969,-3.9764,-3.9312,-3.9292,-3.9185,-3.8882,-3.8717,-3.8882,-3.9382,-3.9115,-3.8898,-3.8733,-3.8488,-3.8375,-3.8383,-3.8286,-3.8214,-3.8197,-3.8067,-3.7994,-2.4004,-2.9826,-3.5259,-3.6123,-3.7186,-3.797,-3.7668,-3.6679,-3.6129,-3.6979,-3.6628,-3.6222,-3.6399,-3.6201,-3.6,-3.6,-3.6086,-3.6229,-3.6315,-3.633,-3.6228,-3.6164,-3.5853,-3.5517,-3.5336,-3.4802,-3.4339,-3.3912,-3.3539,-3.3075,-3.2482,-3.2506,-3.2863,-3.3431,-3.4504,-3.5759,-3.7234,-3.8375,-3.9376,-4.02,-4.0565,-4.0798,-4.0875,-4.0925,-4.0972,-4.103,-4.1073,-4.1094,-4.1105,-4.1097,-4.1091,-4.1107,-4.1093,-4.1074,-4.1037,-4.0913,-4.0734,-4.0526,-4.0194,-3.9878,-3.9575,-3.9324,-3.9129,-3.896,-3.8902,-3.8855,-3.8966,-3.9471,-3.9761,-4.0202,-4.1438,-4.177,-4.2032,-4.2923,-4.2806,-4.2454,-4.2187,-4.1909,-4.1692,-4.1587,-4.1498,-4.1453,-4.1453,-4.1453,-4.1453,-4.1453,-4.1318,-4.1059,-4.06,-4.0387,-4.0037,-3.9451,-3.9345,-3.9131,-3.8623,-3.8567,-3.8399,-3.8059,-3.7943,-3.7969,-3.8278,-3.8439,-3.8583,-3.8655,-3.8544,-3.86,-3.8805,-3.8898,-3.8952,-3.9061,-3.9065,-3.9049,-3.2411,-3.7083,-4.0786,-3.9772,-3.9882,-3.9966,-3.8933,-3.7723,-3.6783,-3.6667,-3.6257,-3.6028,-3.5971,-3.5899,-3.5841,-3.5827,-3.5841,-3.5827,-3.5841,-3.5712,-3.544,-3.5049,-3.4977,-3.4831,-3.4404,-3.3767,-3.3376,-3.3318,-3.2159,-3.1496,-3.1576,-3.1368,-3.1522,-3.236,-3.3489,-3.4747,-3.6145,-3.7504,-3.8663,-3.9623,-4.0204,-4.0649,-4.0988,-4.0996,-4.1032,-4.1093,-4.1101,-4.1104,-4.1097,-4.1103,-4.1092,-4.1093,-4.1099,-4.1057,-4.0972,-4.0829,-4.0655,-4.0422,-4.0042,-3.9724,-3.9427,-3.9082,-3.8892,-3.8713,-3.8541,-3.846,-3.8446,-3.8382,-3.8915,-3.9683,-4.0362,-4.098,-4.1681,-4.2627,-4.2634,-4.2274,-4.1917,-4.1675,-4.1453,-4.1209,-4.1146,-4.1163,-4.1163,-4.1163,-4.1163,-4.1163,-4.0995,-4.068,-4.0305,-4.0003,-3.9573,-3.8969,-3.8805,-3.8455,-3.7886,-3.7828,-3.7653,-3.7178,-3.7134,-3.6982,-3.6829,-3.7621,-3.8132,-3.8335,-3.8472,-3.8678,-3.886,-3.9276,-3.947,-3.9523,-3.9902,-4.0003,-3.6096,-3.9531,-4.192,-4.1329,-4.0962,-4.0513,-3.954,-3.8423,-3.753,-3.7421,-3.6698,-3.6016,-3.5755,-3.5292,-3.4889,-3.4531,-3.4531,-3.4462,-3.4352,-3.4366,-3.4239,-3.4166,-3.4151,-3.4039,-3.3827,-3.3229,-3.2577,-3.1881,-3.1183,-3.0531,-3.0077,-3.0262,-3.0644,-3.1304,-3.2447,-3.3743,-3.5188,-3.6617,-3.7937,-3.9077,-3.9812,-4.0424,-4.0846,-4.0941,-4.1047,-4.1099,-4.1097,-4.1097,-4.1097,-4.1091,-4.1094,-4.1108,-4.1101,-4.107,-4.0988,-4.0787,-4.0582,-4.0372,-4.0021,-3.9651,-3.9298,-3.9017,-3.8725,-3.8446,-3.8234,-3.8153,-3.8068,-3.7966,-3.8384,-3.9084,-3.9835,-4.0406,-4.0985,-4.1771,-4.1941,-4.1849,-4.1569,-4.1272,-4.1012,-4.0823,-4.071,-4.0662,-4.0776,-4.0823,-4.0823,-4.0823,-4.0583,-4.0288,-3.9884,-3.9451,-3.8952,-3.8343,-3.8157,-3.7886,-3.7417,-3.7222,-3.7042,-3.6831,-3.6461,-3.6274,-3.6383,-3.6997,-3.7535,-3.777,-3.8157,-3.8606,-3.9098,-3.9556,-3.9969,-4.0271,-4.0514,-4.0767,-3.7225,-4.0002,-4.1997,-4.2136,-4.1937,-4.1374,-4.034,-3.9304,-3.8383,-3.7826,-3.6721,-3.5821,-3.557,-3.5118,-3.4631,-3.4278,-3.4142,-3.3937,-3.3675,-3.3521,-3.3437,-3.3368,-3.3297,-3.3185,-3.2751,-3.2164,-3.1414,-3.0721,-2.9965,-2.9481,-2.9113,-2.9463,-2.987,-3.0389,-3.1504,-3.2792,-3.4202,-3.5642,-3.7077,-3.8422,-3.932,-4.014,-4.0859,-4.0998,-4.1062,-4.1101,-4.1094,-4.1101,-4.1103,-4.1093,-4.1092,-4.1101,-4.109,-4.1033,-4.0924,-4.0723,-4.0521,-4.0302,-3.9939,-3.9575,-3.9192,-3.8844,-3.8478,-3.8153,-3.7862,-3.7739,-3.7631,-3.7394,-3.7792,-3.847,-3.9247,-3.9831,-4.0447,-4.1119,-4.1373,-4.1453,-4.1255,-4.0995,-4.0745,-4.0648,-4.0534,-4.0534,-4.0697,-4.0697,-4.0648,-4.0551,-4.0305,-3.9935,-3.9451,-3.8952,-3.8455,-3.796,-3.7711,-3.7358,-3.6892,-3.6754,-3.6523,-3.6178,-3.5925,-3.5733,-3.5559,-3.6022,-3.6554,-3.7163,-3.7679,-3.827,-3.8882,-3.9556,-4.0138,-4.0549,-4.1036,-4.1455,-3.7257,-3.9712,-4.1768,-4.265,-4.2674,-4.2246,-4.1236,-4.0229,-3.9249,-3.8246,-3.6935,-3.5816,-3.5554,-3.5096,-3.4698,-3.4414,-3.4088,-3.3744,-3.3312,-3.3072,-3.2917,-3.2704,-3.255,-3.2288,-3.1708,-3.0911,-3.0174,-2.9642,-2.8861,-2.8392,-2.8392,-2.8716,-2.9149,-2.9574,-3.0615,-3.187,-3.3264,-3.4738,-3.6214,-3.779,-3.8969,-3.9983,-4.0869,-4.102,-4.1091,-4.109,-4.1091,-4.1101,-4.1107,-4.1093,-4.1092,-4.1099,-4.1094,-4.1039,-4.0885,-4.0692,-4.0492,-4.0266,-3.9854,-3.9502,-3.9129,-3.8646,-3.8285,-3.7933,-3.7485,-3.7317,-3.7161,-3.6951,-3.7422,-3.8104,-3.8764,-3.941,-4.006,-4.0569,-4.0819,-4.0977,-4.0884,-4.0728,-4.0551,-4.0436,-4.0436,-4.0534,-4.0648,-4.0697,-4.06,-4.0355,-4.0037,-3.9625,-3.9023,-3.8511,-3.8017,-3.7642,-3.7329,-3.6952,-3.6554,-3.6429,-3.6178,-3.5554,-3.5424,-3.5213,-3.4802,-3.5016,-3.5524,-3.6352,-3.7087,-3.7812,-3.8528,-3.9398,-4.0121,-4.0659,-4.1383,-4.2015,-3.7385,-3.9921,-4.2045,-4.3267,-4.302,-4.2433,-4.2103,-4.1163,-4.0068,-3.9226,-3.7822,-3.6538,-3.5816,-3.5394,-3.4949,-3.4264,-3.402,-3.3675,-3.3143,-3.2988,-3.2846,-3.2489,-3.205,-3.1566,-3.1118,-2.9981,-2.9106,-2.8904,-2.8132,-2.7669,-2.7669,-2.7973,-2.8314,-2.878,-2.9856,-3.1086,-3.2377,-3.3941,-3.5557,-3.722,-3.9102,-4.0255,-4.0726,-4.0924,-4.1046,-4.11,-4.1108,-4.1099,-4.1101,-4.111,-4.1094,-4.1108,-4.1104,-4.1042,-4.0964,-4.0746,-4.0554,-4.0319,-3.9937,-3.9526,-3.9129,-3.8646,-3.8219,-3.7828,-3.7447,-3.7126,-3.6933,-3.7222,-3.7747,-3.8322,-3.8918,-3.9589,-4.0102,-4.0187,-4.0121,-4.0087,-4.0171,-4.0087,-4.0003,-4.0003,-4.0238,-4.0534,-4.0534,-4.0648,-4.06,-4.0355,-3.9816,-3.9276,-3.8733,-3.8132,-3.7583,-3.7121,-3.6923,-3.6723,-3.6492,-3.6226,-3.5958,-3.5703,-3.5264,-3.4802,-3.4481,-3.4698,-3.4883,-3.5118,-3.6337,-3.7385,-3.8157,-3.9135,-4.002,-4.0802,-4.1587,-4.2324,-3.7831,-3.9954,-4.146,-4.2356,-4.243,-4.2283,-4.2268,-4.1403,-4.0485,-4.0,-3.8999,-3.7822,-3.6585,-3.5864,-3.5249,-3.4668,-3.4128,-3.3646,-3.3058,-3.2717,-3.2444,-3.2155,-3.1397,-3.0757,-3.021,-2.9148,-2.8405,-2.7954,-2.7411,-2.7134,-2.7201,-2.7377,-2.7709,-2.8249,-2.9233,-3.0392,-3.184,-3.3422,-3.5428,-3.7856,-3.9298,-4.0224,-4.0655,-4.0888,-4.1032,-4.1106,-4.1109,-4.1097,-4.1097,-4.1091,-4.1103,-4.1092,-4.1108,-4.1055,-4.0981,-4.0771,-4.0577,-4.0336,-3.9937,-3.9483,-3.9017,-3.8585,-3.8068,-3.7522,-3.7147,-3.705,-3.7136,-3.7045,-3.7708,-3.8531,-3.8639,-3.9126,-3.9592,-3.9487,-3.9451,-3.9398,-3.9398,-3.9609,-3.9781,-3.9901,-4.0238,-4.0485,-4.0387,-4.0453,-4.0355,-4.0037,-3.9451,-3.8843,-3.8286,-3.7727,-3.727,-3.6862,-3.6677,-3.6538,-3.6352,-3.6163,-3.5846,-3.5444,-3.5052,-3.4735,-3.4414,-3.4563,-3.4868,-3.5154,-3.6102,-3.7071,-3.7953,-3.9049,-4.0086,-4.1001,-4.1895,-4.2755,-3.7682,-3.9408,-4.0605,-4.1271,-4.1687,-4.1979,-4.2156,-4.1572,-4.0935,-4.0635,-3.9999,-3.9139,-3.779,-3.6631,-3.5752,-3.5118,-3.4385,-3.3701,-3.3058,-3.2588,-3.2042,-3.1589,-3.0665,-2.9855,-2.9136,-2.8283,-2.7571,-2.7092,-2.6714,-2.6589,-2.6739,-2.6782,-2.7175,-2.7776,-2.8661,-2.9922,-3.1459,-3.3457,-3.5734,-3.8285,-3.9293,-4.0061,-4.0563,-4.0829,-4.0996,-4.1052,-4.11,-4.1086,-4.1067,-4.1076,-4.1074,-4.1094,-4.1093,-4.1062,-4.0989,-4.0809,-4.0604,-4.0367,-3.9962,-3.947,-3.8952,-3.8554,-3.7966,-3.7356,-3.6974,-3.713,-3.7359,-3.7051,-3.7747,-3.8572,-3.85,-3.8791,-3.9044,-3.8914,-3.8914,-3.8914,-3.886,-3.9239,-3.9625,-3.9849,-4.0138,-4.0387,-4.0288,-4.0288,-4.0138,-3.9781,-3.9115,-3.8455,-3.7902,-3.7358,-3.6952,-3.6662,-3.6554,-3.6414,-3.6274,-3.6163,-3.5846,-3.5329,-3.5133,-3.4883,-3.4481,-3.4683,-3.5067,-3.5529,-3.6259,-3.71,-3.7994,-3.9193,-4.0251,-4.1286,-4.2311,-4.3175,-3.6329,-3.7973,-3.9663,-4.0469,-4.1111,-4.1582,-4.1794,-4.182,-4.1632,-4.0846,-4.0548,-4.015,-3.9354,-3.7774,-3.6352,-3.535,-3.4735,-3.4059,-3.3129,-3.2632,-3.1911,-3.0626,-2.9784,-2.9021,-2.8087,-2.7081,-2.6452,-2.6427,-2.6094,-2.598,-2.598,-2.6233,-2.6688,-2.7229,-2.8274,-2.9552,-3.1114,-3.436,-3.6636,-3.7954,-3.8999,-3.983,-4.0408,-4.0699,-4.084,-4.0921,-4.1033,-4.107,-4.1013,-4.1013,-4.1031,-4.11,-4.1099,-4.1054,-4.0991,-4.0921,-4.0729,-4.0434,-4.0043,-3.9552,-3.9017,-3.8535,-3.8018,-3.7503,-3.7126,-3.7172,-3.7463,-3.7678,-3.8035,-3.8434,-3.883,-3.8882,-3.8805,-3.8639,-3.8639,-3.8694,-3.8914,-3.9148,-3.9379,-3.9677,-3.9918,-4.0188,-4.0305,-4.0188,-4.0037,-3.9729,-3.8898,-3.8173,-3.7743,-3.715,-3.6662,-3.6554,-3.6492,-3.6492,-3.6492,-3.6274,-3.6006,-3.5688,-3.5539,-3.5228,-3.4698,-3.503,-3.5379,-3.5849,-3.6917,-3.7799,-3.8446,-3.9562,-4.0681,-4.181,-4.2719,-4.3564,-3.5894,-3.7266,-3.8615,-3.9635,-4.0411,-4.1034,-4.1498,-4.1283,-4.0958,-4.0857,-4.0387,-3.9721,-3.8888,-3.7986,-3.7115,-3.629,-3.535,-3.4423,-3.3659,-3.2485,-3.1405,-3.0703,-2.9274,-2.8285,-2.794,-2.7056,-2.6383,-2.6245,-2.605,-2.598,-2.6062,-2.5841,-2.6034,-2.6804,-2.7444,-2.9175,-3.2102,-3.4751,-3.671,-3.7962,-3.9021,-3.9785,-4.0348,-4.0597,-4.0798,-4.0898,-4.0952,-4.0968,-4.0941,-4.0941,-4.0957,-4.0974,-4.1022,-4.1027,-4.0991,-4.0928,-4.0752,-4.0516,-4.0101,-3.9641,-3.9154,-3.8628,-3.805,-3.7539,-3.7554,-3.7801,-3.8111,-3.8362,-3.8757,-3.903,-3.8903,-3.875,-3.8616,-3.8391,-3.8262,-3.8189,-3.8399,-3.8788,-3.9148,-3.9432,-3.9781,-4.007,-3.9935,-3.9884,-3.9661,-3.9185,-3.8511,-3.7812,-3.7282,-3.6831,-3.6476,-3.6226,-3.6289,-3.6274,-3.6274,-3.6274,-3.6085,-3.5894,-3.5718,-3.5509,-3.5314,-3.5638,-3.618,-3.6995,-3.7939,-3.8701,-3.9093,-4.0229,-4.1358,-4.2411,-4.3259,-4.4005,-3.5218,-3.6394,-3.7565,-3.8714,-3.9623,-4.0403,-4.1053,-4.1014,-4.084,-4.0875,-4.0551,-4.0005,-3.9204,-3.864,-3.7925,-3.6911,-3.6029,-3.5085,-3.4037,-3.2635,-3.1432,-3.0481,-2.9122,-2.8114,-2.7726,-2.7079,-2.6589,-2.6396,-2.6176,-2.6032,-2.6009,-2.5702,-2.5959,-2.689,-2.7925,-2.9849,-3.2724,-3.4996,-3.6728,-3.7983,-3.8979,-3.9716,-4.0266,-4.0582,-4.0761,-4.0877,-4.0878,-4.0898,-4.0898,-4.0898,-4.0897,-4.0921,-4.0967,-4.1013,-4.1015,-4.0935,-4.0781,-4.059,-4.0175,-3.9705,-3.9208,-3.8688,-3.8135,-3.7684,-3.799,-3.8285,-3.8614,-3.888,-3.9312,-3.9537,-3.9094,-3.8766,-3.8448,-3.8164,-3.7934,-3.7876,-3.796,-3.8415,-3.8876,-3.9094,-3.952,-3.9781,-3.9556,-3.9556,-3.9362,-3.8805,-3.823,-3.7594,-3.6966,-3.6631,-3.6289,-3.6037,-3.6085,-3.6148,-3.6211,-3.6196,-3.6211,-3.6163,-3.6022,-3.6006,-3.6117,-3.6477,-3.716,-3.8141,-3.9096,-3.9915,-4.0474,-4.1271,-4.2145,-4.312,-4.3855,-4.454,0.0,0.0,0.0,-3.7684,-3.8708,-3.9642,-4.0407,-4.1034,-4.1339,-4.0959,-4.1092,-4.107,-4.0463,-3.9751,-3.8694,-3.7143,-3.6738,-3.6061,-3.4364,-3.3245,-3.1942,-3.0014,-2.9281,-2.8518,-2.7455,-2.7175,-2.6973,-2.6782,-2.6552,-2.6176,-2.5674,-2.5917,-2.6562,-2.7577,-2.9707,-3.1498,-3.287,-3.5023,-3.671,-3.7935,-3.8841,-3.9622,-4.0214,-4.0549,-4.0732,-4.0807,-4.0877,-4.0907,-4.0907,-4.0907,-4.0898,-4.0913,-4.0974,-4.1042,-4.1074,-4.0957,-4.0824,-4.0636,-4.0229,-3.9754,-3.9223,-3.8778,-3.8285,-3.7972,-3.8315,-3.8655,-3.8955,-3.9277,-3.9595,-3.9849,-3.9432,-3.8838,-3.8335,-3.7992,-3.7817,-3.77,-3.77,-3.8049,-3.8448,-3.875,-3.904,-3.9255,-3.9206,-3.9239,-3.9094,-3.8639,-3.8091,-3.7508,-3.6966,-3.6492,-3.6148,-3.5973,-3.5973,-3.6037,-3.6148,-3.6196,-3.6274,-3.6492,-3.6492,-3.6646,-3.6951,-3.7413,-3.8141,-3.9237,-4.0275,-4.1445,-4.263,-4.263,-4.3063,-4.3935,-4.4569,-4.4941,-3.4154,0.0,0.0,0.0,0.0,0.0,-3.958,-3.99,-4.0101,-4.0517,-4.0511,-4.0291,-3.983,-3.9768,-3.9496,-3.8616,-3.7454,-3.6254,-3.5112,-3.3796,-3.2511,-3.1377,-3.033,-2.9568,-2.8967,-2.862,-2.8298,-2.8051,-2.7405,-2.6972,-2.6814,-2.6614,-2.679,-2.7375,-2.9159,-3.1007,-3.2824,-3.4823,-3.6628,-3.825,-3.9016,-3.969,-4.0288,-4.0569,-4.0764,-4.0877,-4.0888,-4.0907,-4.0906,-4.0849,-4.0849,-4.0906,-4.0974,-4.1012,-4.1014,-4.0922,-4.0824,-4.0655,-4.03,-3.9857,-3.9364,-3.8847,-3.8378,-3.8202,-3.907,-3.9241,-3.9303,-4.0251,-4.0426,-4.0188,-3.954,-3.8952,-3.8472,-3.8116,-3.786,-3.7642,-3.7373,-3.7626,-3.7976,-3.823,-3.8623,-3.8914,-3.8788,-3.8788,-3.8639,-3.8173,-3.7519,-3.6921,-3.6321,-3.591,-3.5539,-3.5264,-3.5329,-3.5474,-3.5683,-3.6022,-3.6336,-3.66,-3.6952,-3.7401,-3.7879,-3.8398,-3.9182,-4.034,-4.1305,-4.239,-4.354,-4.3532,-4.3901,-4.4567,-4.5229,-4.0912,-3.4023,-3.4675,-3.5442,-3.6157,0.0,0.0,-3.8641,-3.8899,-3.9021,-3.9442,-3.9673,-3.9721,-3.943,-3.9747,-3.9945,-3.9463,-3.8499,-3.7378,-3.6279,-3.5082,-3.3932,-3.2913,-3.1977,-3.1276,-3.0777,-3.0499,-3.0172,-2.984,-2.8983,-2.8254,-2.7689,-2.7379,-2.7469,-2.7969,-2.958,-3.1368,-3.327,-3.5081,-3.6841,-3.8554,-3.9186,-3.9757,-4.0304,-4.0579,-4.0761,-4.0898,-4.0935,-4.0949,-4.0945,-4.0894,-4.0904,-4.0941,-4.1019,-4.1046,-4.1035,-4.0944,-4.0799,-4.0617,-4.0266,-3.9857,-3.9433,-3.898,-3.8566,-3.8458,-3.9603,-3.9761,-3.9799,-4.0963,-4.0943,-4.05,-3.9969,-3.9454,-3.899,-3.8511,-3.8246,-3.7976,-3.7508,-3.7567,-3.7743,-3.777,-3.8173,-3.8455,-3.8303,-3.8359,-3.823,-3.777,-3.7207,-3.6662,-3.61,-3.5653,-3.5213,-3.4883,-3.4949,-3.5082,-3.5344,-3.5767,-3.6196,-3.6754,-3.7207,-3.7895,-3.8723,-3.9373,-4.0275,-4.1495,-4.2392,-4.3434,-4.4567,-4.4391,-4.4649,-4.522,-4.5532,-3.8955,-3.4094,-3.4271,-3.4641,-3.5677,-3.6117,0.0,-3.759,-3.7927,-3.8043,-3.8146,-3.873,-3.9207,-3.9082,-3.9539,-3.9897,-3.9743,-3.9451,-3.8828,-3.7631,-3.6759,-3.5827,-3.469,-3.4044,-3.347,-3.2953,-3.2708,-3.2373,-3.1874,-3.0837,-2.9697,-2.849,-2.8311,-2.8529,-2.9096,-3.0635,-3.2324,-3.414,-3.5634,-3.7203,-3.8857,-3.9408,-3.9884,-4.0334,-4.0596,-4.0779,-4.0902,-4.0979,-4.1007,-4.1006,-4.1003,-4.1011,-4.1026,-4.1085,-4.1107,-4.1066,-4.0953,-4.0772,-4.0549,-4.0212,-3.9854,-3.9452,-3.911,-3.8785,-3.8739,-3.9967,-4.0237,-4.0277,-4.1439,-4.1338,-4.0849,-4.0594,-4.0203,-3.9714,-3.9044,-3.8788,-3.8472,-3.786,-3.7759,-3.7685,-3.7476,-3.777,-3.8001,-3.7918,-3.796,-3.787,-3.7401,-3.7027,-3.6554,-3.5958,-3.5444,-3.4986,-3.4631,-3.4563,-3.4683,-3.5037,-3.5415,-3.5991,-3.6784,-3.7354,-3.8206,-3.942,-4.0295,-4.1349,-4.2595,-4.3513,-4.4476,-4.5476,-4.5152,-4.5241,-4.5724,-4.4079,-3.6301,-3.5006,-3.4643,-3.433,-3.4771,-3.5019,0.0,-3.6476,-3.6824,-3.7104,-3.7802,-3.8121,-3.826,-3.8233,-3.83,-3.8531,-3.914,-3.9083,-3.885,-3.8469,-3.7995,-3.7421,-3.6694,-3.6345,-3.5987,-3.5393,-3.5095,-3.4539,-3.3539,-3.1843,-3.0518,-2.9843,-2.9884,-3.0129,-3.0576,-3.1405,-3.2879,-3.4938,-3.5823,-3.7247,-3.9212,-3.969,-4.0101,-4.0462,-4.068,-4.0858,-4.0981,-4.105,-4.1076,-4.1078,-4.1088,-4.1081,-4.1085,-4.108,-4.1073,-4.1019,-4.0928,-4.0749,-4.0477,-4.0194,-3.9854,-3.9433,-3.9165,-3.8892,-3.892,-4.0281,-4.0545,-4.0635,-4.177,-4.1906,-4.1604,-4.1213,-4.0814,-4.0285,-3.9732,-3.9242,-3.8772,-3.8173,-3.8001,-3.796,-3.7685,-3.77,-3.7759,-3.7759,-3.761,-3.7401,-3.7027,-3.6507,-3.5894,-3.5184,-3.4802,-3.4346,-3.3882,-3.3813,-3.3868,-3.4045,-3.4691,-3.54,-3.6258,-3.7472,-3.8674,-3.9918,-4.1049,-4.224,-4.3435,-4.447,-4.5117,-4.5338,-4.5479,-4.5526,-4.5215,-3.4645,-2.2592,-3.6022,-3.5504,-3.4992,-3.5128,-3.4945,0.0,0.0,-3.5567,-3.5796,-3.6262,-3.6719,-3.7051,-3.7042,-3.739,-3.7792,-3.8237,-3.8245,-3.8186,-3.8161,-3.8614,-3.8803,-3.8431,-3.8216,-3.7944,-3.7552,-3.729,-3.6432,-3.4748,-3.3245,-3.2104,-3.1426,-3.1479,-3.169,-3.2036,-3.2905,-3.4122,-3.5739,-3.6713,-3.7984,-3.9543,-3.9944,-4.0298,-4.0549,-4.0759,-4.091,-4.1056,-4.109,-4.1091,-4.1103,-4.1092,-4.1093,-4.1093,-4.1093,-4.1058,-4.0978,-4.0848,-4.0655,-4.0419,-4.0158,-3.981,-3.9477,-3.9237,-3.9007,-3.9135,-4.0547,-4.1389,-4.1941,-4.2513,-4.2476,-4.2257,-4.1931,-4.1543,-4.1094,-4.0528,-4.0036,-3.9525,-3.8903,-3.8701,-3.8551,-3.8189,-3.8075,-3.7918,-3.7759,-3.7551,-3.7282,-3.6876,-3.6336,-3.5703,-3.4839,-3.4288,-3.3756,-3.3213,-3.2945,-3.2931,-3.3199,-3.3713,-3.4514,-3.5578,-3.6977,-3.8449,-4.0014,-4.1487,-4.2928,-4.4369,-4.4832,-4.1772,-3.5128,-3.4757,-3.4797,-3.4908,-2.1599,-0.8062,-3.7069,-3.6422,-3.5717,-3.5717,-3.5173,-3.4604,0.0,0.0,0.0,-3.464,-3.521,-3.5684,-3.5666,-3.6235,-3.6785,-3.6988,-3.7034,-3.713,-3.7376,-3.8463,-3.9279,-3.9459,-3.9323,-3.9232,-3.9227,-3.8784,-3.7656,-3.5676,-3.4576,-3.3671,-3.2984,-3.3011,-3.3213,-3.3607,-3.4475,-3.5536,-3.6756,-3.7802,-3.8844,-3.9914,-4.0194,-4.0427,-4.0642,-4.084,-4.0993,-4.1105,-4.1094,-4.1107,-4.1093,-4.109,-4.1099,-4.1104,-4.1088,-4.1037,-4.0933,-4.0749,-4.0549,-4.0339,-4.008,-3.9804,-3.9502,-3.929,-3.9342,-3.97,-4.0861,-4.2194,-4.3268,-4.3233,-4.305,-4.2826,-4.2616,-4.232,-4.1948,-4.1366,-4.0908,-4.0431,-3.9783,-3.9542,-3.9295,-3.8882,-3.8606,-3.8343,-3.7801,-3.7551,-3.7178,-3.6646,-3.6148,-3.5494,-3.4528,-3.3782,-3.3101,-3.2475,-3.2042,-3.1896,-3.2173,-3.2492,-3.3241,-3.4389,-3.5951,-3.7754,-3.9727,-4.185,-4.2465,-4.1406,-4.1005,-3.4188,-2.0739,-1.7243,-1.7316,-2.0458,-0.6891,0.5723,-3.8131,-3.6977,-3.5791,-3.5791,-3.5044,-3.4316,-3.4269,0.0,-3.4227,-3.4111,0.0,-3.4191,-3.4074,0.0,0.0,-3.5168,-3.5337,-3.5683,-3.6587,-3.6971,-3.7602,-3.8828,-3.9017,-3.9312,-3.9992,-3.8599,-3.7197,-3.6113,-3.5136,-3.4507,-3.4301,-3.4297,-3.4651,-3.5466,-3.5732,-3.6682,-3.8416,-3.863,-3.9242,-4.0233,-4.0403,-4.0577,-4.0776,-4.0913,-4.1031,-4.1108,-4.1105,-4.1093,-4.1092,-4.1099,-4.1101,-4.1096,-4.1037,-4.0933,-4.081,-4.0667,-4.0481,-4.027,-4.0078,-3.9826,-3.957,-3.9406,-4.0198,-4.1218,-4.1286,-4.2341,-4.3545,-4.3563,-4.3461,-4.3375,-4.3232,-4.294,-4.26,-4.2226,-4.1768,-4.1258,-4.0737,-4.0334,-3.9986,-3.9542,-3.9295,-3.8827,-3.8001,-3.7535,-3.6997,-3.6321,-3.5688,-3.489,-3.3782,-3.3171,-3.2403,-3.1442,-3.0996,-3.067,-3.0367,-3.0618,-3.1222,-3.2184,-3.431,-3.6609,-3.9009,-4.2441,-3.9145,-2.8205,-2.6917,-1.958,-0.582,0.6725,0.6543,-0.5165,0.8625,1.6622,-3.9184,-3.7951,-3.6641,-3.6527,-3.5399,-3.4269,-3.4124,-3.3998,-3.3868,-3.3726,0.0,0.0,0.0,0.0,0.0,0.0,-3.3689,-3.3869,-3.4392,-3.4651,-3.5539,-3.7661,-3.8039,-3.8335,-3.8873,-3.7851,-3.6983,-3.6598,-3.5737,-3.5175,-3.5098,-3.556,-3.5974,-3.6315,-3.7325,-3.823,-3.8977,-3.9517,-4.0027,-4.0489,-4.0574,-4.0706,-4.0859,-4.0964,-4.1042,-4.1091,-4.109,-4.1093,-4.1103,-4.1101,-4.1072,-4.1033,-4.0964,-4.0878,-4.0787,-4.0623,-4.045,-4.0325,-4.0078,-3.9848,-3.9717,-3.9993,-4.0803,-4.1702,-4.2069,-4.2952,-4.3828,-4.3781,-4.3781,-4.3781,-4.3664,-4.3477,-4.3195,-4.2829,-4.2404,-4.1973,-4.1516,-4.1157,-4.0737,-4.0153,-3.9697,-3.9189,-3.8455,-3.777,-3.7058,-3.6321,-3.54,-3.4476,-3.352,-3.2605,-3.1649,-3.0607,-2.9666,-2.8929,-2.8342,-2.8032,-2.8276,-2.9033,-3.3333,-3.7121,-4.0119,-4.2563,-3.7842,-2.5004,-2.3192,-1.1756,0.9858,1.6571,2.0958,2.3277,2.8148,3.1209,-3.987,-3.8612,-3.7279,-3.708,-3.5619,-3.4197,-3.3972,-3.3734,-3.353,-3.3327,-3.3099,0.0,0.0,0.0,-3.247,-3.2403,0.0,-3.2453,-3.2583,-3.2858,-3.3925,-3.6305,-3.709,-3.7459,-3.755,-3.7117,-3.6748,-3.655,-3.5976,-3.5708,-3.5892,-3.652,-3.709,-3.7519,-3.8674,-3.9422,-3.9663,-4.0274,-4.0621,-4.0655,-4.0725,-4.0807,-4.0906,-4.0986,-4.1052,-4.1091,-4.1091,-4.1091,-4.1097,-4.1109,-4.105,-4.0979,-4.0935,-4.0849,-4.0773,-4.0602,-4.0473,-4.036,-4.0118,-4.0019,-4.0075,-4.0514,-4.1269,-4.2124,-4.2672,-4.3404,-4.4055,-4.4011,-4.4023,-4.4085,-4.4023,-4.3878,-4.3679,-4.3389,-4.3051,-4.2637,-4.2198,-4.1839,-4.1373,-4.0707,-4.0103,-3.9437,-3.8717,-3.787,-3.7058,-3.6196,-3.5204,-3.4206,-3.3185,-3.2028,-3.0908,-2.9756,-2.839,-2.714,-2.5986,-2.4997,-2.4713,-2.5518,-3.1321,-3.4496,-3.4054,-3.6261,-2.9705,-1.3135,-1.0844,0.1815,2.544,2.6867,3.2808,4.2741,4.1381,4.1393,-4.0017,-3.8717,-3.7343,-3.7149,-3.5595,-3.4049,-3.378,-3.3455,-3.3111,-3.2798,-3.2687,-3.2539,-3.2179,-3.202,-3.1858,-3.1691,-3.1654,0.0,0.0,-3.2162,-3.3033,-3.4844,-3.6344,-3.7013,-3.6498,-3.6546,-3.6335,-3.5687,-3.5684,-3.6065,-3.6911,-3.7048,-3.7868,-3.9546,-3.958,-3.9993,-4.0846,-4.08,-4.0776,-4.0787,-4.0867,-4.0888,-4.0894,-4.1046,-4.11,-4.1091,-4.1091,-4.1091,-4.1097,-4.1109,-4.105,-4.0979,-4.0935,-4.0858,-4.0788,-4.0646,-4.0511,-4.0379,-4.0157,-4.0394,-4.076,-4.0797,-4.1725,-4.2861,-4.288,-4.3495,-4.4184,-4.4184,-4.4244,-4.4285,-4.4285,-4.4188,-4.4048,-4.3929,-4.3667,-4.3321,-4.2788,-4.2356,-4.1874,-4.1117,-4.0466,-3.968,-3.8668,-3.7796,-3.6876,-3.5879,-3.4957,-3.3948,-3.2618,-3.1529,-3.0393,-2.8991,-2.7233,-2.5271,-2.3179,-2.1498,-2.0833,-2.1569,-2.7482,-2.6499,-1.6528,-2.0235,-1.0501,1.4999,1.7796,2.6144,4.0703,4.2175,4.346,4.4498,4.374,4.3661,-4.0157,-3.8801,-3.7349,-3.7152,-3.5595,-3.4023,-3.3753,-3.3415,-3.3037,-3.2687,-3.2438,-3.2179,-3.1839,-3.1596,-3.1406,-3.1235,-3.1196,-3.1274,0.0,-3.2038,-3.276,-3.3653,-3.4666,-3.5262,-3.521,-3.5377,-3.5446,-3.5334,-3.5434,-3.5912,-3.6817,-3.7514,-3.8456,-3.966,-4.0233,-4.0662,-4.0955,-4.094,-4.0932,-4.0932,-4.0915,-4.0913,-4.0967,-4.105,-4.1109,-4.1097,-4.1093,-4.1108,-4.1091,-4.1105,-4.1064,-4.0984,-4.0932,-4.0869,-4.0773,-4.066,-4.0908,-4.1368,-4.1646,-4.1772,-4.1882,-4.2366,-4.2706,-4.305,-4.3658,-4.4031,-4.4274,-4.4274,-4.4344,-4.443,-4.443,-4.4354,-4.4248,-4.4079,-4.3828,-4.3495,-4.3014,-4.2498,-4.1924,-4.1174,-4.0302,-3.9437,-3.8423,-3.7385,-3.643,-3.5816,-3.4758,-3.3687,-3.2917,-3.1576,-3.005,-2.8433,-2.5997,-2.3216,-2.0225,-1.5874,-1.3135,-1.2815,-1.3348,-1.2003,-0.8225,-0.7717,0.114,1.9556,2.158,2.9325,4.3259,4.414,4.4823,4.5254,4.504,4.5036,-4.0215,-3.907,-3.7771,-3.7272,-3.5848,-3.4407,-3.3808,-3.3357,-3.2961,-3.2555,-3.2266,-3.1912,-3.1579,-3.1235,-3.1015,-3.0855,-3.0814,-3.0958,0.0,-3.193,-3.2488,-3.2894,-3.3616,-3.4179,-3.4394,-3.4632,-3.4813,-3.4978,-3.5127,-3.5773,-3.7012,-3.779,-3.8769,-4.0026,-4.0649,-4.0973,-4.0992,-4.1019,-4.1042,-4.1045,-4.0993,-4.1,-4.105,-4.1076,-4.1104,-4.1105,-4.1094,-4.1105,-4.1101,-4.1105,-4.1058,-4.0996,-4.0924,-4.0849,-4.0815,-4.1015,-4.1559,-4.2195,-4.2525,-4.2693,-4.2824,-4.3246,-4.339,-4.3575,-4.4087,-4.4255,-4.4255,-4.4285,-4.4373,-4.4487,-4.4487,-4.4487,-4.4383,-4.4218,-4.3955,-4.3631,-4.3124,-4.2519,-4.1846,-4.0955,-4.0036,-3.9049,-3.7953,-3.6829,-3.5976,-3.5544,-3.4572,-3.3701,-3.3058,-3.1723,-3.0025,-2.8068,-2.4902,-2.0439,-1.4371,-0.9005,-0.5211,-0.3482,-0.2527,0.0304,0.5584,0.6933,1.4326,2.8723,3.0391,3.5569,4.4624,4.5084,4.5398,4.5553,4.5572,4.554]},{"header":{"parameterUnit":"m.s-1","parameterCategory":1,"la1":30.6,"la2":29.2853,"lo1":-89.7004,"lo2":-87.6739,"dy":0.0162,"dx":0.0183,"nx":112,"ny":82,"refTime":"2023-05-14T12:00:00:Z","depth":0,"parameterNumber":3,"parameterNumberName":"V-component_of_WINDS"},"data":[0.0,0.0,0.0,0.0,0.0,0.0,0.0,0.0,0.0,0.0,0.0,0.0,0.0,0.0,0.0,0.0,0.0,0.0,0.0,0.0,0.0,0.0,0.0,0.0,0.0,0.0,0.0,0.0,0.0,0.0,0.0,0.0,0.0,0.0,0.0,0.0,0.0,0.0,0.0,0.0,0.0,0.0,0.0,0.0,0.0,0.0,0.0,0.0,0.0,0.0,0.0,0.0,0.0,0.0,0.0,0.0,0.0,0.0,0.0,0.0,0.0,0.0,0.0,0.0,0.0,0.0,0.0,0.0,0.0,0.0,0.0,0.0,0.0,0.0,0.0,0.0,0.0,0.0,0.0,0.0,0.0,0.0,0.0,0.0,0.0,0.0,0.0,0.0,0.0,0.0,2.3161,2.2995,2.3259,2.2842,2.1338,2.0423,1.8941,1.668,0.0,0.0,0.0,0.0,0.0,0.0,0.0,0.0,0.0,0.0,0.0,0.0,0.0,0.0,0.0,0.0,0.0,0.0,0.0,0.0,0.0,0.0,0.0,0.0,0.0,0.0,0.0,0.0,0.0,0.0,0.0,0.0,0.0,0.0,0.0,0.0,0.0,0.0,0.0,0.0,0.0,0.0,0.0,0.0,0.0,0.0,0.0,0.0,0.0,0.0,0.0,0.0,0.0,0.0,0.0,0.0,0.0,0.0,0.0,0.0,0.0,0.0,0.0,0.0,0.0,0.0,0.0,0.0,0.0,0.0,0.0,0.0,0.0,0.0,0.0,0.0,0.0,0.0,0.0,0.0,0.0,0.0,0.0,0.0,0.0,0.0,0.0,0.0,0.0,0.0,0.0,0.0,0.0,0.0,0.0,0.0,0.0,0.0,0.0,0.0,0.0,0.0,0.0,0.0,2.2953,2.3447,2.355,2.2819,2.0921,2.003,1.865,1.6488,0.0,0.0,0.0,0.0,0.0,0.0,0.0,0.0,0.0,0.0,0.0,0.0,0.0,0.0,0.0,0.0,0.0,0.0,0.0,0.0,0.0,0.0,0.0,0.0,0.0,0.0,0.0,0.0,0.0,0.0,0.0,0.0,0.0,0.0,0.0,0.0,0.0,0.0,0.0,0.0,0.0,0.0,0.0,0.0,0.0,0.0,0.0,0.0,0.0,0.0,0.0,0.0,0.0,0.0,0.0,0.0,0.0,0.0,0.0,0.0,0.0,0.0,0.0,0.0,0.0,0.0,0.0,0.0,0.0,0.0,0.0,0.0,0.0,0.0,0.0,0.0,0.0,0.0,0.0,0.0,0.0,0.0,0.0,0.0,0.0,0.0,0.0,0.0,0.0,0.0,0.0,0.0,0.0,0.0,0.0,0.0,0.0,0.0,0.0,0.0,0.0,0.0,0.0,2.285,2.3285,2.383,2.3579,2.2627,2.0876,1.9784,1.8357,1.6327,1.46,0.0,0.0,0.0,0.0,0.0,0.0,0.0,0.0,0.0,0.0,0.0,0.0,0.0,0.0,0.0,0.0,0.0,0.0,0.0,0.0,0.0,0.0,0.0,0.0,0.0,0.0,0.0,0.0,0.0,0.0,0.0,0.0,0.0,0.0,0.0,0.0,0.0,0.0,0.0,0.0,0.0,0.0,0.0,0.0,0.0,0.0,0.0,0.0,0.0,0.0,0.0,0.0,0.0,0.0,0.0,0.0,0.0,0.0,0.0,0.0,0.0,0.0,0.0,0.0,0.0,0.0,0.0,0.0,0.0,0.0,0.0,0.0,0.0,0.0,0.0,0.0,0.0,0.0,0.0,0.0,0.0,0.0,0.0,0.0,0.0,0.0,0.0,0.0,0.0,0.0,0.0,0.0,0.0,0.0,0.0,0.0,0.0,0.0,0.0,0.0,0.0,0.0,2.3256,2.3502,2.3872,2.3378,2.2367,2.0756,1.9618,1.8116,1.6201,1.439,0.0,0.0,0.0,0.0,0.0,0.0,0.0,0.0,0.0,0.0,0.0,0.0,0.0,0.0,0.0,0.0,0.0,0.0,0.0,0.0,0.0,0.0,0.0,0.0,0.0,0.0,0.0,0.0,0.0,0.0,0.0,0.0,0.0,0.0,0.0,0.0,0.0,0.0,0.0,0.0,0.0,0.0,0.0,0.0,0.0,0.0,0.0,0.0,0.0,0.0,0.0,0.0,0.0,0.0,0.0,0.0,0.0,0.0,0.0,0.0,0.0,0.0,0.0,0.0,0.0,0.0,0.0,0.0,0.0,0.0,0.0,0.0,0.0,0.0,0.0,0.0,0.0,0.0,0.0,0.0,0.0,0.0,0.0,0.0,0.0,0.0,0.0,0.0,0.0,0.0,0.0,0.0,0.0,0.0,0.0,0.0,0.0,0.0,0.0,0.0,0.0,0.0,2.2994,2.3275,2.3458,2.2957,2.2031,2.0537,1.9403,1.8027,1.6226,1.4383,0.0,0.0,0.0,0.0,0.0,0.0,0.0,0.0,0.0,0.0,0.0,0.0,0.0,0.0,0.0,0.0,0.0,0.0,0.0,0.0,0.0,0.0,0.0,0.0,0.0,0.0,0.0,0.0,0.0,0.0,0.0,0.0,0.0,0.0,0.0,0.0,0.0,0.0,0.0,0.0,0.0,0.0,0.0,0.0,0.0,0.0,0.0,0.0,0.0,0.0,0.0,0.0,0.0,0.0,0.0,0.0,0.0,0.0,0.0,0.0,0.0,0.0,0.0,0.0,0.0,0.0,0.0,0.0,0.0,0.0,0.0,0.0,0.0,0.0,0.0,0.0,0.0,0.0,0.0,0.0,0.0,0.0,0.0,0.0,0.0,0.0,0.0,0.0,0.0,0.0,0.0,0.0,0.0,0.0,0.0,0.0,0.0,0.0,0.0,0.0,0.0,0.0,2.2972,2.3267,2.3138,2.2469,2.1564,2.0362,1.8988,1.7603,1.6215,0.0,0.0,0.0,0.0,0.0,0.0,0.0,0.0,0.0,0.0,0.0,0.0,0.0,0.0,0.0,0.0,0.0,0.0,0.0,0.0,0.0,0.0,0.0,0.0,0.0,0.0,0.0,0.0,0.0,0.0,0.0,0.0,0.0,0.0,0.0,0.0,0.0,0.0,0.0,0.0,0.0,0.0,0.0,0.0,0.0,0.0,0.0,0.0,0.0,0.0,0.0,0.0,0.0,0.0,0.0,0.0,0.0,0.0,0.0,0.0,0.0,0.0,0.0,0.0,0.0,0.0,0.0,0.0,0.0,0.0,0.0,0.0,0.0,0.0,0.0,0.0,0.0,0.0,0.0,0.0,0.0,0.0,0.0,0.0,0.0,0.0,0.0,0.0,0.0,0.0,0.0,0.0,0.0,0.0,0.0,0.0,0.0,0.0,0.0,0.0,0.0,0.0,2.2156,2.2808,2.315,2.2726,2.2099,2.1249,2.0279,1.8706,1.7298,1.6156,0.0,0.0,0.0,0.0,0.0,0.0,0.0,0.0,0.0,0.0,0.0,0.0,0.0,0.0,0.0,0.0,0.0,0.0,0.0,0.0,0.0,0.0,0.0,0.0,0.0,0.0,0.0,0.0,0.0,0.0,0.0,0.0,0.0,0.0,0.0,0.0,0.0,0.0,0.0,0.0,0.0,0.0,0.0,0.0,0.0,0.0,0.0,0.0,0.0,0.0,0.0,0.0,0.0,0.0,0.0,0.0,0.0,0.0,0.0,0.0,0.0,0.0,0.0,0.0,0.0,0.0,0.0,0.0,0.0,0.0,0.0,0.0,0.0,0.0,0.0,0.0,0.0,0.0,0.0,0.0,0.0,0.0,0.0,0.0,0.0,0.0,0.0,0.0,0.0,0.0,0.0,0.0,0.0,0.0,0.0,0.0,0.0,0.0,0.0,0.0,0.0,0.0,2.1809,2.2531,2.2836,2.2247,2.1925,2.1262,2.0161,1.8711,1.7306,0.0,0.0,0.0,0.0,0.0,0.0,0.0,0.0,0.0,0.0,0.0,0.0,0.0,0.0,0.0,0.0,0.0,0.0,0.0,0.0,0.0,0.0,0.0,0.0,0.0,0.0,0.0,0.0,0.0,0.0,0.0,0.0,0.0,0.0,0.0,0.0,0.0,0.0,0.0,0.0,0.0,0.0,0.0,0.0,0.0,0.0,0.0,0.0,0.0,0.0,0.0,0.0,0.0,0.0,0.0,0.0,0.0,0.0,0.0,0.0,0.0,0.0,0.0,0.0,0.0,0.0,0.0,0.0,0.0,0.0,0.0,0.0,0.0,0.0,0.0,0.0,0.0,0.0,0.0,0.0,0.0,0.0,0.0,0.0,0.0,0.0,0.0,0.0,0.0,0.0,0.0,0.0,0.0,0.0,0.0,0.0,0.0,0.0,0.0,0.0,0.0,0.0,0.0,2.2249,2.2568,2.2531,2.1913,2.1273,2.0571,1.9791,1.8526,1.7214,1.6074,0.0,0.0,0.0,0.0,0.0,0.0,0.0,0.0,0.0,0.0,0.0,0.0,0.0,0.0,0.0,0.0,0.0,0.0,0.0,0.0,0.0,0.0,0.0,0.0,0.0,0.0,0.0,0.0,0.0,0.0,0.0,0.0,0.0,0.0,0.0,0.0,0.0,0.0,0.0,0.0,0.0,0.0,0.0,0.0,0.0,0.0,0.0,0.0,0.0,0.0,0.0,0.0,0.0,0.0,0.0,0.0,0.0,0.0,0.0,0.0,0.0,0.0,0.0,0.0,0.0,0.0,0.0,0.0,0.0,0.0,0.0,0.0,0.0,0.0,0.0,0.0,0.0,0.0,0.0,0.0,0.0,0.0,0.0,0.0,0.0,0.0,0.0,0.0,0.0,0.0,0.0,0.0,0.0,0.0,0.0,0.0,0.0,0.0,0.0,0.0,0.0,0.0,2.2279,2.2429,2.2285,2.1651,2.1019,2.0313,1.9528,1.84,1.7178,1.5974,0.0,0.0,0.0,0.0,0.0,0.0,0.0,0.0,0.0,0.0,0.0,0.0,0.0,0.0,0.0,0.0,0.0,0.0,0.0,0.0,0.0,0.0,0.0,0.0,0.0,0.0,0.0,0.0,0.0,0.0,0.0,0.0,0.0,0.0,0.0,0.0,0.0,0.0,0.0,0.0,0.0,0.0,0.0,0.0,0.0,0.0,0.0,0.0,0.0,0.0,0.0,0.0,0.0,0.0,0.0,0.0,0.0,0.0,0.0,0.0,0.0,0.0,0.0,0.0,0.0,0.0,0.0,0.0,0.0,0.0,0.0,0.0,0.0,0.0,0.0,0.0,0.0,0.0,0.0,0.0,0.0,0.0,0.0,0.0,0.0,0.0,0.0,0.0,0.0,0.0,0.0,0.0,0.0,0.0,0.0,0.0,0.0,0.0,0.0,0.0,0.0,0.0,2.2064,2.2225,2.2099,2.1451,2.088,2.0237,1.9365,1.8299,1.7181,1.5919,0.0,0.0,0.0,0.0,0.0,0.0,0.0,0.0,0.0,0.0,0.0,0.0,0.0,0.0,0.0,0.0,0.0,0.0,0.0,0.0,0.0,0.0,0.0,0.0,0.0,0.0,0.0,0.0,0.0,0.0,0.0,0.0,0.0,0.0,0.0,0.0,0.0,0.0,0.0,0.0,0.0,0.0,0.0,0.0,0.0,0.0,0.0,0.0,0.0,0.0,0.0,0.0,0.0,0.0,0.0,0.0,0.0,0.0,0.0,0.0,2.2317,2.1592,0.0,0.0,0.0,0.0,0.0,0.0,0.0,0.0,0.0,0.0,0.0,0.0,0.0,0.0,0.0,0.0,0.0,0.0,0.0,0.0,0.0,0.0,0.0,0.0,0.0,0.0,0.0,0.0,0.0,0.0,0.0,0.0,0.0,0.0,0.0,0.0,0.0,0.0,0.0,0.0,2.2648,2.2286,2.18,2.1285,2.0624,1.9911,1.9198,1.8382,1.7485,1.6468,1.5408,0.0,0.0,0.0,0.0,0.0,0.0,0.0,0.0,0.0,0.0,0.0,0.0,0.0,0.0,0.0,0.0,0.0,0.0,0.0,0.0,0.0,0.0,0.0,0.0,0.0,0.0,0.0,0.0,0.0,0.0,0.0,0.0,0.0,0.0,0.0,0.0,0.0,0.0,0.0,0.0,0.0,0.0,0.0,0.0,0.0,0.0,0.0,0.0,0.0,0.0,0.0,0.0,0.0,0.0,0.0,0.0,0.0,0.0,0.0,2.3651,2.2997,0.0,0.0,0.0,0.0,0.0,0.0,0.0,0.0,0.0,0.0,0.0,0.0,0.0,0.0,0.0,0.0,0.0,0.0,0.0,0.0,0.0,0.0,0.0,0.0,0.0,0.0,0.0,0.0,0.0,0.0,0.0,0.0,0.0,0.0,0.0,0.0,0.0,0.0,0.0,0.0,2.2895,2.242,2.1812,2.1296,2.056,1.9846,1.9274,1.8539,1.7745,1.6788,1.596,0.0,0.0,0.0,0.0,0.0,0.0,0.0,0.0,0.0,0.0,0.0,0.0,0.0,0.0,0.0,0.0,0.0,0.0,0.0,0.0,0.0,0.0,0.0,0.0,0.0,0.0,0.0,0.0,0.0,0.0,0.0,0.0,0.0,0.0,0.0,0.0,0.0,0.0,0.0,0.0,0.0,0.0,0.0,0.0,0.0,0.0,0.0,0.0,0.0,0.0,0.0,0.0,0.0,2.5853,2.5808,2.5741,2.5548,2.5443,2.5408,2.5239,2.4809,2.4192,2.4429,0.0,0.0,0.0,0.0,0.0,0.0,0.0,0.0,0.0,0.0,0.0,0.0,0.0,0.0,0.0,0.0,0.0,0.0,0.0,0.0,0.0,0.0,2.7872,2.7575,2.7515,2.7377,2.682,0.0,0.0,0.0,0.0,0.0,0.0,0.0,0.0,0.0,0.0,0.0,2.2907,2.2494,2.1874,2.1285,2.0571,1.9922,1.9341,1.8741,1.7976,1.7149,1.6522,1.5797,0.0,0.0,0.0,0.0,0.0,0.0,0.0,0.0,0.0,0.0,0.0,0.0,0.0,0.0,0.0,0.0,0.0,0.0,0.0,0.0,0.0,0.0,0.0,0.0,0.0,0.0,0.0,0.0,0.0,0.0,0.0,0.0,2.3724,2.4112,0.0,0.0,0.0,0.0,0.0,0.0,0.0,0.0,0.0,0.0,0.0,0.0,0.0,2.6047,2.6126,2.6206,2.6184,2.6074,2.6535,2.6594,2.6336,2.6814,2.6899,2.6726,2.6684,0.0,2.495,2.5128,0.0,0.0,0.0,0.0,0.0,0.0,0.0,0.0,0.0,0.0,0.0,0.0,0.0,0.0,0.0,0.0,0.0,0.0,0.0,0.0,0.0,0.0,2.8503,2.8293,2.8307,2.8246,2.8041,2.6998,2.6094,2.5925,2.5436,2.5051,0.0,0.0,0.0,0.0,0.0,0.0,2.2957,2.2359,2.1737,2.1221,2.0722,2.0074,1.9351,1.8787,1.8297,1.7852,1.6882,1.6181,1.5936,1.5239,0.0,0.0,0.0,0.0,0.0,0.0,0.0,0.0,0.0,0.0,0.0,0.0,0.0,0.0,0.0,0.0,0.0,0.0,0.0,0.0,0.0,0.0,0.0,0.0,0.0,0.0,0.0,0.0,0.0,2.4334,2.5156,2.572,2.5814,2.5959,0.0,0.0,0.0,0.0,0.0,0.0,0.0,0.0,0.0,2.6465,2.6676,2.6787,2.6787,2.7133,2.7307,2.7243,2.743,2.7419,2.7157,2.7365,2.7348,2.7146,2.7053,2.6771,2.6295,2.6039,2.5793,2.5605,0.0,0.0,0.0,0.0,2.6238,2.6285,2.6317,2.6299,2.6307,2.643,0.0,0.0,0.0,0.0,0.0,0.0,0.0,2.8446,2.8446,2.8838,2.9304,2.9119,2.9072,2.8962,2.8761,2.8326,2.7721,2.6923,2.6758,2.663,2.6298,2.6068,0.0,0.0,0.0,2.4029,2.3602,2.2726,2.1975,2.14,2.0839,2.0324,1.9791,1.9187,1.8654,1.8317,1.761,1.71,1.676,1.6105,1.5552,0.0,0.0,0.0,0.0,0.0,0.0,0.0,0.0,0.0,0.0,0.0,0.0,0.0,0.0,0.0,0.0,0.0,0.0,0.0,0.0,0.0,0.0,0.0,0.0,0.0,0.0,0.0,0.0,2.6228,2.6872,2.7624,2.7817,2.801,0.0,0.0,0.0,0.0,0.0,0.0,2.7662,2.7303,2.7067,2.7182,2.7476,2.7578,2.7591,2.7983,2.821,2.8131,2.8131,2.8066,2.7855,2.7709,2.7575,2.7403,2.7242,2.7323,2.7377,2.6828,2.6466,2.6162,2.6459,2.6691,2.6937,2.7038,2.7195,2.736,2.7193,2.7162,2.7135,2.7126,2.7319,2.7489,2.7685,0.0,0.0,0.0,0.0,2.9203,2.9203,2.9543,2.9837,2.9727,2.9665,2.954,2.9324,2.938,2.9087,2.7778,2.7829,2.7917,2.7285,2.6977,0.0,2.6478,2.5678,2.4913,2.4418,2.3381,2.2416,2.1776,2.1088,2.0571,2.0172,1.9584,1.9131,1.8643,1.8327,1.793,1.7451,1.6936,1.6529,1.6321,0.0,0.0,0.0,0.0,0.0,0.0,0.0,0.0,0.0,0.0,0.0,0.0,0.0,0.0,0.0,0.0,0.0,0.0,0.0,0.0,0.0,0.0,0.0,0.0,0.0,0.0,0.0,0.0,0.0,2.9907,3.0036,0.0,0.0,0.0,0.0,2.8861,2.8482,2.8352,2.8605,2.8437,2.8443,2.8671,2.8712,2.8675,2.8546,2.8573,2.8444,2.83,2.83,2.8249,2.8079,2.804,2.7947,2.7789,2.7748,2.7802,2.7789,2.7403,2.7416,2.7669,2.7736,2.8266,2.9053,2.9013,2.9538,3.0092,2.955,2.9399,2.9449,2.8876,2.8939,2.9317,2.9456,2.9552,0.0,0.0,2.9979,3.0068,3.0068,3.0083,3.0111,3.005,3.005,3.0036,2.9903,2.9946,2.9667,2.8393,2.8146,2.7939,2.7405,0.0,2.6991,2.6843,2.6329,2.5821,2.5319,2.4192,2.3213,2.2509,2.1702,2.0892,2.0161,1.9922,1.9605,1.9131,1.8721,1.8317,1.794,1.7765,1.7369,1.6864,1.6836,0.0,0.0,0.0,0.0,0.0,0.0,0.0,0.0,0.0,0.0,0.0,0.0,0.0,0.0,0.0,0.0,0.0,0.0,0.0,0.0,0.0,0.0,0.0,0.0,0.0,0.0,0.0,0.0,3.0744,3.0826,0.0,3.1139,3.0853,3.0894,3.1302,3.0852,3.0725,3.1113,3.0701,3.0415,3.0508,3.0259,2.9934,2.9484,2.9484,2.9292,2.883,2.883,2.8688,2.856,2.8446,2.8302,2.8105,2.8027,2.7974,2.8013,2.8279,2.8439,2.8572,2.8635,2.9171,2.9793,2.9941,3.0117,3.0323,2.982,2.9668,2.9638,2.942,2.9415,2.9602,2.9865,2.9988,3.0036,3.0144,3.0326,3.0462,3.0536,3.0536,3.0536,3.0536,3.0462,3.0387,3.0147,3.0176,3.0101,2.9638,2.9492,2.9256,2.8848,2.8759,2.8512,2.7999,2.7422,2.6791,2.6168,2.5154,2.429,2.3579,2.2888,2.2194,2.1391,2.1152,2.0733,2.0073,1.9996,1.9671,1.8982,1.8824,1.8409,1.7793,1.7783,1.7695,0.0,0.0,0.0,0.0,0.0,0.0,0.0,0.0,0.0,0.0,0.0,0.0,0.0,0.0,0.0,0.0,0.0,0.0,0.0,0.0,0.0,0.0,0.0,0.0,0.0,3.0857,3.1618,3.2072,3.2137,3.2358,3.2762,3.2545,3.2631,3.3269,3.2811,3.2532,3.2582,3.2084,3.1758,3.1641,3.1377,3.0982,3.0498,3.029,2.9984,2.9581,2.9386,2.9149,2.8994,2.8858,2.8665,2.8392,2.8531,2.8545,2.8518,2.9129,2.9562,2.974,2.9591,2.9927,3.0505,3.0726,3.0934,3.1019,3.0457,3.0038,2.9688,2.9743,2.9803,2.9851,3.0172,3.0294,3.028,3.0507,3.0687,3.0881,3.094,3.0984,3.1043,3.0984,3.0866,3.0732,3.0539,3.0478,3.0507,3.0609,3.0337,3.005,2.9803,2.9727,2.9526,2.9035,2.8348,2.7709,2.7143,2.6207,2.5331,2.4731,2.3978,2.3195,2.2523,2.2139,2.1716,2.118,2.1177,2.086,2.0076,1.9916,1.9633,1.9061,1.8982,1.8913,1.8923,0.0,0.0,0.0,0.0,0.0,0.0,0.0,0.0,0.0,0.0,0.0,0.0,0.0,0.0,0.0,0.0,0.0,0.0,0.0,0.0,0.0,0.0,0.0,3.2403,3.2586,3.3124,3.4084,3.4165,3.4339,3.4787,3.4552,3.4384,3.4515,3.4105,3.3576,3.2922,3.2655,3.2335,3.1909,3.1895,3.1749,3.1537,3.089,3.0552,3.0538,2.9883,2.9526,2.931,2.9344,2.9041,2.8668,2.9241,2.9388,2.9309,2.9923,3.0622,3.1208,3.0466,3.0633,3.1361,3.1564,3.1924,3.2269,3.1648,3.0642,2.9665,2.9988,3.0111,3.0172,3.0522,3.0642,3.0702,3.1014,3.119,3.1336,3.1351,3.1437,3.1465,3.1291,3.1218,3.1175,3.1132,3.1029,3.0999,3.1176,3.0626,3.0111,3.0111,2.996,2.9761,2.9665,2.9135,0.0,2.8352,2.7287,2.6375,2.5823,2.4818,2.3971,2.3416,2.298,2.264,2.2263,2.2067,2.1732,2.1171,2.1171,2.096,2.0523,2.0359,2.0216,2.0237,0.0,0.0,0.0,0.0,0.0,0.0,0.0,0.0,0.0,0.0,0.0,0.0,0.0,0.0,0.0,0.0,0.0,0.0,0.0,0.0,0.0,3.3324,3.4121,3.3876,3.448,3.5284,3.6174,3.6205,3.6084,3.6052,3.5664,3.5443,3.5521,3.5108,3.4787,3.4793,3.4404,3.4142,3.3891,3.3609,3.3327,3.2933,3.2141,3.1503,3.1045,3.0444,3.0021,2.9851,2.9617,2.968,2.9956,2.9921,3.009,3.0486,3.0951,3.1323,3.1488,3.1079,3.146,3.2123,3.214,3.1943,3.1623,3.1489,3.0821,3.0144,3.0401,3.0522,3.0642,3.0895,3.0999,3.1161,3.1336,3.1509,3.1625,3.191,3.1819,3.1758,3.1864,3.1804,3.1645,3.1582,3.1524,3.1509,3.1629,3.1322,3.1043,3.0642,3.0447,3.0266,3.0007,2.9651,2.9212,2.8739,2.8153,2.7538,2.6956,2.6198,2.5462,2.4664,2.4293,2.3933,2.3502,2.3416,2.3104,2.2451,2.2298,2.1849,2.1069,2.0917,2.0776,0.0,0.0,0.0,0.0,0.0,0.0,0.0,0.0,0.0,0.0,0.0,0.0,0.0,0.0,0.0,0.0,0.0,0.0,0.0,0.0,0.0,0.0,3.506,3.5971,3.6527,3.6601,3.6819,3.7449,3.7352,3.7235,3.7294,3.6873,3.6605,3.6753,3.6209,3.5907,3.5782,3.5444,3.5133,3.4898,3.4683,3.4426,3.4061,3.3063,3.2344,3.1965,3.1064,3.0522,3.028,3.0097,3.0191,3.0493,3.0549,3.0828,3.1309,3.1778,3.1916,3.1901,0.0,0.0,0.0,0.0,3.2236,3.1575,3.1772,3.1203,3.0447,3.0702,3.0881,3.1058,3.1234,3.1409,3.1625,3.1781,3.1951,3.2104,3.2241,3.2266,3.2321,3.2444,3.2312,3.2155,3.2196,3.2099,3.197,3.1985,3.1826,0.0,3.1351,3.1058,3.0747,3.0387,3.0083,2.9713,2.9198,2.8739,2.8287,2.7776,2.7175,2.6506,2.584,2.5411,0.0,0.0,0.0,2.4112,2.3466,2.3239,0.0,0.0,0.0,2.1873,2.1718,2.1718,0.0,0.0,2.0812,2.0739,0.0,0.0,0.0,0.0,0.0,0.0,0.0,0.0,0.0,0.0,0.0,0.0,0.0,0.0,0.0,0.0,3.7007,3.8023,3.9593,3.8888,3.8218,3.8423,3.8187,3.8167,3.8538,3.8157,3.7867,3.7937,3.7326,3.6784,3.6321,3.5943,0.0,0.0,0.0,3.5213,3.5067,3.3716,3.3066,3.3051,3.1752,3.094,3.0642,3.0642,3.0654,3.0749,3.124,3.1639,3.2014,3.2301,3.2451,3.242,3.2437,3.2423,3.2522,3.3129,3.2661,3.1838,3.232,0.0,0.0,3.1073,3.1234,3.1394,3.1552,3.1796,3.2094,3.2247,3.2453,3.2641,3.2563,3.2734,3.2951,3.2959,3.2874,3.2788,3.2757,3.2592,3.245,3.2318,3.2206,3.2109,3.2053,3.164,3.1219,3.0747,3.0507,3.0205,2.9727,2.9198,2.8739,2.8417,2.7776,0.0,2.685,2.6314,2.5898,2.5676,2.53,2.4802,2.4334,2.4116,2.3824,2.3446,2.3372,2.3224,2.2852,2.2777,2.2703,2.2531,2.1613,2.1371,0.0,0.0,0.0,0.0,0.0,0.0,0.0,0.0,0.0,0.0,0.0,0.0,0.0,0.0,0.0,3.7963,3.9024,3.9982,4.0647,4.084,4.0812,4.0481,4.0168,3.988,3.9699,3.9201,3.8734,3.827,3.7786,3.7314,3.6784,3.6523,3.6226,3.6022,3.5752,3.5638,3.5782,3.433,3.3484,3.3423,3.2079,0.0,3.1014,3.0702,3.1145,3.2083,3.1792,3.2255,3.3199,3.2792,3.2579,3.2437,3.2579,3.2706,3.2931,3.3382,3.2947,3.2112,3.2384,3.1951,3.1321,3.1379,3.1625,3.1868,3.2023,3.2191,0.0,3.2602,3.2834,3.3027,3.3261,3.3282,3.3266,3.3346,3.3377,3.334,3.3074,3.302,3.2897,3.2788,3.2734,3.2664,3.2358,3.1951,3.1567,3.1379,3.0984,3.0568,3.0205,2.9713,2.9275,2.8739,2.8352,2.7908,2.739,2.6985,2.6633,2.6289,2.5581,2.5087,2.4874,2.455,2.4345,2.4273,2.397,2.3751,2.3666,2.3519,2.3372,2.3372,2.2509,2.2254,0.0,0.0,0.0,0.0,0.0,0.0,0.0,0.0,0.0,0.0,0.0,3.4541,3.6202,0.0,3.8448,3.9443,4.0299,4.1037,4.1627,4.1961,4.1984,4.1525,4.1117,4.0724,4.0449,3.9902,3.9332,3.881,3.8286,3.7828,3.7445,3.7058,3.6769,3.6554,3.6321,3.6211,3.6226,3.4699,3.3894,3.3834,3.2387,3.1524,3.1278,3.097,3.1212,3.1873,3.1838,3.2174,3.2821,3.2593,3.2519,3.2403,3.2536,3.2763,3.3044,3.355,3.3111,3.2241,3.2674,3.2241,3.1552,3.1781,3.2023,3.2247,3.2437,3.2672,3.2904,3.3193,3.3366,3.3555,3.3761,3.3764,3.3764,3.3928,3.3877,3.3726,3.3555,3.3346,3.3203,3.3096,3.3005,3.2843,3.2648,3.2358,3.2007,3.1537,3.1321,3.097,3.0507,3.0083,2.9713,2.9261,2.8753,2.8249,2.7776,2.7255,2.685,2.6427,2.607,2.5721,2.5312,2.504,2.4826,2.4754,2.4478,2.4273,2.42,2.4127,2.397,2.3897,2.3519,2.3224,0.0,0.0,0.0,0.0,0.0,0.0,0.0,2.3029,2.8268,3.2089,3.4501,3.6277,3.7719,3.8675,3.9582,4.0747,4.1306,4.1815,4.2404,4.2552,4.2472,4.2086,4.1613,4.1192,4.0943,4.0466,3.9919,3.9401,3.881,3.8327,3.8059,3.7594,3.7238,3.7027,3.6937,3.6769,3.6662,3.5122,3.4327,3.4252,3.2634,3.1769,3.1552,3.1248,3.1203,3.1411,3.182,3.2082,3.2244,3.2307,3.2314,3.2323,3.2376,3.2593,3.2975,3.3619,3.3225,3.2486,3.3033,3.2571,3.1832,3.2109,3.2358,3.2563,3.2819,3.3102,3.345,3.3745,3.3899,3.405,3.4201,3.425,3.4283,3.4447,3.4232,3.405,3.3949,3.3694,3.345,3.3346,3.315,3.3005,3.2951,3.2882,3.2567,3.1796,3.161,3.1321,3.0807,3.0433,3.0068,2.9665,2.9085,2.8509,2.8039,2.7469,2.693,2.6633,2.6483,2.622,2.5746,2.5523,2.5312,2.5158,2.5052,2.4861,2.4706,2.4694,2.455,2.4406,2.4406,2.4189,-1.5881,-1.9211,-1.9599,-1.2706,-0.3518,0.6111,0.0,2.3902,3.1444,3.5922,3.7949,3.9329,4.0593,4.1099,4.1523,4.2044,4.2404,4.2675,4.2844,4.2709,4.257,4.253,4.2061,4.1631,4.1346,4.0901,4.0419,3.9952,3.9401,3.8936,3.8511,3.8059,3.7786,3.7626,3.7433,3.7238,3.7134,3.5696,3.4836,3.4445,3.2905,3.2038,3.1727,3.1307,3.1352,3.1769,3.2182,3.2471,3.2591,3.2359,3.2123,3.1944,3.2169,3.2331,3.2577,3.3339,3.35,3.3255,3.3206,3.3066,3.2771,3.2486,3.2594,3.2881,3.3134,3.345,3.3761,3.4151,3.4349,3.4497,3.4739,3.4787,3.4804,3.4676,3.4659,3.4497,3.4151,3.405,3.3899,3.3555,3.345,3.3346,3.3096,3.3451,3.3417,3.2435,3.1951,3.1567,3.1278,3.0807,3.0326,2.9822,2.9435,2.8944,2.8131,2.7669,2.7403,2.7201,2.6701,2.6346,2.6289,2.6025,2.5828,2.5828,2.5618,2.5477,2.5465,2.5324,2.517,2.517,2.517,2.4897,-1.6702,-2.3701,-2.5197,-1.3662,-0.4092,0.5969,1.9412,2.8663,3.5341,3.8404,4.0238,4.1457,4.2037,4.2466,4.2769,4.2602,4.2727,4.2824,4.2842,4.2688,4.253,4.231,4.1934,4.1648,4.1542,4.1105,4.0631,4.0204,3.9661,3.9202,3.886,3.8415,3.8148,3.8008,3.7801,3.7419,3.6875,3.5796,3.4877,3.4146,3.2819,3.2094,3.1898,3.1366,3.1316,3.1739,3.1612,3.185,3.2372,3.2096,3.1877,3.1716,3.1977,3.2109,3.2417,3.3297,3.355,3.3477,3.3794,3.3547,3.3154,3.333,3.3248,3.3203,3.3658,3.3899,3.4151,3.4643,3.4851,3.5041,3.5258,3.5304,3.5258,3.5148,3.5024,3.4851,3.4594,3.43,3.418,3.4446,3.4265,3.4181,3.4501,3.4596,3.4466,3.3913,3.3426,3.2899,3.2602,3.1854,3.0866,2.9817,2.9247,2.8817,2.8406,2.7921,2.759,2.7403,2.7121,2.685,2.6726,2.6521,2.6383,2.6383,2.6151,2.6082,2.6082,2.6,2.5931,2.5931,2.5931,2.5873,-1.1065,-1.9037,-2.1359,-0.8784,0.0443,1.0122,2.4252,3.3185,3.9072,4.1183,4.2569,4.3402,4.357,4.3839,4.3814,4.3235,4.3129,4.3,4.2645,4.2432,4.2169,4.1796,4.1463,4.1192,4.11,4.0901,4.0631,4.0171,3.9729,3.9255,3.8843,3.8472,3.8164,3.7992,3.786,3.743,3.6774,3.5748,3.4845,3.4048,3.2716,3.1966,3.1868,3.1204,3.1188,3.1669,3.1102,3.1375,3.2182,3.189,3.1716,3.1516,3.1757,3.193,3.2241,3.3129,3.3522,3.3667,3.4199,3.3969,3.3575,3.3958,3.377,3.3503,3.4,3.4349,3.4594,3.5088,3.5321,3.5549,3.5711,3.5756,3.5711,3.5605,3.5396,3.5182,3.4994,3.4758,3.4706,3.5124,3.5069,3.5036,3.5506,3.5552,3.5451,3.5321,3.495,3.4395,3.3652,3.249,3.1232,2.9783,2.9261,2.8881,2.8651,2.8249,2.7921,2.7669,2.7469,2.7268,2.7146,2.693,2.6794,2.6794,2.6714,2.6633,2.6633,2.6701,2.6688,2.6688,2.6688,2.6837,0.4503,0.0059,-0.2776,0.3082,1.1091,1.9747,2.8241,3.6177,4.2472,4.4911,4.5308,4.5374,4.5814,4.5425,4.4804,4.4065,4.3858,4.3368,4.2294,4.177,4.1366,4.0995,4.0559,4.0136,3.9885,4.0237,4.032,3.9833,3.9418,3.8936,3.8327,3.8042,3.777,3.7417,3.7417,3.7342,3.7163,3.5696,3.4794,3.4488,3.2604,3.1667,3.148,3.069,3.0807,3.1655,3.113,3.1371,3.2182,3.1743,3.1495,3.1307,3.1548,3.1723,3.199,3.2749,3.3448,3.4109,3.4317,3.4286,3.4161,3.4129,3.3915,3.3745,3.4151,3.4643,3.5135,3.5333,3.565,3.6019,3.6122,3.6182,3.6122,3.6019,3.58,3.5487,3.5182,3.5462,3.5612,3.5272,3.5614,3.5867,3.5641,3.5989,3.6332,3.6173,3.6319,3.5753,3.394,3.249,3.1123,2.9941,2.9651,2.9289,2.8651,2.8587,2.8457,2.8079,2.7736,2.7456,2.7456,2.7146,2.7024,2.7024,2.7214,2.7268,2.7268,2.739,2.7469,2.7469,2.7469,2.7656,0.9542,0.3359,-0.0479,0.9953,1.6838,2.4136,3.59,4.271,4.6741,4.7456,4.759,4.75,4.7022,4.6652,4.6057,4.5037,4.4486,4.3978,4.3313,4.2606,4.1986,4.1545,4.0913,4.0183,3.9243,3.9297,3.9315,3.8941,3.8446,3.7921,3.7515,3.7084,3.6722,3.6554,3.6415,3.6014,3.5276,3.4759,3.4075,3.3149,3.2611,3.2205,3.2115,3.1863,3.2043,3.2457,3.2094,3.2022,3.2182,3.2036,3.1817,3.1535,3.1683,3.1923,3.2205,3.2932,3.3561,3.4201,3.4706,3.4648,3.4429,3.487,3.4548,3.405,3.4643,3.5118,3.5487,3.5766,3.6088,3.6377,3.6478,3.652,3.6478,3.6276,3.6019,3.5936,3.611,3.6052,3.6175,3.7047,3.6987,3.6987,3.7375,3.7422,3.7277,3.7026,3.6614,3.5827,3.4435,3.314,3.2057,3.1108,3.0168,2.9477,2.9289,2.8958,2.8638,2.8457,2.8183,2.7987,2.7868,2.7815,2.7749,2.7749,2.7815,2.7815,2.7815,2.7881,2.7921,2.8039,2.8039,2.8222,1.9838,1.5461,1.3126,2.2259,2.7086,3.2077,4.1715,4.6304,4.8509,4.8386,4.8313,4.816,4.7778,4.7381,4.6855,4.5939,4.5215,4.4445,4.3585,4.2706,4.19,4.1147,4.0394,3.9495,3.8419,3.7973,3.7764,3.7732,3.7247,3.6751,3.6307,3.5791,3.5344,3.5005,3.4779,3.423,3.3411,3.3048,3.2288,3.11,3.1485,3.1767,3.209,3.2455,3.2989,3.3436,3.3087,3.2848,3.2646,3.2516,3.2268,3.1884,3.2036,3.2205,3.2439,3.3143,3.3742,3.4341,3.5023,3.5105,3.4945,3.5386,3.5096,3.4759,3.5108,3.547,3.5871,3.6182,3.6468,3.6708,3.6788,3.6806,3.6818,3.6915,3.6732,3.6679,3.7172,3.7141,3.7253,3.8186,3.8114,3.8062,3.8479,3.8262,3.7976,3.7653,3.7042,3.6137,3.4876,3.3716,3.2691,3.1751,3.0654,2.9913,2.9789,2.9387,2.9058,2.8894,2.8688,2.8495,2.8392,2.8327,2.8276,2.8276,2.8327,2.8314,2.8314,2.8392,2.8522,2.856,2.861,2.8803,3.4592,3.5202,3.6378,3.8721,4.0763,4.2869,4.5401,4.6977,4.791,4.7923,4.7619,4.751,4.8077,4.7695,4.7187,4.6694,4.5925,4.4829,4.3133,4.2105,4.1099,4.0014,3.9155,3.831,3.7579,3.6482,3.5882,3.6102,3.5821,3.5359,3.4707,3.4172,3.3545,3.2975,3.251,3.2099,3.1613,3.0546,2.9431,2.8198,2.8987,2.9736,3.0515,3.1318,3.2092,3.2767,3.2341,3.2018,3.1736,3.204,3.1949,3.1613,3.2249,3.265,3.2863,3.3478,3.4085,3.4728,3.527,3.555,3.5711,3.5631,3.563,3.5696,3.5538,3.5783,3.6199,3.6533,3.6829,3.7079,3.7079,3.7115,3.7286,3.7918,3.7826,3.7732,3.8384,3.8687,3.8823,3.8707,3.8864,3.9023,3.886,3.8655,3.8319,3.8001,3.7695,3.6867,3.5278,3.4196,3.3168,3.2027,3.1185,3.0536,3.019,2.9931,2.9685,2.9373,2.9212,2.9085,2.8867,2.8702,2.8651,2.8651,2.8753,2.8803,2.8803,2.9022,2.9099,2.9099,2.9261,2.9449,3.8142,3.8709,3.9512,4.1319,4.2661,4.4101,4.631,4.7414,4.8041,4.8309,4.8147,4.7921,4.778,4.7759,4.7466,4.664,4.6204,4.5484,4.415,4.2874,4.1753,4.0792,3.9619,3.8445,3.7344,3.6504,3.5449,3.4172,3.3927,3.3573,3.3003,3.2307,3.1629,3.0987,3.02,2.9465,2.8655,2.7021,2.5469,2.4249,2.2151,1.9899,1.7469,1.5001,1.2683,1.0511,0.9342,0.8398,0.8267,1.7139,2.0466,2.0941,3.02,3.3945,3.4187,3.4566,3.5059,3.5642,3.6275,3.6273,3.6079,3.6606,3.6492,3.6214,3.6605,3.6689,3.6696,3.7048,3.7606,3.8125,3.8203,3.8571,3.8969,3.9095,3.8905,3.8868,3.9537,3.9451,3.9477,3.9929,3.9851,3.9662,3.9454,3.9348,3.9206,3.892,3.8574,3.7873,3.6611,3.5355,3.4287,3.3487,3.2527,3.1559,3.0821,3.0658,3.0358,2.9931,2.9884,2.9699,2.9401,2.9352,2.9275,2.9121,2.9184,2.9121,2.9022,2.9099,2.9226,2.9477,2.954,2.9713,4.053,4.0897,4.1464,4.259,4.3451,4.4369,4.5805,4.6583,4.7077,4.7354,4.7293,4.7172,4.7127,4.7231,4.7155,4.6627,4.6257,4.563,4.4456,4.3043,4.1771,4.0653,3.9376,3.8148,3.6888,3.6025,3.4917,3.3557,3.3057,3.2432,3.1476,3.0543,2.968,2.888,2.7806,2.6363,2.4609,2.2695,2.0998,1.9677,1.7455,1.5014,1.237,0.9886,0.7376,0.4932,0.333,0.1862,0.1173,0.7362,0.957,0.9645,1.6383,1.911,1.921,1.947,1.9889,2.0442,2.1135,2.1436,2.3276,3.4093,3.7618,3.6754,3.1598,3.0144,2.9157,2.4153,2.3122,2.3517,2.3583,2.3784,2.5423,3.107,3.2138,3.3615,3.9696,4.0726,4.0544,4.081,3.6439,3.2619,3.2453,2.8052,2.4484,2.4131,2.8383,3.133,3.0437,3.3486,3.5455,3.4906,3.3832,3.281,3.1973,3.1634,3.1204,3.0568,3.0433,3.0326,3.0036,3.0036,2.9946,2.9747,2.9747,2.9699,2.954,2.954,2.9665,2.9803,2.9974,3.0144,4.215,4.2405,4.2727,4.3269,4.3726,4.4214,4.482,4.5351,4.5763,4.5961,4.5952,4.5986,4.6278,4.648,4.6545,4.6428,4.6059,4.5407,4.4288,4.2782,4.1346,3.9945,3.8767,3.7567,3.6387,3.538,3.4446,3.3587,3.2712,3.1589,3.0305,2.916,2.79,2.6498,2.5051,2.293,2.0061,1.8086,1.6232,1.4699,1.3132,1.141,0.9567,0.7863,0.609,0.422,0.2257,0.0553,-0.0955,-0.0562,-0.085,-0.1476,-0.0416,0.0,0.0,0.0067,0.0468,0.0998,0.1725,0.2574,0.6647,2.7032,3.4169,3.2884,2.2154,1.9247,1.75,0.7208,0.4562,0.4769,0.4765,0.4699,0.7449,1.8619,2.1069,2.3881,3.5103,3.7348,3.7072,3.6838,2.8427,2.1304,2.1219,1.268,0.5729,0.5406,1.4139,2.0627,2.0099,2.9944,3.6692,3.6169,3.5155,3.4143,3.3252,3.2705,3.2065,3.1191,3.0984,3.0821,3.0702,3.0702,3.0568,3.0387,3.0387,3.0266,3.0172,3.0172,3.0172,3.0172,3.0462,3.0628,4.3749,4.4052,4.438,4.4819,4.467,4.4561,4.5105,4.551,4.5852,4.6039,4.5935,4.5745,4.5468,4.607,4.6341,4.5524,4.5439,4.5041,4.3773,4.2189,4.0706,3.952,3.8234,3.712,3.6387,3.5346,3.4291,3.3083,3.1776,3.0742,3.0022,2.853,2.6273,2.3268,2.1221,1.8843,1.6241,1.4236,1.191,0.9267,0.5079,0.078,-0.3723,-0.8406,-1.2745,-1.68,-1.912,-2.1231,-2.2305,-1.3541,-1.0489,-1.0421,-0.0992,0.2641,0.2481,0.2453,0.2646,0.3048,0.3634,0.4489,0.5928,0.9076,1.0274,1.032,0.8884,0.8317,0.7859,0.613,0.6096,0.6558,0.6708,0.7101,0.8075,1.0295,1.0674,1.1163,1.3195,1.3477,1.3294,1.325,1.1839,1.0712,1.0775,0.9503,0.8358,0.8049,0.9896,1.1115,1.0436,2.6932,3.8318,3.7329,3.6517,3.5513,3.4337,3.3419,3.2645,3.2139,3.1531,3.1176,3.1014,3.1014,3.0895,3.0702,3.0702,3.0642,3.0507,3.0507,3.0582,3.0702,3.0762,3.0984,4.5131,4.5521,4.576,4.5637,4.5549,4.5483,4.5456,4.5667,4.5901,4.603,4.5855,4.5556,4.5093,4.5383,4.55,4.4818,4.4576,4.415,4.3218,4.1723,4.0224,3.9,3.7691,3.6559,3.5777,3.4881,3.3946,3.2836,3.1538,3.0361,2.9304,2.6741,2.4074,2.1257,1.8792,1.6275,1.3712,1.1191,0.8452,0.5691,0.1493,-0.2589,-0.6586,-1.0979,-1.4911,-1.8561,-2.1144,-2.3453,-2.501,-2.0777,-1.9759,-2.043,-1.5476,-1.3865,-1.4305,-1.4386,-1.4212,-1.3917,-1.3179,-1.2344,-1.1531,-1.1545,-0.3283,0.5531,-0.0202,-0.1704,-0.2737,-0.8933,-1.0298,-0.9913,-0.9947,-0.9807,-0.8024,-0.1721,0.448,0.8948,0.8851,0.8851,0.8862,0.9018,0.4406,0.0563,0.0853,-0.381,-0.7521,-0.7573,-0.1961,0.2065,0.1857,1.6306,2.7344,2.9351,2.8318,2.9434,3.4122,3.3741,3.2786,3.1863,3.1601,3.1352,3.1058,3.1117,3.1176,3.1146,3.1146,3.1146,3.1087,3.1087,3.1087,3.1161,3.1219,3.1394,4.6201,4.6769,4.7032,4.646,4.6401,4.634,4.5789,4.5803,4.5937,4.595,4.5713,4.5349,4.4782,4.468,4.451,4.3932,4.3556,4.3071,4.2255,4.0939,3.9632,3.825,3.7049,3.591,3.4977,3.423,3.3471,3.2525,3.0949,2.9476,2.8061,2.4943,2.2161,1.9909,1.713,1.4392,1.1706,0.8674,0.5807,0.3011,-0.01,-0.3103,-0.58,-0.8943,-1.1732,-1.4322,-1.6879,-1.92,-2.1298,-2.3222,-2.4984,-2.6506,-2.7652,-2.8643,-2.9401,-2.9478,-2.9414,-2.9028,-2.8325,-2.745,-2.6479,-2.55,-1.3138,-0.0281,-0.9376,-1.1609,-1.2955,-2.2569,-2.5104,-2.4872,-2.5041,-2.5189,-2.2887,-1.3368,-0.3905,0.2929,0.2929,0.3008,0.3225,0.3515,-0.3552,-0.9428,-0.8904,-1.6012,-2.1748,-2.142,-1.2993,-0.6576,-0.6437,0.2276,1.0914,1.7324,1.9192,2.3576,3.2442,3.2858,3.2208,3.1319,3.13,3.1203,3.0937,3.1102,3.1278,3.1437,3.1702,3.1762,3.182,3.197,3.1955,3.182,3.195,3.1932,4.6761,4.7589,4.8215,4.7751,4.7204,4.6606,4.6022,4.593,4.5956,4.5835,4.5498,4.5036,4.4391,4.4151,4.3686,4.2479,4.2394,4.1911,4.0515,3.9612,3.862,3.719,3.6094,3.5074,3.4204,3.3348,3.25,3.1713,2.9198,2.7206,2.6239,2.3807,2.1328,1.8883,1.5906,1.2962,0.9857,0.7105,0.4316,0.1408,-0.0603,-0.2712,-0.502,-0.7018,-0.8992,-1.0835,-1.3025,-1.51,-1.715,-1.9315,-2.1201,-2.2804,-2.444,-2.5478,-2.6173,-2.6583,-2.6501,-2.6008,-2.55,-2.4661,-2.3564,-2.2621,-2.195,-2.1684,-2.2015,-2.1702,-2.1519,-2.2505,-2.2698,-2.2698,-2.2698,-2.2698,-2.2427,-2.1346,-2.0377,-1.9683,-1.9683,-1.9692,-1.9606,-1.935,-1.9444,-1.9323,-1.8604,-1.8387,-1.8202,-1.7804,-1.6104,-1.4838,-1.478,-1.3574,-0.834,0.3166,1.5136,2.4015,2.8325,2.9468,3.0161,3.0753,3.0372,3.0297,3.0602,3.0768,3.0955,3.1336,3.224,3.2732,3.2834,3.3499,3.3484,3.2834,3.2892,3.2616,4.7758,4.8789,4.932,4.8299,4.7905,4.7447,4.6235,4.5952,4.5878,4.5648,4.5194,4.4588,4.3762,4.3069,4.2314,4.1437,4.1073,4.0505,3.9477,3.8612,3.7572,3.6253,3.5047,3.3985,3.3079,3.2326,3.1228,2.9578,2.7564,2.5726,2.4286,2.2494,2.0352,1.788,1.4861,1.1798,0.8678,0.5805,0.3114,0.0705,-0.1309,-0.3022,-0.4329,-0.5932,-0.7422,-0.8795,-1.0445,-1.218,-1.4094,-1.6053,-1.7911,-1.9562,-2.1096,-2.2339,-2.3219,-2.3401,-2.3391,-2.3132,-2.2349,-2.1459,-2.039,-1.9406,-1.9191,-1.9512,-2.0676,-2.0622,-2.0099,-2.018,-2.0189,-2.0279,-2.0361,-2.0549,-2.0657,-2.0657,-2.0738,-2.0738,-2.0738,-2.0648,-2.0378,-2.0008,-1.9281,-1.8456,-1.7531,-1.6303,-1.5259,-1.438,-1.3414,-1.2635,-1.192,-1.1091,-0.7634,0.0,0.6779,1.465,2.4068,2.5814,2.6745,2.7724,2.8489,2.9166,2.9727,3.0183,3.0907,3.2041,3.2437,3.2989,3.3752,3.4086,3.3931,3.3242,3.3242,3.289,4.7808,4.8831,4.9374,4.8211,4.7983,4.7727,4.6329,4.5935,4.5734,4.5394,4.4794,4.4037,4.3045,4.1971,4.0984,4.011,3.9628,3.898,3.7967,3.7327,3.6397,3.5116,3.3901,3.2821,3.1877,3.1003,2.9625,2.7774,2.6103,2.4372,2.2674,2.0867,1.8991,1.6858,1.3814,1.0724,0.7592,0.4708,0.211,-0.0101,-0.1916,-0.3228,-0.4135,-0.5138,-0.6137,-0.7232,-0.8414,-0.9878,-1.1536,-1.3267,-1.4968,-1.6664,-1.8164,-1.9356,-2.0344,-2.0459,-2.0451,-2.0253,-1.9356,-1.8433,-1.7409,-1.639,-1.5455,-1.4968,-1.6642,-1.723,-1.7353,-1.7531,-1.7817,-1.8018,-1.8195,-1.848,-1.8672,-1.8672,-1.8672,-1.8672,-1.8672,-1.8495,-1.8218,-1.7747,-1.7102,-1.6264,-1.5222,-1.3974,-1.2818,-1.1638,-1.0663,-0.9583,-0.8598,-0.7208,-0.4999,-0.1294,0.1228,0.7251,1.8679,2.1114,2.276,2.4378,2.5893,2.7288,2.8426,2.9276,3.0488,3.2126,3.2665,3.3396,3.4439,3.4833,3.4539,3.3721,3.3721,3.3301,4.6421,4.7319,4.7979,4.7365,4.7264,4.71,4.6285,4.5889,4.5562,4.5016,4.4263,4.3351,4.2207,4.1021,3.9767,3.8253,3.7966,3.7346,3.5741,3.5543,3.5034,3.3467,3.2562,3.1625,3.0746,2.9279,2.7961,2.6743,2.5083,2.327,2.138,1.8939,1.7059,1.5718,1.2764,0.9563,0.6407,0.371,0.1207,-0.121,-0.232,-0.333,-0.4438,-0.4636,-0.5236,-0.6042,-0.6839,-0.8028,-0.9312,-1.0872,-1.2512,-1.4136,-1.5569,-1.6619,-1.7382,-1.7848,-1.7755,-1.7289,-1.6706,-1.5853,-1.4918,-1.3866,-1.3006,-1.2242,-1.1853,-1.3091,-1.4715,-1.5007,-1.5596,-1.619,-1.619,-1.6386,-1.6588,-1.6588,-1.6588,-1.6588,-1.6588,-1.6588,-1.6487,-1.5893,-1.5425,-1.4663,-1.3312,-1.2257,-1.1189,-0.9805,-0.8715,-0.773,-0.6942,-0.5434,-0.3823,-0.2113,0.02,0.4553,1.2009,1.5385,1.8249,2.0916,2.2532,2.4401,2.6656,2.8147,2.9611,3.1142,3.3006,3.4222,3.4971,3.5797,3.5569,3.446,3.446,3.3924,4.6628,4.7491,4.8154,4.7498,4.7318,4.7066,4.6157,4.5641,4.517,4.4549,4.3633,4.2594,4.1419,4.0163,3.8826,3.7393,3.7109,3.6494,3.4878,3.4618,3.3985,3.2562,3.0991,2.976,2.9128,2.8081,2.6711,2.5297,2.372,2.2035,2.0188,1.7707,1.5765,1.4404,1.1604,0.8576,0.5311,0.261,0.0201,-0.2014,-0.3327,-0.4236,-0.4939,-0.5039,-0.5338,-0.5734,-0.596,-0.6709,-0.7868,-0.8905,-1.0171,-1.1594,-1.3063,-1.4066,-1.4839,-1.5321,-1.5399,-1.5114,-1.4447,-1.3674,-1.2813,-1.1745,-1.0676,-0.9801,-0.9509,-1.0769,-1.242,-1.3006,-1.359,-1.4178,-1.4567,-1.4867,-1.5057,-1.5057,-1.5057,-1.5057,-1.5057,-1.5057,-1.4962,-1.4567,-1.4196,-1.3721,-1.2754,-1.178,-1.0699,-0.9509,-0.8226,-0.7135,-0.6342,-0.5336,-0.423,-0.292,-0.1609,0.1497,0.7514,1.0412,1.3076,1.5797,1.8335,2.0944,2.3657,2.6094,2.8598,3.1199,3.2667,3.4044,3.5513,3.5963,3.5814,3.5137,3.4315,3.3836,4.6265,4.6946,4.7407,4.701,4.6835,4.6585,4.5839,4.5276,4.4687,4.3911,4.2903,4.1766,4.0449,3.9166,3.7815,3.64,3.5999,3.5378,3.3914,3.3587,3.2895,3.1258,2.9749,2.8571,2.8019,2.7002,2.5744,2.437,2.2674,2.09,1.9004,1.6727,1.4632,1.2882,1.0338,0.7486,0.421,0.1506,-0.0905,-0.3019,-0.423,-0.5039,-0.5541,-0.5438,-0.5418,-0.5577,-0.5317,-0.5654,0.0,-0.7237,-0.8131,-0.9165,-1.059,-1.1624,-1.2277,-1.2813,-1.3025,-1.2915,-1.2441,-1.1663,-1.0779,-0.9797,-0.8814,-0.7829,-0.7733,-0.9011,-1.0685,-1.137,-1.2155,-1.284,-1.3329,-1.3624,-1.3913,-1.401,-1.401,-1.401,-1.401,-1.401,-1.3913,-1.3619,-1.3437,-1.305,-1.2273,-1.1487,-1.0502,-0.9414,-0.8226,-0.7235,-0.6539,-0.5739,-0.4935,-0.4228,-0.3521,-0.1603,0.2193,0.536,0.8297,1.088,1.3608,1.6649,2.0104,2.3381,2.6712,3.0095,3.1982,3.3794,3.5453,3.5766,3.5815,3.546,3.457,3.4229,0.0,4.5862,4.6027,4.6072,4.5972,4.5755,4.5353,4.4789,0.0,4.313,4.2092,4.0931,3.9393,3.8076,3.6767,3.535,3.4825,3.4169,3.3001,3.2663,3.1789,2.9749,2.885,2.8113,2.7357,2.6189,2.4996,2.3822,2.199,2.0011,1.8149,1.6069,1.3765,1.1225,0.9053,0.6388,0.321,0.0502,-0.1908,-0.4024,-0.5131,-0.5837,-0.6042,-0.5739,-0.5582,-0.5486,-0.4888,-0.4929,-0.5317,-0.5771,-0.6324,-0.6973,-0.8203,-0.9055,-0.9776,-1.0464,-1.0692,-1.0663,-1.0578,-0.9891,-0.8901,-0.8107,-0.7114,-0.6323,-0.6334,-0.7723,-0.9608,-1.0113,-1.1096,-1.198,-1.2565,-1.2856,-1.3147,-1.3346,-1.3443,-1.3443,-1.3443,-1.3443,-1.3443,-1.3147,-1.3147,-1.2759,-1.1878,-1.1389,-1.0797,-0.9513,-0.8619,-0.7925,-0.7335,-0.6639,-0.6039,-0.5737,-0.5329,-0.4622,-0.3518,0.04,0.3783,0.6134,0.8362,1.1482,1.5555,1.9295,2.2898,2.6354,2.9901,3.2867,3.5171,3.5416,3.5613,3.5598,3.5183,3.4971,4.4657,0.0,4.6078,4.6039,4.5802,4.5467,0.0,0.0,0.0,0.0,0.0,0.0,3.8553,3.7259,3.6052,3.5127,3.4548,3.3887,3.2924,3.1638,3.0476,2.9577,2.8653,2.7904,2.7241,2.5979,2.461,2.3251,2.1617,1.9832,1.8187,1.5886,1.3582,1.1101,0.8101,0.5225,0.261,-0.0099,-0.2579,-0.4632,-0.5734,-0.6437,-0.6939,-0.6239,-0.578,-0.5475,-0.453,-0.4073,-0.4087,-0.4201,-0.4533,-0.5079,-0.6073,-0.6771,-0.7382,-0.8277,-0.8787,-0.8829,-0.8627,-0.824,-0.7657,-0.6198,-0.5515,-0.5136,-0.5112,-0.6531,-0.8223,-0.892,-0.9912,-1.0904,-1.1487,-1.2078,-1.2565,-1.2662,-1.2861,-1.3055,-1.3152,-1.3147,-1.3249,-1.3346,-1.3244,-1.2953,-1.2565,-1.198,-1.1292,-1.0507,-0.9612,-0.8821,-0.8428,-0.7935,-0.7437,-0.7132,-0.703,-0.6628,-0.6024,-0.2802,0.0,0.1792,0.3554,0.5158,0.6768,0.7465,0.8269,0.9118,1.7878,2.7053,3.6429,3.6613,3.6644,3.6628,3.6107,3.5896,4.2513,4.5054,4.6014,4.5898,4.5538,4.5036,4.4386,0.0,0.0,0.0,0.0,0.0,3.7758,3.6384,3.5273,3.4667,3.401,3.3265,3.2381,3.1192,3.0125,2.9393,2.8746,2.8092,2.7336,2.5977,2.4668,2.342,2.1552,1.9752,1.8365,1.5939,1.3526,1.1213,0.7907,0.478,0.1858,-0.0872,-0.341,-0.5464,-0.655,-0.7276,-0.7537,-0.6682,-0.5999,-0.5209,-0.3976,-0.325,-0.2822,-0.2699,-0.2685,-0.2955,-0.3707,-0.4381,-0.4982,-0.6032,-0.6691,-0.7031,-0.7124,-0.6745,-0.6173,-0.4927,-0.4473,-0.4317,-0.4561,-0.5596,-0.6933,-0.8124,-0.9217,-1.0207,-1.0998,-1.1683,-1.2273,-1.237,-1.2667,-1.2953,-1.305,-1.3249,-1.3346,-1.3443,-1.3346,-1.3152,-1.2861,-1.2467,-1.1883,-1.1292,-1.06,-1.0006,-0.9715,-0.9324,-0.9027,-0.892,-0.892,-0.8718,-0.8315,-0.6697,-0.4692,-0.2497,-0.119,-0.0098,0.1041,0.1484,0.1987,0.2427,0.8042,1.6656,2.834,2.8577,3.1657,3.721,3.6951,3.6911,3.8384,4.3351,4.5738,4.5656,4.5216,4.4588,4.3744,0.0,0.0,0.0,0.0,0.0,3.6935,3.5688,3.4661,3.4211,3.3409,3.2623,3.1879,3.1116,3.0306,2.9393,2.9035,2.8477,2.7547,2.6136,2.4874,2.397,2.1816,1.9911,1.8611,1.6239,1.3827,1.1531,0.8195,0.4796,0.122,-0.1603,-0.4111,-0.6352,-0.7421,-0.799,-0.8131,-0.7198,-0.6195,-0.5034,-0.3542,-0.2376,-0.1615,-0.1256,-0.0987,-0.0896,-0.1523,-0.2171,-0.2847,-0.3869,-0.4661,-0.5294,-0.5766,-0.5474,-0.4716,-0.4069,-0.3938,-0.3905,-0.4309,-0.4963,-0.5934,-0.7528,-0.8715,-0.9805,-1.09,-1.1585,-1.2175,-1.237,-1.2856,-1.3244,-1.3244,-1.3539,-1.3732,-1.3732,-1.3636,-1.3539,-1.3147,-1.2958,-1.2565,-1.1975,-1.1585,-1.1292,-1.1096,-1.0806,-1.0609,-1.0609,-1.0703,-1.06,-1.0391,-1.0391,-0.9387,-0.6994,-0.5879,-0.516,-0.4721,-0.4044,-0.2692,-0.0585,-0.0948,0.4433,1.5802,1.6146,2.1738,3.1915,3.208,3.2124,2.9618,3.7402,4.4764,4.5235,4.4838,4.4055,4.3133,0.0,0.0,0.0,0.0,3.7172,3.5993,3.5303,3.4811,3.4189,3.3485,3.2744,3.2052,3.1193,3.0487,3.0034,2.9301,2.8664,2.8301,2.6608,2.524,2.4496,2.2616,2.0889,1.9438,1.715,1.4734,1.2124,0.8584,0.4996,0.1436,-0.1555,-0.4237,-0.6637,-0.7907,-0.8575,-0.8623,-0.7583,-0.6283,-0.5027,-0.3166,-0.1827,-0.0807,0.0,0.0359,0.0359,0.009,-0.0449,-0.1173,-0.2295,-0.3144,-0.38,-0.4545,-0.4497,-0.4085,-0.3968,-0.3953,-0.3938,-0.4489,-0.5064,-0.5934,-0.7229,-0.8421,-0.9513,-1.0605,-1.1585,-1.237,-1.2662,-1.3238,-1.3811,-1.4106,-1.4304,-1.4592,-1.4796,-1.4496,-1.4106,-1.4106,-1.3534,-1.305,-1.2856,-1.2467,-1.2175,-1.2175,-1.1883,-1.178,-1.178,-1.1868,-1.195,-1.195,-1.2145,-1.2334,-1.2318,-1.064,-1.1645,-1.6059,-1.8565,-1.6555,-0.9571,-1.1055,-0.6444,0.4731,0.4553,0.5325,0.6984,0.6934,0.6911,2.5077,3.5015,4.3479,4.3727,4.3759,4.3426,4.2345,0.0,0.0,0.0,3.7642,3.6538,3.5578,3.5015,3.4492,3.3842,3.3424,3.2945,3.2077,3.156,3.1026,3.0487,2.9943,2.9293,2.8671,2.7179,2.5951,2.5155,2.3368,2.1774,2.0709,1.815,1.5631,1.3243,0.9446,0.5716,0.2042,-0.1166,-0.4127,-0.6907,-0.8222,-0.8829,-0.8784,-0.7753,-0.6314,-0.4645,-0.2667,-0.0994,0.0359,0.1166,0.1704,0.1882,0.1524,0.0987,0.0269,-0.145,-0.2544,-0.3361,-0.3997,-0.4154,-0.4129,-0.4166,-0.4147,-0.4235,-0.4892,-0.5375,-0.6057,-0.7412,-0.8528,-0.9414,-1.0507,-1.1585,-1.2467,-1.2856,-1.3528,-1.4196,-1.4675,-1.4867,-1.5159,-1.5452,-1.5159,-1.4867,-1.4771,-1.4298,-1.3919,-1.3721,-1.3528,-1.3431,-1.3431,-1.3431,-1.3431,-1.3431,-1.3703,-1.3884,-1.3986,-1.4082,-1.4082,-1.3986,-1.3772,-1.5388,-1.9136,-2.185,-2.2294,-2.036,-2.2173,-1.7687,-0.6747,-0.7122,-0.4001,0.2376,0.2167,0.2096,1.9654,3.2051,4.236,4.2219,4.2608,4.2686,0.0,0.0,0.0,3.8203,3.7218,3.6304,3.5533,3.4824,3.43,3.3817,3.3527,3.3129,3.2351,3.1913,3.1484,3.0937,3.0487,2.993,2.9059,2.7944,2.6932,2.5913,2.4313,2.2969,2.1998,1.9261,1.6768,1.4477,1.0644,0.6786,0.3011,-0.0443,-0.3773,-0.7083,-0.854,-0.9071,-0.8901,-0.7914,-0.6241,-0.4237,-0.218,-0.0358,0.1256,0.2063,0.269,0.3047,0.2601,0.1884,0.0897,-0.0987,-0.2332,-0.3315,-0.3851,-0.4297,-0.4654,-0.4743,-0.4811,-0.5005,-0.5672,-0.6069,-0.6675,-0.7895,-0.8924,-0.9809,-1.0703,-1.178,-1.2754,-1.334,-1.4106,-1.4777,-1.5343,-1.5629,-1.5825,-1.6109,-1.5913,-1.5629,-1.5432,-1.5159,-1.4879,-1.4682,-1.4675,-1.4771,-1.4771,-1.4968,-1.5159,-1.5255,-1.5439,-1.5717,-1.6089,-1.6177,-1.6075,-1.5582,-1.6287,-1.7754,-2.0105,-2.2078,-2.4604,-2.7548,-2.9374,-2.6371,-1.8337,-1.8755,-1.419,-0.5163,-0.5394,-0.5512,1.0065,2.5901,4.1681,4.1356,4.174,0.0,4.0418,3.9644,3.8953,3.801,3.7375,3.6788,3.597,3.5099,3.4513,3.464,3.3953,3.3313,3.3068,3.2276,3.1661,3.1661,3.1026,3.038,2.9781,2.8813,2.788,2.6874,2.5711,2.4312,2.2774,2.0659,1.8277,1.5726,1.2026,0.8261,0.4504,0.0707,-0.3224,-0.7077,-0.8721,-0.9376,-0.9003,-0.7959,-0.6191,-0.4058,-0.1715,0.009,0.1436,0.2599,0.3317,0.3497,0.3227,0.2061,0.0359,-0.0987,-0.2152,-0.3317,-0.4302,-0.5102,-0.563,-0.5902,-0.6166,-0.6477,-0.6982,-0.7498,-0.8225,-0.8875,-0.9912,-1.0801,-1.1389,-1.2452,-1.3613,-1.4394,-1.5166,-1.5825,-1.6393,-1.6683,-1.6972,-1.7145,-1.6864,-1.6487,-1.6487,-1.6015,-1.573,-1.5737,-1.5913,-1.6096,-1.6096,-1.6292,-1.6574,-1.6749,-1.6943,-1.7412,-1.8149,-1.8603,-1.8964,-1.9155,-1.8709,-1.9289,-2.1148,-2.2922,-2.4805,-2.6729,-2.8558,-2.958,-2.9751,-3.0121,-3.0045,-2.9542,-2.9984,-3.014,0.6681,2.3256,4.0084,3.8788,3.87,0.0,0.0,3.8717,3.7904,3.7547,3.6852,3.6187,3.5677,3.4977,3.454,3.4706,3.423,3.3654,3.3167,3.281,3.2463,3.2213,3.1472,3.079,3.024,2.9209,2.8263,2.7483,2.6534,2.5395,2.4075,2.2241,1.9942,1.7203,1.3789,1.0137,0.6162,0.238,-0.1333,-0.4954,-0.7629,-0.873,-0.8452,-0.7438,-0.5744,-0.3408,-0.1353,0.0447,0.2151,0.3048,0.3587,0.3678,0.2871,0.1614,0.0,-0.1165,-0.2508,-0.3849,-0.5097,-0.5983,-0.6688,-0.7224,-0.7531,-0.7875,-0.8223,-0.8594,-0.8885,-0.9744,-1.0601,-1.1409,-1.1745,-1.2646,-1.3703,-1.4675,-1.5534,-1.6197,-1.6864,-1.7246,-1.7535,-1.7707,-1.7527,-1.7246,-1.7246,-1.6958,-1.677,-1.677,-1.6943,-1.7131,-1.7131,-1.7591,-1.7963,-1.8048,-1.8711,-1.9363,-1.972,-2.0257,-2.0619,-2.0881,-2.0173,-2.0421,-2.1876,-2.3183,-2.4666,-2.6366,-2.7681,-2.8821,-2.9614,-3.0012,-3.0304,-3.0594,-3.1057,-3.122,0.3522,1.9703,3.6134,3.5218,0.0,0.0,3.7184,3.7216,3.7022,3.7039,3.6519,3.6005,3.5659,3.5113,3.4687,3.4828,3.441,3.3907,3.3496,3.3326,3.3006,3.2401,3.1798,3.1113,3.0297,2.9496,2.8726,2.8179,2.7359,2.6404,2.5256,2.3583,2.1469,1.8769,1.5734,1.2236,0.8229,0.4393,0.0795,-0.2667,-0.5592,-0.7185,-0.7649,-0.6694,-0.5045,-0.2829,-0.099,0.0806,0.242,0.3138,0.3497,0.3318,0.2332,0.1076,-0.0359,-0.1612,-0.2953,-0.4472,-0.5888,-0.6949,-0.783,-0.8544,-0.8894,-0.9192,-0.9566,-0.9714,-0.9967,-1.058,-1.1387,-1.2052,-1.2406,-1.3171,-1.4094,-1.5057,-1.5913,-1.6676,-1.7512,-1.7893,-1.8187,-1.8558,-1.8365,-1.8179,-1.8179,-1.7986,-1.7792,-1.7792,-1.7978,-1.8156,-1.8249,-1.8888,-1.9347,-1.9704,-2.0447,-2.1087,-2.1338,-2.1793,-2.2157,-2.2306,-2.1876,-2.1936,-2.2755,-2.3519,-2.4609,-2.5935,-2.6835,-2.7649,-2.8315,-2.8542,-2.8846,-2.9069,-2.9381,-2.9537,-0.0235,1.4556,2.9537,3.0739,0.0,3.2707,3.3751,3.522,3.643,3.6453,3.6452,3.6312,3.6152,3.5562,3.5059,3.5059,3.4481,3.4063,3.4063,3.3713,3.3085,3.2265,3.2047,3.1373,3.004,2.9942,2.9616,2.8828,2.8161,2.7245,2.6077,2.4511,2.2688,2.0623,1.7729,1.4482,1.0874,0.691,0.3172,-0.0355,-0.2582,-0.4727,-0.6782,-0.5745,-0.428,-0.2412,-0.0448,0.1076,0.2243,0.2959,0.2956,0.2418,0.1704,0.0538,-0.0896,-0.206,-0.358,-0.5186,-0.6596,-0.7918,-0.9065,-0.968,-1.0202,-1.0681,-1.082,-1.1069,-1.1384,-1.1603,-1.2117,-1.2875,-1.3339,-1.4099,-1.4879,-1.5635,-1.6407,-1.7254,-1.8265,-1.8635,-1.8928,-1.9496,-1.9387,-1.9188,-1.9188,-1.9012,-1.8827,-1.8827,-1.9004,-1.9279,-1.9554,-2.0011,-2.0645,-2.1606,-2.2157,-2.2599,-2.3096,-2.3396,-2.358,-2.38,-2.4069,-2.3993,-2.3503,-2.3993,-2.4584,-2.5443,-2.5946,-2.6528,-2.7185,-2.7185,-2.7418,-2.781,-2.781,-2.7879,-0.2652,1.0723,2.4202,2.584,2.7471,2.9056,3.0514,3.2641,3.4554,3.5353,3.5235,3.5006,3.4794,3.4126,3.3595,3.3595,3.3356,3.3047,3.2885,3.2804,3.2577,3.2141,3.1703,3.1255,3.0846,3.0388,2.9767,2.9113,2.871,2.7901,2.6493,2.5775,2.4306,2.206,1.9801,1.6934,1.324,0.9482,0.579,0.2303,0.0,-0.2496,-0.5001,-0.4408,-0.3147,-0.1431,-0.0179,0.1076,0.2243,0.2423,0.2153,0.1613,0.0717,-0.0359,-0.1614,-0.2955,-0.4469,-0.598,-0.757,-0.8973,-1.0197,-1.0895,-1.1585,-1.2118,-1.2106,-1.2215,-1.236,-1.262,-1.3016,-1.3609,-1.4161,-1.4981,-1.5758,-1.625,-1.7059,-1.7994,-1.855,-1.9196,-1.9654,-1.9754,-1.9928,-2.0019,-2.0019,-1.9928,-1.9837,-1.9837,-2.0102,-2.0555,-2.1275,-2.1633,-2.2167,-2.3038,-2.3309,-2.3657,-2.4327,-2.4433,-2.4605,-2.5009,-2.5263,-2.5009,-2.4251,-2.468,-2.502,-2.5274,-2.5717,-2.5884,-2.5768,-2.5946,-2.6019,-2.6008,-2.6163,-2.6235,-0.5597,0.5933,1.7483,2.0437,2.3124,2.5611,2.8128,3.0914,3.3106,3.3885,3.4007,3.3926,3.3794,3.3317,3.2988,3.2988,3.2922,3.2765,3.2698,3.2712,3.262,3.2136,3.172,3.1423,3.1126,3.052,2.9982,2.9609,2.9027,2.8248,2.7256,2.6677,2.5445,2.3627,2.1665,1.9114,1.5805,1.2284,0.8729,0.5292,0.2837,0.0445,-0.1874,-0.2413,-0.1878,-0.0627,0.0358,0.1256,0.1974,0.1705,0.1345,0.0718,-0.0179,-0.1255,-0.251,-0.3849,-0.5272,-0.6691,-0.836,-0.9758,-1.1068,-1.1929,-1.2619,-1.313,-1.33,-1.3379,-1.3417,-1.3687,-1.3983,-1.4434,-1.498,-1.5825,-1.6557,-1.6692,-1.7512,-1.835,-1.9004,-1.9654,-2.011,-2.0283,-2.0464,-2.0555,-2.0555,-2.0555,-2.0555,-2.0555,-2.0826,-2.1374,-2.2274,-2.2618,-2.3232,-2.4176,-2.4348,-2.469,-2.5443,-2.5527,-2.5779,-2.6279,-2.6445,-2.634,-2.5819,-2.5684,-2.5538,-2.5464,-2.5633,-2.5549,-2.52,-2.502,-2.4935,-2.4765,-2.4648,-2.4638,-0.8609,0.0728,1.0075,1.487,1.8916,2.2727,2.6384,2.9472,3.1694,3.2156,3.2646,3.287,3.2961,3.2895,3.2843,3.2829,3.2843,3.2829,3.2843,3.3012,3.2904,3.2117,3.2051,3.1777,3.1114,3.0537,3.0184,3.0131,2.9083,2.836,2.8183,2.7267,2.6333,2.5169,2.3341,2.1085,1.8417,1.5153,1.182,0.8422,0.5829,0.3735,0.1969,0.0,-0.0537,0.0179,0.0987,0.1525,0.1705,0.0897,0.0359,-0.0179,-0.1076,-0.2152,-0.3405,-0.4652,-0.5985,-0.7401,-0.9061,-1.0366,-1.1585,-1.2699,-1.3392,-1.3899,-1.4314,-1.4475,-1.4566,-1.4734,-1.5036,-1.5432,-1.6001,-1.6766,-1.7371,-1.7331,-1.7878,-1.8711,-1.9546,-2.0102,-2.0555,-2.0997,-2.1078,-2.1087,-2.1087,-2.1087,-2.1087,-2.1087,-2.1454,-2.2087,-2.2803,-2.3329,-2.4013,-2.4946,-2.52,-2.5695,-2.6528,-2.661,-2.6857,-2.751,-2.7603,-2.7742,-2.7879,-2.6835,-2.6207,-2.5979,-2.5706,-2.5359,-2.5115,-2.4423,-2.4069,-2.3983,-2.327,-2.3096,-0.9419,-0.2158,0.524,1.04,1.6446,2.1655,2.3993,2.6162,2.841,3.0847,3.1343,3.1446,3.1772,3.1499,3.1276,3.1642,3.1642,3.1717,3.1894,3.1907,3.1929,3.1721,3.1708,3.1742,3.1683,3.1122,3.0646,3.0387,2.9591,2.8973,2.8542,2.7974,2.7351,2.6501,2.4897,2.2867,2.0419,1.7368,1.409,1.0745,0.8281,0.5951,0.3933,0.1698,0.0806,0.1076,0.1166,0.1166,0.1166,0.0448,-0.009,-0.0628,-0.1615,-0.2602,-0.3676,-0.5008,-0.6337,-0.7665,-0.924,-1.0717,-1.2015,-1.296,-1.3808,-1.4566,-1.5061,-1.5318,-1.5477,-1.5726,-1.6293,-1.6893,-1.7321,-1.8202,-1.9003,-1.9257,-1.9446,-1.9737,-2.0275,-2.0916,-2.1463,-2.182,-2.1989,-2.2078,-2.1909,-2.182,-2.182,-2.182,-2.2264,-2.2794,-2.3493,-2.4176,-2.4935,-2.5863,-2.6102,-2.6528,-2.7185,-2.7418,-2.7661,-2.8007,-2.8486,-2.8724,-2.8554,-2.7753,-2.7021,-2.6693,-2.6102,-2.5432,-2.4669,-2.4003,-2.3309,-2.2784,-2.2227,-2.1676,-0.9887,-0.394,0.2477,0.9631,1.5264,1.9735,2.2017,2.3968,2.6012,2.8374,2.9604,3.0325,3.0649,3.0663,3.0773,3.1136,3.1286,3.1508,3.1817,3.195,3.2009,3.2082,3.2155,3.2046,3.1905,3.1332,3.087,3.0321,2.9835,2.9352,2.9113,2.8702,2.8222,2.7604,2.6202,2.4376,2.2211,1.9453,1.6411,1.3136,1.0444,0.753,0.4385,0.2508,0.1613,0.1615,0.1256,0.0987,0.0897,0.0269,-0.0359,-0.0987,-0.1884,-0.2869,-0.3941,-0.5361,-0.6599,-0.7925,-0.9589,-1.1068,-1.2357,-1.347,-1.4482,-1.5318,-1.5974,-1.6312,-1.6558,-1.7041,-1.7623,-1.8246,-1.8615,-1.9427,-2.0166,-2.0613,-2.0628,-2.0555,-2.0907,-2.1454,-2.2008,-2.2185,-2.2353,-2.2353,-2.2097,-2.2097,-2.2185,-2.2362,-2.2803,-2.3406,-2.4176,-2.4935,-2.5695,-2.6456,-2.6775,-2.7267,-2.7926,-2.8075,-2.8407,-2.8907,-2.9221,-2.9456,-2.9574,-2.904,-2.8303,-2.7499,-2.6753,-2.5935,-2.5009,-2.4003,-2.3057,-2.2246,-2.1248,-2.0331,-1.007,-0.4788,0.155,0.9749,1.4279,1.7283,2.0112,2.2299,2.417,2.5797,2.7706,2.9263,2.9702,3.0241,3.0698,3.0986,3.1373,3.1743,3.2169,3.2359,3.2489,3.2704,3.2692,3.2429,3.1986,3.1455,3.0974,3.0429,3.0017,2.9789,2.9789,2.9477,2.9022,2.856,2.7324,2.5693,2.3727,2.1288,1.8452,1.5173,1.1821,0.8225,0.4476,0.3048,0.2243,0.1884,0.1345,0.0987,0.0718,0.0269,-0.0359,-0.1076,-0.1794,-0.278,-0.3937,-0.5447,-0.6776,-0.8009,-0.9937,-1.1327,-1.2619,-1.3971,-1.4985,-1.5906,-1.6886,-1.7302,-1.7725,-1.8423,-1.8965,-1.952,-2.0072,-2.0734,-2.13,-2.1799,-2.1704,-2.1445,-2.1624,-2.1998,-2.2362,-2.253,-2.253,-2.2353,-2.2185,-2.2097,-2.2274,-2.2715,-2.3232,-2.3927,-2.4861,-2.5611,-2.6373,-2.6974,-2.7371,-2.7846,-2.8431,-2.859,-2.8907,-2.9702,-2.9856,-3.0075,-3.052,-3.0305,-2.9677,-2.853,-2.7568,-2.6599,-2.5622,-2.4262,-2.3047,-2.1961,-2.052,-1.9147,-1.0192,-0.3756,0.3217,0.8019,1.1728,1.4922,1.798,2.0523,2.2785,2.4392,2.6483,2.8291,2.9263,2.9831,3.0381,3.1123,3.1447,3.1817,3.2286,3.2417,3.2561,3.2917,3.2472,3.2263,3.2506,3.1593,3.1076,3.1131,3.0701,3.0462,3.0462,3.0129,2.9837,2.9415,2.8208,2.6667,2.4956,2.2572,1.9811,1.6571,1.1305,0.7552,0.5181,0.3941,0.296,0.2064,0.1436,0.1076,0.0987,0.0538,0.0,-0.0628,-0.1525,-0.242,-0.3494,-0.5184,-0.6514,-0.7837,-0.968,-1.1241,-1.2619,-1.3971,-1.5151,-1.6252,-1.7066,-1.7708,-1.8414,-1.948,-2.0282,-2.1024,-2.1684,-2.2284,-2.2804,-2.2853,-2.3047,-2.3144,-2.296,-2.3144,-2.3329,-2.3329,-2.2882,-2.2353,-2.2353,-2.2185,-2.2274,-2.2715,-2.357,-2.4423,-2.5274,-2.6207,-2.7056,-2.7719,-2.795,-2.8179,-2.851,-2.8816,-2.9118,-2.9431,-2.9985,-3.052,-3.0911,-3.0698,-3.0457,-3.0126,-2.8518,-2.7162,-2.6102,-2.4573,-2.3105,-2.1695,-2.0059,-1.8403,-0.8387,-0.3144,0.1901,0.567,0.9116,1.2324,1.5384,1.8218,2.074,2.2746,2.4607,2.6483,2.8199,2.9172,2.9973,3.0672,3.1272,3.179,3.2345,3.2717,3.3016,3.3297,3.2942,3.2553,3.2397,3.1809,3.1271,3.1047,3.0982,3.094,3.0881,3.0673,3.0372,2.9898,2.8853,2.7485,2.5669,2.3402,1.9841,1.5007,1.0898,0.7819,0.5714,0.4297,0.3139,0.2334,0.1885,0.1705,0.1705,0.1345,0.0897,0.0359,-0.0628,-0.1792,-0.3045,-0.4645,-0.6245,-0.7749,-0.968,-1.1322,-1.2772,-1.4139,-1.5477,-1.6804,-1.7619,-1.8574,-1.9435,-2.0429,-2.1443,-2.2246,-2.276,-2.3393,-2.3907,-2.4079,-2.4176,-2.4262,-2.4262,-2.3917,-2.3667,-2.3503,-2.2882,-2.2441,-2.2618,-2.2539,-2.2715,-2.3232,-2.4176,-2.5105,-2.5946,-2.6787,-2.7452,-2.803,-2.8271,-2.8419,-2.8657,-2.8895,-2.9287,-2.9741,-3.0203,-3.0596,-3.0986,-3.0849,-3.0444,-3.0024,-2.8846,-2.7557,-2.6329,-2.4638,-2.2911,-2.123,-1.9314,-1.7274,-0.7069,-0.3361,-0.0177,0.3339,0.6603,0.9788,1.2888,1.5854,1.8548,2.0704,2.263,2.4457,2.6461,2.8108,2.9341,3.0126,3.096,3.1703,3.2345,3.2874,3.3325,3.3433,3.3174,3.2724,3.2217,3.1827,3.1439,3.1028,3.1278,3.1409,3.1307,3.1219,3.0851,3.0312,2.9421,2.8025,2.6164,2.3318,1.9201,1.3935,1.0989,0.8424,0.6334,0.4652,0.3587,0.2871,0.2424,0.2333,0.2332,0.2153,0.1793,0.1256,0.0269,-0.0986,-0.2327,-0.4109,-0.5797,-0.7482,-0.941,-1.1225,-1.2845,-1.4223,-1.5726,-1.7123,-1.7934,-1.9021,-2.0179,-2.1176,-2.2234,-2.3177,-2.3709,-2.424,-2.4754,-2.5031,-2.5031,-2.5031,-2.5115,-2.4519,-2.3927,-2.359,-2.3057,-2.2618,-2.2794,-2.2794,-2.3057,-2.3667,-2.468,-2.5695,-2.6539,-2.7267,-2.7846,-2.8259,-2.8431,-2.8578,-2.8724,-2.8895,-2.9287,-2.9908,-3.0139,-3.0457,-3.0911,-3.0685,-3.0216,-2.9549,-2.8585,-2.7452,-2.6235,-2.4372,-2.2541,-2.0584,-1.8288,-1.6142,-0.7474,-0.4999,-0.2252,0.1236,0.423,0.7238,1.0711,1.3689,1.6294,1.8507,2.066,2.26,2.3998,2.6449,2.853,2.9793,3.0596,3.1347,3.2273,3.2775,3.3045,3.313,3.2789,3.2373,3.2027,3.1708,3.1524,3.1495,3.1796,3.194,3.194,3.1682,3.1248,3.0777,2.9794,2.8414,2.6574,2.1784,1.7869,1.4759,1.1923,0.9287,0.7034,0.5539,0.4563,0.376,0.2869,0.2602,0.2868,0.2868,0.2599,0.2064,0.1076,-0.009,-0.1431,-0.331,-0.5001,-0.6766,-0.8877,-1.0783,-1.2583,-1.4216,-1.565,-1.6894,-1.7708,-1.894,-2.0235,-2.1535,-2.2629,-2.3668,-2.4618,-2.5009,-2.52,-2.5454,-2.5454,-2.5369,-2.5031,-2.47,-2.4368,-2.3841,-2.3396,-2.2969,-2.2803,-2.2969,-2.3232,-2.3754,-2.502,-2.6113,-2.6798,-2.7615,-2.8259,-2.8431,-2.851,-2.851,-2.851,-2.8724,-2.9028,-2.9419,-2.9689,-3.0088,-3.0698,-3.0318,-2.9819,-2.916,-2.7567,-2.6345,-2.5568,-2.3654,-2.163,-1.9497,-1.726,-1.5,-0.8535,-0.6404,-0.4059,-0.1038,0.1764,0.4585,0.7598,1.058,1.3308,1.5479,1.7666,1.9696,2.1334,2.4668,2.7464,2.8609,2.9793,3.0859,3.1663,3.2203,3.2664,3.2925,3.2513,3.2112,3.1999,3.1679,3.1582,3.1697,3.1883,3.194,3.1898,3.1347,3.0753,3.0032,2.8669,2.6617,2.3863,2.0777,1.7806,1.4954,1.2116,0.9643,0.7478,0.5977,0.4919,0.4389,0.3853,0.3674,0.3762,0.3762,0.3583,0.3135,0.206,0.0806,-0.0626,-0.2683,-0.4643,-0.6508,-0.8615,-1.0529,-1.2345,-1.3964,-1.547,-1.691,-1.8215,-1.9469,-2.08,-2.2148,-2.3173,-2.4152,-2.4904,-2.5285,-2.5559,-2.5895,-2.6052,-2.6124,-2.5779,-2.5189,-2.47,-2.4282,-2.3667,-2.3135,-2.3406,-2.3493,-2.3831,-2.4605,-2.5611,-2.6599,-2.7336,-2.8007,-2.8498,-2.8816,-2.8736,-2.8724,-2.8724,-2.8724,-2.8961,-2.9197,-2.9443,-2.9664,-2.9896,-2.9509,-2.8779,-2.7626,-2.6075,-2.4893,-2.431,-2.2299,-2.0172,-1.8003,-1.5745,-1.3454,-0.9602,-0.7736,-0.5782,-0.3217,-0.0692,0.1941,0.4587,0.7417,1.0182,1.2399,1.4559,1.657,1.8385,2.1419,2.4511,2.6818,2.853,2.9834,3.0647,3.1378,3.1847,3.198,3.1781,3.1638,3.1615,3.1427,3.1409,3.1597,3.1754,3.1721,3.1411,3.0904,2.9994,2.871,2.7203,2.5046,2.2281,2.0205,1.7814,1.5058,1.2383,1.0086,0.8009,0.6337,0.5366,0.4748,0.4567,0.4389,0.4389,0.4389,0.4208,0.376,0.2685,0.1343,-0.0089,-0.2235,-0.4196,-0.6157,-0.8356,-1.0361,-1.2174,-1.3795,-1.5311,-1.6778,-1.812,-1.9507,-2.0857,-2.2109,-2.3156,-2.411,-2.4786,-2.5295,-2.5812,-2.6229,-2.6561,-2.6644,-2.6456,-2.579,-2.5126,-2.4786,-2.41,-2.3667,-2.4003,-2.4003,-2.4358,-2.52,-2.603,-2.694,-2.773,-2.8235,-2.8736,-2.9052,-2.8961,-2.8882,-2.8803,-2.8791,-2.8803,-2.8895,-2.904,-2.9028,-2.8858,-2.8371,-2.7371,-2.5848,-2.4193,-2.2698,-2.152,-2.0129,-1.8325,-1.6122,-1.3933,-1.1002,0.0,0.0,0.0,-0.538,-0.3046,-0.0692,0.1853,0.4403,0.6918,0.908,1.1299,1.3344,1.5028,1.6771,1.9609,2.4352,2.6691,2.8174,2.8963,3.0066,3.0578,3.0145,3.0588,3.085,3.076,3.0851,3.1029,3.1219,3.1364,3.1195,3.0597,3.0211,2.8987,2.6748,2.5485,2.3952,2.2067,2.0119,1.7806,1.5231,1.2808,1.0524,0.8456,0.6786,0.5725,0.501,0.4748,0.4661,0.4661,0.4661,0.4389,0.3849,0.2865,0.1613,0.0179,-0.1788,-0.3751,-0.5711,-0.8093,-1.0096,-1.1992,-1.3542,-1.4985,-1.6314,-1.7562,-1.8853,-2.0171,-2.1437,-2.263,-2.359,-2.4282,-2.5221,-2.5979,-2.6479,-2.6727,-2.6891,-2.6891,-2.6396,-2.5812,-2.5285,-2.4871,-2.4529,-2.4498,-2.4519,-2.4786,-2.5454,-2.6302,-2.7126,-2.773,-2.8383,-2.8882,-2.9131,-2.9131,-2.9052,-2.8882,-2.8791,-2.8724,-2.851,-2.851,-2.8247,-2.7718,-2.7058,-2.5848,-2.3927,-2.2095,-1.9768,-1.7115,-1.7115,-1.5994,-1.3747,-1.1526,-0.7521,-1.118,0.0,0.0,0.0,0.0,0.0,-0.0864,0.1306,0.3508,0.5424,0.7234,0.8932,1.0579,1.2348,1.4376,1.6891,2.1298,2.4801,2.61,2.6882,2.7645,2.8376,2.8531,2.8678,2.9093,2.938,2.969,2.995,2.9777,2.9564,2.9391,2.7923,2.6212,2.4326,2.3298,2.2015,2.0411,1.8711,1.6789,1.4587,1.2395,1.0265,0.8197,0.6789,0.5638,0.4748,0.4478,0.43,0.4119,0.4654,0.4654,0.4119,0.3135,0.188,0.0358,-0.1697,-0.3751,-0.5714,-0.7834,-0.9845,-1.166,-1.3281,-1.4636,-1.5921,-1.76,-1.8717,-1.9703,-2.1065,-2.2064,-2.2969,-2.3993,-2.4935,-2.5706,-2.6196,-2.6633,-2.6974,-2.7278,-2.6962,-2.6467,-2.603,-2.5443,-2.5031,-2.5189,-2.5189,-2.5454,-2.6113,-2.701,-2.7822,-2.8633,-2.9209,-2.9689,-2.9985,-2.9908,-2.9767,-2.9546,-2.904,-2.8645,-2.8339,-2.7846,-2.7174,-2.64,-2.5535,-2.4129,-2.2017,-1.9923,-1.7342,-1.4463,-1.4671,-1.3527,-1.1215,-0.6961,-0.1429,-1.1632,-1.0767,-0.9746,-0.8265,0.0,0.0,-0.3381,-0.1443,0.0426,0.1981,0.3471,0.4877,0.6245,0.7816,0.9222,1.0666,1.4203,1.813,2.1799,2.322,2.4203,2.5027,2.5436,2.5896,2.6637,2.6984,2.7407,2.7826,2.7624,2.7284,2.6856,2.5309,2.3773,2.2348,2.1491,2.0371,1.9015,1.7491,1.5828,1.3937,1.198,1.0005,0.8017,0.6609,0.5366,0.4389,0.4032,0.3673,0.3492,0.3848,0.3939,0.3762,0.2778,0.1523,0.0,-0.2056,-0.4018,-0.598,-0.8009,-0.9845,-1.1494,-1.2948,-1.4132,-1.5343,-1.7117,-1.8016,-1.8771,-2.0312,-2.1427,-2.2334,-2.3193,-2.4059,-2.484,-2.5611,-2.6041,-2.6467,-2.7126,-2.7044,-2.6798,-2.6693,-2.6113,-2.5695,-2.5957,-2.5874,-2.603,-2.6693,-2.7406,-2.8131,-2.8973,-2.9521,-3.0075,-3.0457,-3.0381,-3.0228,-2.9921,-2.9353,-2.8791,-2.8075,-2.7406,-2.6412,-2.5147,-2.3892,-2.2095,-1.957,-1.7235,-1.3903,-0.9676,-1.1274,-1.0206,-0.6758,-0.2585,0.2895,-1.1906,-1.1135,-1.0343,-0.9476,-0.809,0.0,-0.5618,-0.407,-0.2493,-0.1165,-0.0084,0.0941,0.2134,0.3199,0.4193,0.5321,0.6602,0.9771,1.6558,1.8932,2.0167,2.0536,2.148,2.2469,2.3289,2.3764,2.4284,2.4903,2.486,2.4372,2.3381,2.2419,2.1498,2.0658,1.9705,1.8662,1.7489,1.6146,1.4748,1.319,1.13,0.9483,0.7658,0.6248,0.4917,0.3758,0.3315,0.2957,0.2688,0.2418,0.2598,0.2959,0.1973,0.0718,-0.0806,-0.2594,-0.4465,-0.6422,-0.8273,-0.9937,-1.1499,-1.2613,-1.3639,-1.4677,-1.6249,-1.6976,-1.7722,-1.9323,-2.061,-2.1606,-2.2041,-2.2746,-2.3627,-2.4754,-2.5189,-2.5706,-2.6633,-2.6809,-2.688,-2.7103,-2.6693,-2.6362,-2.655,-2.6456,-2.6517,-2.7174,-2.7649,-2.8303,-2.9118,-2.9741,-3.0279,-3.0773,-3.0849,-3.0685,-3.019,-2.9716,-2.9015,-2.7971,-2.7139,-2.5891,-2.4039,-2.2221,-1.9833,-1.6886,-1.372,-0.9352,-0.3679,-0.695,-0.6057,-0.1297,0.1925,0.6482,-1.2139,-1.1507,-1.0824,-0.997,-0.9138,0.0,-0.7338,-0.6327,-0.5297,-0.4307,-0.3503,-0.2759,-0.192,-0.1254,-0.0588,0.0171,0.1194,0.4255,1.1031,1.3176,1.4458,1.5576,1.6563,1.7552,1.872,1.9354,1.9941,2.0553,2.0679,2.0488,1.9846,1.95,1.901,1.8282,1.7229,1.6303,1.5647,1.4201,1.3007,1.1895,1.0265,0.8615,0.6953,0.5536,0.4204,0.3045,0.2601,0.2153,0.1704,0.1435,0.1614,0.1973,0.1076,-0.0269,-0.1701,-0.3221,-0.5003,-0.6864,-0.836,-0.9937,-1.1494,-1.2443,-1.3392,-1.4358,-1.5563,-1.6279,-1.6936,-1.8597,-1.943,-2.0068,-2.0773,-2.1587,-2.2561,-2.3521,-2.4402,-2.5179,-2.6113,-2.6362,-2.6456,-2.688,-2.6891,-2.6809,-2.6809,-2.6951,-2.7174,-2.7649,-2.8395,-2.9197,-3.005,-3.052,-3.1061,-3.1596,-3.1669,-3.1582,-3.1334,-3.0558,-2.9704,-2.8712,-2.6976,-2.5115,-2.3047,-2.0578,-1.7604,-1.4218,-0.7841,-0.2661,0.1088,-0.0893,-0.0298,0.2964,0.7601,1.2782,-1.1878,-1.145,-1.0865,-1.0489,-0.9856,0.0,0.0,-0.813,-0.7446,-0.6803,-0.6474,-0.6034,-0.5453,-0.5089,-0.4724,-0.4103,-0.343,-0.1667,0.2167,0.5771,0.8514,0.9671,1.0778,1.1964,1.3022,1.4035,1.5091,1.6203,1.6576,1.6623,1.636,1.63,1.606,1.5539,1.4737,1.4134,1.3719,1.2641,1.1704,1.0966,0.9314,0.7742,0.6422,0.4914,0.3669,0.2511,0.1884,0.1345,0.0897,0.0359,0.0179,0.0179,-0.0179,-0.1165,-0.2506,-0.4113,-0.5714,-0.7309,-0.8719,-1.0111,-1.1413,-1.2277,-1.3052,-1.3762,-1.4858,-1.5784,-1.6733,-1.7609,-1.8249,-1.8703,-1.933,-2.015,-2.1051,-2.212,-2.2999,-2.3867,-2.4904,-2.5253,-2.5516,-2.6124,-2.629,-2.655,-2.6809,-2.7033,-2.7336,-2.7914,-2.8645,-2.9431,-3.0419,-3.1009,-3.1616,-3.2214,-3.2516,-3.2503,-3.22,-3.1576,-3.067,-2.9459,-2.7487,-2.5209,-2.2524,-1.9126,-1.4259,-0.7624,-0.1664,0.3196,0.6908,0.7071,0.7635,0.8623,1.3236,1.7489,-1.1422,-1.1135,-1.0835,-1.0835,-1.0335,-0.9841,0.0,0.0,0.0,-0.912,-0.9024,-0.898,-0.8645,-0.8532,-0.8324,-0.7946,-0.7535,-0.7049,-0.6339,-0.2016,0.1715,0.3452,0.4915,0.6126,0.7093,0.851,1.009,1.1678,1.2244,1.2673,1.2827,1.292,1.2832,1.2565,1.2293,1.1976,1.1766,1.1018,1.0408,0.9859,0.836,0.7037,0.5802,0.4383,0.3136,0.1974,0.1256,0.0718,0.0179,-0.0538,-0.1076,-0.1525,-0.1435,-0.2151,-0.3401,-0.5003,-0.6422,-0.7841,-0.9161,-1.0294,-1.1327,-1.2106,-1.2783,-1.338,-1.4269,-1.5357,-1.6393,-1.6595,-1.6958,-1.7412,-1.787,-1.8511,-1.9338,-2.0512,-2.1409,-2.2296,-2.3434,-2.3877,-2.4317,-2.5009,-2.5432,-2.5863,-2.6715,-2.7033,-2.751,-2.8247,-2.8882,-2.9651,-3.0683,-3.1502,-3.2245,-3.2903,-3.3325,-3.3465,-3.3171,-3.2777,-3.196,-3.0693,-2.8597,-2.5826,-2.2476,-1.6803,-0.9414,-0.009,0.431,0.8524,1.2771,1.4727,1.5119,1.4061,1.7836,2.0465,-1.0934,-1.0778,-1.0517,-1.0517,-1.0631,-1.0738,-1.0887,0.0,-1.0956,-1.1248,0.0,-1.1192,-1.1484,0.0,0.0,-1.1597,-1.1396,-1.108,-1.0578,-0.9389,-0.6969,-0.246,-0.0681,0.06,0.1484,0.3632,0.5476,0.6856,0.7548,0.8205,0.8871,0.927,0.9528,0.9586,0.9574,0.9572,0.9489,0.9185,0.888,0.846,0.7397,0.6245,0.5097,0.3849,0.2599,0.1436,0.0807,0.0179,-0.0359,-0.1076,-0.1615,-0.2154,-0.251,-0.3401,-0.465,-0.5625,-0.6956,-0.8285,-0.9253,-1.0207,-1.116,-1.186,-1.2867,-1.3891,-1.4115,-1.489,-1.5527,-1.5534,-1.5818,-1.6109,-1.6379,-1.7023,-1.7755,-1.858,-1.9588,-2.0683,-2.1774,-2.2473,-2.3086,-2.3877,-2.4317,-2.5094,-2.6362,-2.7021,-2.7753,-2.8633,-2.9419,-3.033,-3.1502,-3.2173,-3.2974,-3.3865,-3.4274,-3.4514,-3.478,-3.4455,-3.3776,-3.2751,-3.0222,-2.6966,-2.2978,-1.177,-0.2052,0.5867,0.9532,1.3269,1.7268,1.9394,1.9415,1.7577,1.9954,2.0618,-1.0499,-1.0347,-1.0248,-1.0647,-1.0738,-1.0887,-1.1335,-1.1706,-1.2077,-1.2526,0.0,0.0,0.0,0.0,0.0,0.0,-1.3697,-1.3512,-1.303,-1.2441,-1.0612,-0.6641,-0.5092,-0.3522,-0.1612,0.0,0.1453,0.272,0.3599,0.4397,0.5245,0.5951,0.6424,0.6731,0.7171,0.7431,0.7576,0.7771,0.7599,0.7139,0.6517,0.563,0.4565,0.3494,0.242,0.1345,0.0538,-0.0179,-0.0897,-0.1615,-0.2242,-0.2869,-0.3494,-0.4206,-0.5008,-0.6071,-0.7132,-0.8113,-0.9253,-1.012,-1.0921,-1.1942,-1.2767,-1.355,-1.3872,-1.4372,-1.4771,-1.4968,-1.4968,-1.4968,-1.5248,-1.5717,-1.6365,-1.7196,-1.8218,-1.9239,-2.0249,-2.097,-2.1774,-2.2833,-2.3617,-2.4488,-2.5695,-2.6693,-2.7672,-2.8633,-2.9704,-3.0771,-3.1809,-3.2747,-3.3644,-3.4595,-3.5355,-3.5885,-3.6276,-3.6368,-3.603,-3.522,-2.9881,-2.3992,-1.7548,-0.7409,0.1487,0.8732,1.2789,1.6107,1.8737,1.8979,1.8461,1.7303,2.0171,2.0364,-1.0033,-0.9986,-0.9989,-1.0632,-1.089,-1.1111,-1.1781,-1.2445,-1.3039,-1.355,-1.4049,0.0,0.0,0.0,-1.5401,-1.5542,0.0,-1.5392,-1.5021,-1.4458,-1.2938,-1.0068,-0.8478,-0.6774,-0.4444,-0.3329,-0.2248,-0.0957,0.0078,0.1013,0.1803,0.2714,0.3408,0.4026,0.4749,0.5365,0.5751,0.6289,0.6343,0.5985,0.5633,0.501,0.4119,0.3226,0.2241,0.1345,0.0448,-0.0448,-0.1166,-0.1885,-0.2601,-0.3315,-0.4032,-0.4654,-0.5277,-0.634,-0.7228,-0.7937,-0.9078,-1.0163,-1.102,-1.1905,-1.2716,-1.3383,-1.3659,-1.3998,-1.4208,-1.4406,-1.4304,-1.4112,-1.4304,-1.4682,-1.5146,-1.59,-1.6741,-1.777,-1.8788,-1.9621,-2.0628,-2.1872,-2.2921,-2.4049,-2.5263,-2.6517,-2.7672,-2.8791,-2.9935,-3.1071,-3.2187,-3.3311,-3.4327,-3.5305,-3.6338,-3.7184,-3.781,-3.8308,-3.8236,-3.7302,-3.0378,-2.2188,-1.2817,-0.4533,0.3911,1.2574,1.5559,1.7641,1.8911,1.7867,1.6358,1.4509,1.7779,1.7998,-0.9515,-0.9653,-0.9745,-1.039,-1.0967,-1.1558,-1.2378,-1.3178,-1.397,-1.4689,-1.4982,-1.5346,-1.6132,-1.6403,-1.6673,-1.7028,-1.7097,0.0,0.0,-1.6035,-1.4881,-1.2768,-1.0852,-0.9057,-0.7426,-0.6444,-0.543,-0.4066,-0.3122,-0.2206,-0.1289,-0.0404,0.0496,0.1381,0.2334,0.3148,0.3933,0.4739,0.5097,0.5008,0.4837,0.4478,0.3848,0.296,0.2064,0.1345,0.0448,-0.0448,-0.1166,-0.1885,-0.2601,-0.3315,-0.4032,-0.4746,-0.546,-0.6438,-0.7234,-0.794,-0.8995,-1.0353,-1.1688,-1.1698,-1.2558,-1.3514,-1.352,-1.3714,-1.3931,-1.3931,-1.3738,-1.3539,-1.3539,-1.3721,-1.41,-1.4592,-1.5356,-1.6197,-1.7505,-1.8527,-1.9637,-2.1177,-2.2315,-2.3607,-2.5231,-2.6588,-2.7914,-2.9184,-3.0254,-3.1381,-3.2761,-3.3811,-3.481,-3.5961,-3.714,-3.8362,-3.9548,-4.022,-4.0019,-3.8713,-3.2751,-2.3547,-1.0733,-0.3888,0.5791,1.8941,1.811,1.7717,1.8016,1.7147,1.4016,0.9053,1.213,1.2623,-0.8995,-0.9226,-0.9486,-1.0303,-1.0967,-1.1632,-1.2452,-1.3331,-1.4194,-1.4982,-1.5559,-1.6132,-1.6751,-1.7245,-1.7588,-1.7852,-1.792,-1.7784,0.0,-1.6324,-1.5103,-1.3682,-1.1683,-1.0028,-0.8942,-0.8086,-0.7211,-0.623,-0.5375,-0.4489,-0.3788,-0.2788,-0.1763,-0.0779,0.0351,0.1331,0.2236,0.3312,0.3851,0.3851,0.403,0.3849,0.3224,0.2601,0.1885,0.1166,0.0179,-0.0628,-0.1345,-0.1974,-0.2691,-0.3496,-0.3851,-0.4476,-0.5277,-0.6349,-0.7121,-0.7761,-0.9137,-1.0318,-1.1222,-1.1749,-1.2549,-1.3368,-1.3452,-1.3567,-1.3642,-1.3642,-1.3346,-1.3055,-1.3055,-1.3244,-1.3528,-1.4004,-1.4771,-1.5724,-1.6943,-1.8149,-1.9438,-2.0979,-2.257,-2.4049,-2.5673,-2.7162,-2.8462,-2.9263,-3.0482,-3.169,-3.2489,-3.3713,-3.5029,-3.623,-3.7826,-3.9413,-4.0788,-4.1898,-4.1977,-4.0645,-3.4772,-2.6339,-1.507,-0.639,0.2931,1.3129,1.4283,1.4145,1.2814,1.0495,0.74,0.376,0.3743,0.4436,-0.864,-0.893,-0.933,-1.0162,-1.0874,-1.1596,-1.2472,-1.3477,-1.4418,-1.5267,-1.5912,-1.6612,-1.7235,-1.7852,-1.8269,-1.8539,-1.8607,-1.8327,0.0,-1.6533,-1.5409,-1.4474,-1.2652,-1.1105,-1.0351,-0.9523,-0.8761,-0.8075,-0.7306,-0.6549,-0.6028,-0.4891,-0.3904,-0.2974,-0.1686,-0.0536,0.0537,0.1701,0.242,0.269,0.3136,0.3047,0.2601,0.2153,0.1525,0.0807,0.0,-0.0807,-0.1615,-0.1974,-0.2781,-0.3587,-0.3941,-0.4474,-0.5102,-0.6221,-0.7141,-0.8011,-0.9233,-1.025,-1.1175,-1.179,-1.2647,-1.3322,-1.3584,-1.3636,-1.3636,-1.3539,-1.3249,-1.2861,-1.2861,-1.2861,-1.3147,-1.3624,-1.4388,-1.5343,-1.6662,-1.8048,-1.9513,-2.132,-2.2999,-2.4638,-2.6329,-2.7879,-2.9003,-2.9561,-3.0722,-3.1703,-3.2345,-3.3575,-3.4999,-3.6414,-3.8346,-4.0331,-4.2334,-4.3292,-4.3222,-4.1906,-3.6142,-2.785,-1.6812,-0.8485,0.0532,1.0454,1.0837,0.9948,0.7868,0.4738,0.1685,-0.1093,-0.3187,-0.3085]}]]